[[{"header":{"parameterUnit":"m.s-1","parameterCategory":1,"la1":31.0,"la2":29.5877,"lo1":-88.7671,"lo2":-86.6584,"dy":0.0162,"dx":0.0185,"nx":115,"ny":88,"refTime":"2023-10-21T06:00:00:Z","depth":0,"parameterNumber":2,"parameterNumberName":"U-component_of_WINDS"},"data":[0.0,0.0,0.0,0.0,0.0,0.0,0.0,0.0,0.0,0.0,0.0,0.0,0.0,0.0,0.0,0.0,0.0,0.0,0.0,0.0,0.0,0.0,0.0,0.0,0.0,0.0,0.0,0.0,0.0,0.0,0.0,0.0,0.0,0.0,0.0,0.0,0.0,0.0,0.0,0.0,0.0,0.0,0.0,0.0,0.0,0.0,0.0,0.0,0.0,0.0,0.0,0.0,0.0,0.0,0.0,0.0,0.0,0.0,0.0,0.0,0.0,0.0,0.0,0.0,0.0,0.0,0.0,0.0,0.0,0.0,0.0,0.0,0.0,0.0,0.0,0.0,0.0,0.0,0.0,0.0,0.0,0.0,0.0,0.0,0.0,0.0,0.0,0.0,0.0,0.0,0.0,0.0,0.0,0.0,0.0,0.0,0.0,0.0,0.0,0.0,0.0,0.0,0.0,0.0,0.0,0.0,0.0,0.0,0.0,0.0,0.0,0.0,0.0,0.0,0.0,0.0,0.0,0.0,0.0,0.0,0.0,0.0,0.0,0.0,0.0,0.0,0.0,0.0,0.0,0.0,0.0,0.0,0.0,0.0,0.0,0.0,0.0,0.0,0.0,0.0,0.0,0.0,0.0,0.0,0.0,0.0,0.0,0.0,0.0,0.0,0.0,0.0,0.0,0.0,0.0,0.0,0.0,0.0,0.0,0.0,0.0,0.0,0.0,0.0,0.0,0.0,0.0,0.0,0.0,0.0,0.0,0.0,0.0,0.0,0.0,0.0,0.0,0.0,0.0,0.0,0.0,0.0,0.0,0.0,0.0,0.0,0.0,0.0,0.0,0.0,0.0,0.0,0.0,0.0,0.0,0.0,0.0,0.0,0.0,0.0,0.0,0.0,0.0,0.0,0.0,0.0,0.0,0.0,0.0,0.0,0.0,0.0,0.0,0.0,0.0,0.0,0.0,0.0,0.0,0.0,0.0,0.0,0.0,0.0,0.0,0.0,0.0,0.0,0.0,0.0,0.0,0.0,0.0,0.0,0.0,0.0,0.0,0.0,0.0,0.0,0.0,0.0,0.0,0.0,0.0,0.0,0.0,0.0,0.0,0.0,0.0,0.0,0.0,0.0,0.0,0.0,0.0,0.0,0.0,0.0,0.0,0.0,0.0,0.0,0.0,0.0,0.0,0.0,0.0,0.0,0.0,0.0,0.0,0.0,0.0,0.0,0.0,0.0,0.0,0.0,0.0,0.0,0.0,0.0,0.0,0.0,0.0,0.0,0.0,0.0,0.0,0.0,0.0,0.0,0.0,0.0,0.0,0.0,0.0,0.0,0.0,0.0,0.0,0.0,0.0,0.0,0.0,0.0,0.0,0.0,0.0,0.0,0.0,0.0,0.0,0.0,0.0,0.0,0.0,0.0,0.0,0.0,0.0,0.0,0.0,0.0,0.0,0.0,0.0,0.0,0.0,0.0,0.0,0.0,0.0,0.0,0.0,0.0,0.0,0.0,0.0,0.0,0.0,0.0,0.0,0.0,0.0,0.0,0.0,0.0,0.0,0.0,0.0,0.0,0.0,0.0,0.0,0.0,0.0,0.0,0.0,0.0,0.0,0.0,0.0,0.0,0.0,0.0,0.0,0.0,0.0,0.0,0.0,0.0,0.0,0.0,0.0,0.0,0.0,0.0,0.0,0.0,0.0,0.0,0.0,0.0,0.0,0.0,0.0,0.0,0.0,0.0,0.0,0.0,0.0,0.0,0.0,0.0,0.0,0.0,0.0,0.0,0.0,0.0,0.0,0.0,0.0,0.0,0.0,0.0,0.0,0.0,0.0,0.0,0.0,0.0,0.0,0.0,0.0,0.0,0.0,0.0,0.0,0.0,0.0,0.0,0.0,0.0,0.0,0.0,0.0,0.0,0.0,0.0,0.0,0.0,0.0,0.0,0.0,0.0,0.0,0.0,0.0,0.0,0.0,0.0,0.0,0.0,0.0,0.0,0.0,0.0,0.0,0.0,0.0,0.0,0.0,0.0,0.0,0.0,0.0,0.0,0.0,0.0,0.0,0.0,0.0,0.0,0.0,0.0,0.0,0.0,0.0,0.0,0.0,0.0,0.0,0.0,0.0,0.0,0.0,0.0,0.0,0.0,0.0,0.0,0.0,0.0,0.0,0.0,0.0,0.0,0.0,0.0,0.0,0.0,0.0,0.0,0.0,0.0,0.0,0.0,0.0,0.0,0.0,0.0,0.0,0.0,0.0,0.0,0.0,0.0,0.0,0.0,0.0,0.0,0.0,0.0,0.0,0.0,0.0,0.0,0.0,0.0,0.0,0.0,0.0,0.0,0.0,0.0,0.0,0.0,0.0,0.0,0.0,0.0,0.0,0.0,0.0,0.0,0.0,0.0,0.0,0.0,0.0,0.0,0.0,0.0,0.0,0.0,0.0,0.0,0.0,0.0,0.0,0.0,0.0,0.0,0.0,0.0,0.0,0.0,0.0,0.0,0.0,0.0,0.0,0.0,0.0,0.0,0.0,0.0,0.0,0.0,0.0,0.0,0.0,0.0,0.0,0.0,0.0,0.0,0.0,0.0,0.0,0.0,0.0,0.0,0.0,0.0,0.0,0.0,0.0,0.0,0.0,0.0,0.0,0.0,0.0,0.0,0.0,0.0,0.0,0.0,0.0,0.0,0.0,0.0,0.0,0.0,0.0,0.0,0.0,0.0,0.0,0.0,0.0,0.0,0.0,0.0,0.0,0.0,0.0,0.0,0.0,0.0,0.0,0.0,0.0,0.0,0.0,0.0,0.0,0.0,0.0,0.0,0.0,0.0,0.0,0.0,0.0,0.0,0.0,0.0,0.0,0.0,0.0,0.0,0.0,0.0,0.0,0.0,0.0,0.0,0.0,0.0,0.0,0.0,0.0,0.0,0.0,0.0,0.0,0.0,0.0,0.0,0.0,0.0,0.0,0.0,0.0,0.0,0.0,0.0,0.0,0.0,0.0,0.0,0.0,0.0,0.0,0.0,0.0,0.0,0.0,0.0,0.0,0.0,0.0,0.0,0.0,0.0,0.0,0.0,0.0,0.0,0.0,0.0,0.0,0.0,0.0,0.0,0.0,0.0,0.0,0.0,0.0,0.0,0.0,0.0,0.0,0.0,0.0,0.0,0.0,0.0,0.0,0.0,0.0,0.0,0.0,0.0,0.0,0.0,0.0,0.0,0.0,0.0,0.0,0.0,0.0,0.0,0.0,0.0,0.0,0.0,0.0,0.0,0.0,0.0,0.0,0.0,0.0,0.0,0.0,0.0,0.0,0.0,0.0,0.0,0.0,0.0,0.0,0.0,0.0,0.0,0.0,0.0,0.0,0.0,0.0,0.0,0.0,0.0,0.0,0.0,0.0,0.0,0.0,0.0,0.0,0.0,0.0,0.0,0.0,0.0,0.0,0.0,0.0,0.0,0.0,0.0,0.0,0.0,0.0,0.0,0.0,0.0,0.0,0.0,0.0,0.0,0.0,0.0,0.0,0.0,0.0,0.0,0.0,0.0,0.0,0.0,0.0,0.0,0.0,0.0,0.0,0.0,0.0,0.0,0.0,0.0,0.0,0.0,0.0,0.0,0.0,0.0,0.0,0.0,0.0,0.0,0.0,0.0,0.0,0.0,0.0,0.0,0.0,0.0,0.0,0.0,0.0,0.0,0.0,0.0,0.0,0.0,0.0,0.0,0.0,0.0,0.0,0.0,0.0,0.0,0.0,0.0,0.0,0.0,0.0,0.0,0.0,0.0,0.0,0.0,0.0,0.0,0.0,0.0,0.0,0.0,0.0,0.0,0.0,0.0,0.0,0.0,0.0,0.0,0.0,0.0,0.0,0.0,0.0,0.0,0.0,0.0,0.0,0.0,0.0,0.0,0.0,0.0,0.0,0.0,0.0,0.0,0.0,0.0,0.0,0.0,0.0,0.0,0.0,0.0,0.0,0.0,0.0,0.0,0.0,0.0,0.0,0.0,0.0,0.0,0.0,0.0,0.0,0.0,0.0,0.0,0.0,0.0,0.0,0.0,0.0,0.0,0.0,0.0,0.0,0.0,0.0,0.0,0.0,0.0,0.0,0.0,0.0,0.0,0.0,0.0,0.0,0.0,0.0,0.0,0.0,0.0,0.0,0.0,0.0,0.0,0.0,0.0,0.0,0.0,0.0,0.0,0.0,0.0,0.0,0.0,0.0,0.0,0.0,0.0,0.0,0.0,0.0,0.0,0.0,0.0,0.0,0.0,0.0,0.0,1.5817,0.0,0.0,0.0,0.0,0.0,0.0,0.0,0.0,0.0,0.0,0.0,0.0,0.0,0.0,0.0,0.0,0.0,0.0,0.0,0.0,0.0,0.0,0.0,0.0,0.0,0.0,0.0,0.0,0.0,0.0,0.0,0.0,0.0,0.0,0.0,0.0,0.0,0.0,0.0,0.0,0.0,0.0,0.0,0.0,0.0,0.0,0.0,0.0,0.0,0.0,0.0,0.0,0.0,0.0,0.0,0.0,0.0,0.0,0.0,0.0,0.0,0.0,0.0,0.0,0.0,0.0,0.0,0.0,0.0,0.0,0.0,0.0,0.0,0.0,0.0,0.0,0.0,0.0,0.0,0.0,0.0,0.0,0.0,0.0,0.0,0.0,0.0,0.0,0.0,0.0,0.0,0.0,0.0,0.0,0.0,0.0,0.0,0.0,0.0,0.0,0.0,0.0,0.0,0.0,0.0,0.0,0.0,0.0,0.0,0.0,1.3813,1.4437,1.5012,1.554,1.5994,0.0,0.0,0.0,0.0,0.0,0.0,0.0,0.0,0.0,0.0,0.0,0.0,0.0,0.0,0.0,0.0,0.0,0.0,0.0,0.0,0.0,0.0,0.0,0.0,0.0,0.0,0.0,0.0,0.0,0.0,0.0,0.0,0.0,0.0,0.0,0.0,0.0,0.0,0.0,0.0,0.0,0.0,0.0,0.0,0.0,0.0,0.0,0.0,0.0,0.0,0.0,0.0,0.0,0.0,0.0,0.0,0.0,0.0,0.0,0.0,0.0,0.0,0.0,0.0,0.0,0.0,0.0,0.0,0.0,0.0,0.0,0.0,0.0,0.0,0.0,0.0,0.0,0.0,0.0,0.0,0.0,0.0,0.0,0.0,0.0,0.0,0.0,0.0,0.0,0.0,0.0,0.0,0.0,0.0,0.0,0.0,0.0,0.0,0.0,0.0,0.0,0.0,0.0,0.0,0.0,0.0,0.0,0.0,0.0,0.0,0.0,0.0,1.516,1.5614,1.5924,0.0,0.0,0.0,0.0,0.0,0.0,0.0,0.0,0.0,0.0,0.0,0.0,0.0,0.0,0.0,0.0,0.0,0.0,0.0,0.0,0.0,0.0,0.0,0.0,0.0,0.0,0.0,0.0,0.0,0.0,0.0,0.0,0.0,0.0,0.0,0.0,0.0,0.0,0.0,0.0,0.0,0.0,0.0,0.0,0.0,0.0,0.0,0.0,0.0,0.0,0.0,0.0,0.0,0.0,0.0,0.0,0.0,0.0,0.0,0.0,0.0,0.0,0.0,0.0,0.0,0.0,0.0,0.0,0.0,0.0,0.0,0.0,0.0,0.0,0.0,0.0,0.0,0.0,0.0,0.0,0.0,0.0,0.0,0.0,0.0,0.0,0.0,0.0,0.0,0.0,0.0,0.0,0.0,0.0,0.0,0.0,0.0,0.0,0.0,0.0,0.0,0.0,0.0,0.0,0.0,0.0,0.0,0.0,0.0,0.0,1.4774,1.5393,1.5973,0.0,1.5827,0.0,0.0,0.0,0.0,0.0,0.0,0.0,0.0,0.0,0.0,0.0,0.0,0.0,0.0,0.0,0.0,0.0,0.0,0.0,0.0,0.0,0.0,0.0,0.0,0.0,0.0,0.0,0.0,0.0,0.0,0.0,0.0,0.0,0.0,0.0,0.0,0.0,0.0,0.0,0.0,0.0,0.0,0.0,0.0,0.0,0.0,0.0,0.0,0.0,0.0,0.0,0.0,0.0,0.0,0.0,0.0,0.0,0.0,0.0,0.0,0.0,0.0,0.0,0.0,0.0,0.0,0.0,0.0,0.0,0.0,0.0,0.0,0.0,0.0,0.0,0.0,0.0,0.0,0.0,0.0,0.0,0.0,0.0,0.0,0.0,0.0,0.0,0.0,0.0,0.0,0.0,0.0,0.0,0.0,0.0,0.0,0.0,0.0,0.0,0.0,0.0,0.0,0.0,0.0,0.0,0.0,0.0,0.0,0.0,0.0,1.5278,1.5571,1.5971,1.6111,0.0,0.0,0.0,0.0,0.0,0.0,0.0,0.0,0.0,0.0,0.0,0.0,0.0,0.0,0.0,0.0,0.0,0.0,0.0,0.0,0.0,0.0,0.0,0.0,0.0,0.0,0.0,0.0,0.0,0.0,0.0,0.0,0.0,0.0,0.0,0.0,0.0,0.0,0.0,0.0,0.0,0.0,0.0,0.0,0.0,0.0,0.0,0.0,0.0,0.0,0.0,0.0,0.0,0.0,0.0,0.0,0.0,0.0,0.0,0.0,0.0,0.0,0.0,0.0,0.0,0.0,0.0,0.0,0.0,0.0,0.0,0.0,0.0,0.0,0.0,0.0,0.0,0.0,0.0,0.0,0.0,0.0,0.0,0.0,0.0,0.0,0.0,0.0,0.0,0.0,0.0,0.0,0.0,0.0,0.0,0.0,0.0,0.0,0.0,0.0,0.0,0.0,0.0,0.0,0.0,0.0,0.0,0.0,0.0,0.0,1.5391,1.565,1.5855,1.6053,1.6039,1.5814,0.0,0.0,0.0,0.0,0.0,0.0,0.0,0.0,0.0,0.0,0.0,0.0,0.0,0.0,0.0,0.0,0.0,0.0,0.0,0.0,0.0,0.0,0.0,0.0,0.0,0.0,0.0,0.0,0.0,0.0,0.0,0.0,0.0,0.0,0.0,0.0,0.0,0.0,0.0,0.0,0.0,0.0,0.0,0.0,0.0,0.0,0.0,0.0,0.0,0.0,0.0,0.0,0.0,0.0,0.0,0.0,0.0,0.0,0.0,0.0,0.0,0.0,0.0,0.0,0.0,0.0,0.0,0.0,0.0,0.0,0.0,0.0,0.0,0.0,0.0,0.0,0.0,0.0,0.0,0.0,0.0,0.0,0.0,0.0,0.0,0.0,0.0,0.0,0.0,0.0,0.0,0.0,0.0,0.0,0.0,0.0,0.0,0.0,0.0,0.0,0.0,0.0,0.0,0.0,0.0,0.0,0.0,0.0,1.5735,1.5799,1.5996,1.6407,1.6367,1.6151,0.0,0.0,0.0,0.0,0.0,0.0,0.0,0.0,0.0,0.0,0.0,0.0,0.0,0.0,0.0,0.0,0.0,0.0,0.0,0.0,0.0,0.0,0.0,0.0,0.0,0.0,0.0,0.0,0.0,0.0,0.0,0.0,0.0,0.0,0.0,0.0,0.0,0.0,0.0,0.0,0.0,0.0,0.0,0.0,0.0,0.0,0.0,0.0,0.0,0.0,0.0,0.0,0.0,0.0,0.0,0.0,0.0,0.0,0.0,0.0,0.0,0.0,0.0,0.0,0.0,0.0,0.0,0.0,0.0,0.0,0.0,0.0,0.0,0.0,0.0,0.0,0.0,0.0,0.0,0.0,0.0,0.0,0.0,0.0,0.0,0.0,0.0,0.0,0.0,0.0,0.0,0.0,0.0,0.0,0.0,0.0,0.0,0.0,0.0,0.0,0.0,0.0,0.0,0.0,0.0,0.0,0.0,0.0,0.0,1.6554,1.6504,1.6515,1.6485,1.6367,1.6191,0.0,0.0,0.0,0.0,0.0,0.0,0.0,0.0,0.0,0.0,0.0,0.0,0.0,0.0,0.0,0.0,0.0,0.0,0.0,0.0,0.0,0.0,0.0,0.0,0.0,0.0,0.0,0.0,0.0,0.0,0.0,0.0,0.0,0.0,0.0,0.0,0.0,0.0,0.0,0.0,0.0,0.0,0.0,0.0,0.0,0.0,0.0,0.0,0.0,0.0,0.0,0.0,0.0,0.0,0.0,0.0,0.0,0.0,0.0,0.0,0.0,0.0,0.0,0.0,0.0,0.0,0.0,0.0,0.0,0.0,0.0,0.0,0.0,0.0,0.0,0.0,0.0,0.0,0.0,0.0,0.0,0.0,0.0,0.0,0.0,0.0,0.0,0.0,0.0,0.0,0.0,0.0,0.0,0.0,0.0,0.0,0.0,0.0,0.0,0.0,0.0,0.0,0.0,0.0,0.0,0.0,0.0,0.0,0.0,1.7345,0.0,1.6871,1.6846,1.6491,1.6191,0.0,0.0,0.0,0.0,0.0,0.0,0.0,0.0,0.0,0.0,0.0,0.0,0.0,0.0,0.0,0.0,0.0,0.0,0.0,0.0,0.0,0.0,0.0,0.0,0.0,0.0,0.0,0.0,0.0,0.0,0.0,0.0,0.0,0.0,0.0,0.0,0.0,0.0,0.0,0.0,0.0,0.0,0.0,0.0,0.0,0.0,0.0,0.0,0.0,0.0,0.0,0.0,0.0,0.0,0.0,0.0,0.0,0.0,0.0,0.0,0.0,0.0,0.0,0.0,0.0,0.0,0.0,0.0,0.0,0.0,0.0,0.0,0.0,0.0,0.0,0.0,0.0,0.0,0.0,0.0,0.0,0.0,0.0,0.0,0.0,0.0,0.0,0.0,0.0,0.0,0.0,0.0,0.0,0.0,0.0,0.0,0.0,0.0,0.0,0.0,0.0,0.0,0.0,0.0,0.0,0.0,0.0,0.0,1.7439,1.8033,1.7289,1.7119,1.7537,1.676,1.6166,0.0,0.0,0.0,0.0,0.0,0.0,0.0,0.0,0.0,0.0,0.0,0.0,0.0,0.0,0.0,0.0,0.0,0.0,0.0,0.0,0.0,0.0,0.0,0.0,0.0,0.0,0.0,0.0,0.0,0.0,0.0,0.0,0.0,0.0,0.0,0.0,0.0,0.0,0.0,0.0,0.0,0.0,0.0,0.0,0.0,0.0,0.0,0.0,0.0,0.0,0.0,0.0,0.0,0.0,0.0,0.0,0.0,0.0,0.0,0.0,0.0,0.0,0.0,0.0,0.0,0.0,0.0,0.0,0.0,0.0,0.0,0.0,0.0,0.0,0.0,0.0,0.0,0.0,0.0,0.0,0.0,0.0,0.0,0.0,0.0,0.0,0.0,0.0,0.0,0.0,0.0,0.0,0.0,0.0,0.0,0.0,0.0,0.0,0.0,0.0,0.0,0.0,0.0,0.0,0.0,0.0,0.0,0.0,0.0,1.8619,1.8245,1.8013,1.7991,1.7209,1.6652,0.0,0.0,0.0,0.0,0.0,0.0,0.0,0.0,0.0,0.0,0.0,0.0,0.0,0.0,0.0,0.0,0.0,0.0,0.0,0.0,0.0,0.0,0.0,0.0,0.0,0.0,0.0,0.0,0.0,0.0,0.0,0.0,0.0,0.0,0.0,0.0,0.0,0.0,0.0,0.0,0.0,0.0,0.0,0.0,0.0,0.0,0.0,0.0,0.0,0.0,0.0,0.0,0.0,0.0,0.0,0.0,0.0,0.0,0.0,0.0,0.0,0.0,0.0,0.0,0.0,0.0,0.0,0.0,0.0,0.0,0.0,0.0,0.0,0.0,0.0,0.0,0.0,0.0,0.0,0.0,0.0,0.0,0.0,0.0,0.0,0.0,0.0,0.0,0.0,0.0,0.0,0.0,0.0,0.0,0.0,0.0,0.0,0.0,0.0,0.0,0.0,0.0,0.0,0.0,0.0,0.0,0.0,0.0,0.0,1.904,1.8389,1.8038,1.8113,1.7467,1.683,1.6155,0.0,0.0,0.0,0.0,0.0,0.0,0.0,0.0,0.0,0.0,0.0,0.0,0.0,0.0,0.0,0.0,0.0,0.0,0.0,0.0,0.0,0.0,0.0,0.0,0.0,0.0,0.0,0.0,0.0,0.0,0.0,0.0,0.0,0.0,0.0,0.0,0.0,0.0,0.0,0.0,0.0,0.0,0.0,0.0,0.0,0.0,0.0,0.0,0.0,0.0,0.0,0.0,0.0,0.0,0.0,0.0,0.0,0.0,0.0,0.0,0.0,0.0,0.0,0.0,0.0,0.0,0.0,0.0,0.0,0.0,0.0,0.0,0.0,0.0,0.0,0.0,0.0,0.0,0.0,0.0,0.0,0.0,0.0,0.0,0.0,0.0,0.0,0.0,0.0,0.0,0.0,0.0,0.0,0.0,0.0,0.0,0.0,0.0,0.0,0.0,0.0,0.0,0.0,0.0,0.0,0.0,0.0,0.0,1.9448,1.7868,1.7348,1.7887,1.7533,1.6699,0.0,0.0,0.0,0.0,0.0,0.0,0.0,0.0,0.0,0.0,0.0,0.0,0.0,0.0,0.0,0.0,0.0,0.0,0.0,0.0,0.0,0.0,0.0,0.0,0.0,0.0,0.0,0.0,0.0,0.0,0.0,0.0,0.0,0.0,0.0,0.0,0.0,0.0,0.0,0.0,0.0,0.0,0.0,0.0,0.0,0.0,0.0,0.0,0.0,0.0,0.0,0.0,0.0,0.0,0.0,0.0,0.0,0.0,0.0,0.0,0.0,0.0,0.0,0.0,0.0,0.0,0.0,0.0,0.0,0.0,0.0,0.0,0.0,0.0,0.0,0.0,0.0,0.0,0.0,0.0,0.0,0.0,0.0,0.0,0.0,0.0,0.0,0.0,0.0,0.0,0.0,0.0,0.0,0.0,0.0,0.0,0.0,0.0,0.0,0.0,0.0,0.0,0.0,0.0,0.0,0.0,0.0,0.0,0.0,1.9848,1.8446,1.7763,1.7937,1.6848,1.6378,0.0,0.0,0.0,0.0,0.0,0.0,0.0,0.0,0.0,0.0,0.0,0.0,0.0,0.0,0.0,0.0,0.0,0.0,0.0,0.0,0.0,0.0,0.0,0.0,0.0,0.0,0.0,0.0,0.0,0.0,0.0,0.0,0.0,0.0,0.0,0.0,0.0,0.0,0.0,0.0,0.0,0.0,0.0,0.0,0.0,0.0,0.0,0.0,0.0,0.0,0.0,0.0,0.0,0.0,0.0,0.0,0.0,0.0,0.0,0.0,0.0,0.0,0.0,0.0,0.0,0.0,0.0,0.0,0.0,0.0,0.0,0.0,0.0,0.0,0.0,0.0,0.0,0.0,0.0,0.0,0.0,0.0,0.0,0.0,0.0,0.0,0.0,0.0,0.0,0.0,0.0,0.0,0.0,0.0,0.0,0.0,0.0,0.0,0.0,0.0,0.0,0.0,0.0,0.0,0.0,0.0,0.0,0.0,1.9977,1.9535,1.868,1.8087,1.7723,1.6996,1.6583,0.0,0.0,0.0,0.0,0.0,0.0,0.0,0.0,0.0,0.0,0.0,0.0,0.0,0.0,0.0,0.0,0.0,0.0,0.0,0.0,0.0,0.0,0.0,0.0,0.0,0.0,0.0,0.0,0.0,0.0,0.0,0.0,0.0,0.0,0.0,0.0,0.0,0.0,0.0,0.0,0.0,0.0,0.0,0.0,0.0,0.0,0.0,0.0,0.0,0.0,0.0,0.0,0.0,0.0,0.0,0.0,0.0,0.0,0.0,0.0,0.0,0.0,0.0,0.0,0.0,0.0,0.0,0.0,0.0,0.0,0.0,0.0,0.0,0.0,0.0,0.0,0.0,0.0,0.0,0.0,0.0,0.0,0.0,0.0,0.0,0.0,0.0,0.0,0.0,0.0,0.0,0.0,0.0,0.0,0.0,0.0,0.0,0.0,0.0,0.0,0.0,0.0,0.0,0.0,0.0,0.0,0.0,0.0,2.0436,1.8982,1.8852,1.8365,1.747,1.7395,1.701,0.0,0.0,0.0,0.0,0.0,0.0,0.0,0.0,0.0,0.0,0.0,0.0,0.0,0.0,0.0,0.0,0.0,0.0,0.0,0.0,0.0,0.0,0.0,0.0,0.0,0.0,0.0,0.0,0.0,0.0,0.0,0.0,0.0,0.0,0.0,0.0,0.0,0.0,0.0,0.0,0.0,0.0,0.0,0.0,0.0,0.0,0.0,0.0,0.0,0.0,0.0,0.0,0.0,0.0,0.0,0.0,0.0,0.0,0.0,0.0,0.0,0.0,0.0,0.0,0.0,0.0,0.0,0.0,0.0,0.0,0.0,0.0,0.0,0.0,0.0,0.0,0.0,0.0,0.0,0.0,0.0,0.0,0.0,0.0,0.0,0.0,0.0,0.0,0.0,0.0,0.0,0.0,0.0,0.0,0.0,0.0,0.0,0.0,0.0,0.0,0.0,0.0,0.0,0.0,0.0,0.0,0.0,0.0,2.0744,2.0444,1.9824,1.9111,1.8313,1.6494,1.622,0.0,0.0,0.0,0.0,0.0,0.0,0.0,0.0,0.0,0.0,0.0,0.0,0.0,0.0,0.0,0.0,0.0,0.0,0.0,0.0,0.0,0.0,0.0,0.0,0.0,0.0,0.0,0.0,0.0,0.0,0.0,0.0,0.0,0.0,0.0,0.0,0.0,0.0,0.0,0.0,0.0,0.0,0.0,0.0,0.0,0.0,0.0,0.0,2.076,0.0,0.0,0.0,0.0,0.0,0.0,0.0,0.0,0.0,0.0,0.0,0.0,0.0,0.0,0.0,0.0,0.0,0.0,0.0,0.0,0.0,0.0,0.0,0.0,0.0,0.0,0.0,0.0,0.0,0.0,0.0,0.0,0.0,0.0,0.0,0.0,0.0,0.0,0.0,0.0,0.0,0.0,0.0,0.0,0.0,0.0,0.0,0.0,0.0,0.0,0.0,0.0,0.0,0.0,0.0,0.0,0.0,0.0,0.0,2.127,2.0669,2.045,1.9713,1.8432,1.7036,1.6773,0.0,0.0,0.0,0.0,0.0,0.0,0.0,0.0,0.0,0.0,0.0,0.0,0.0,0.0,0.0,0.0,0.0,0.0,0.0,0.0,0.0,0.0,0.0,0.0,0.0,0.0,0.0,0.0,0.0,0.0,0.0,0.0,0.0,0.0,0.0,0.0,0.0,0.0,0.0,0.0,0.0,0.0,0.0,0.0,0.0,0.0,0.0,0.0,0.0,0.0,0.0,0.0,0.0,0.0,0.0,0.0,0.0,0.0,0.0,0.0,0.0,0.0,0.0,0.0,0.0,0.0,0.0,0.0,0.0,0.0,0.0,0.0,0.0,0.0,0.0,0.0,0.0,0.0,0.0,0.0,0.0,0.0,0.0,0.0,0.0,0.0,0.0,0.0,0.0,0.0,0.0,0.0,0.0,0.0,0.0,0.0,0.0,0.0,0.0,0.0,0.0,0.0,0.0,0.0,0.0,0.0,0.0,2.1791,2.1757,2.0779,2.0962,2.0241,1.8512,1.8123,1.7836,1.7603,0.0,0.0,0.0,0.0,0.0,0.0,0.0,0.0,0.0,0.0,0.0,0.0,0.0,0.0,0.0,0.0,0.0,0.0,0.0,0.0,0.0,0.0,0.0,0.0,0.0,0.0,0.0,0.0,0.0,0.0,0.0,0.0,0.0,0.0,0.0,0.0,0.0,0.0,2.0431,2.1142,0.0,0.0,0.0,0.0,0.0,0.0,0.0,0.0,2.221,0.0,0.0,0.0,0.0,0.0,0.0,0.0,0.0,0.0,0.0,0.0,0.0,0.0,0.0,0.0,0.0,0.0,0.0,0.0,0.0,0.0,0.0,0.0,0.0,0.0,0.0,0.0,0.0,0.0,0.0,0.0,0.0,0.0,0.0,0.0,0.0,0.0,0.0,0.0,0.0,0.0,0.0,0.0,0.0,0.0,0.0,0.0,0.0,0.0,0.0,0.0,0.0,0.0,0.0,0.0,0.0,2.1207,2.1541,2.1843,2.2027,2.13,2.0454,1.9576,1.8923,1.8359,1.797,0.0,0.0,0.0,0.0,0.0,0.0,0.0,0.0,0.0,0.0,0.0,0.0,0.0,0.0,0.0,0.0,0.0,0.0,0.0,0.0,0.0,0.0,0.0,0.0,0.0,0.0,0.0,0.0,0.0,0.0,0.0,0.0,0.0,0.0,0.0,0.0,0.0,0.0,0.0,2.2661,2.297,0.0,0.0,0.0,0.0,0.0,0.0,0.0,0.0,2.1879,0.0,0.0,0.0,0.0,0.0,0.0,0.0,0.0,0.0,0.0,0.0,0.0,0.0,0.0,0.0,0.0,0.0,0.0,0.0,0.0,0.0,0.0,0.0,0.0,0.0,0.0,0.0,0.0,0.0,0.0,0.0,0.0,0.0,0.0,0.0,0.0,0.0,0.0,0.0,0.0,0.0,0.0,0.0,0.0,0.0,0.0,0.0,0.0,0.0,0.0,0.0,0.0,0.0,0.0,0.0,2.1622,2.1725,2.1675,2.1469,2.1168,2.0251,1.8759,1.8885,1.8657,0.0,0.0,0.0,0.0,0.0,0.0,0.0,0.0,0.0,0.0,0.0,0.0,0.0,0.0,0.0,0.0,0.0,0.0,0.0,0.0,0.0,0.0,0.0,0.0,0.0,0.0,0.0,0.0,0.0,0.0,0.0,0.0,0.0,0.0,0.0,0.0,0.0,0.0,0.0,0.0,2.2964,2.3183,2.3311,0.0,0.0,0.0,0.0,0.0,0.0,2.3005,2.2962,0.0,0.0,0.0,0.0,0.0,0.0,0.0,0.0,0.0,0.0,0.0,0.0,0.0,0.0,0.0,0.0,0.0,0.0,0.0,0.0,0.0,0.0,0.0,0.0,0.0,0.0,0.0,0.0,0.0,0.0,0.0,0.0,0.0,0.0,0.0,0.0,0.0,0.0,0.0,0.0,0.0,0.0,0.0,0.0,0.0,0.0,0.0,0.0,0.0,0.0,0.0,0.0,0.0,0.0,0.0,2.1816,2.1801,2.1402,2.0654,2.0794,1.9901,1.7968,1.8639,1.872,0.0,0.0,0.0,0.0,0.0,0.0,0.0,0.0,0.0,0.0,0.0,0.0,0.0,0.0,0.0,0.0,0.0,0.0,0.0,0.0,0.0,0.0,0.0,0.0,0.0,0.0,0.0,0.0,0.0,0.0,0.0,0.0,0.0,0.0,0.0,0.0,0.0,0.0,0.0,0.0,0.0,2.3447,2.3642,2.3703,0.0,0.0,0.0,0.0,2.4443,2.4334,0.0,0.0,0.0,0.0,0.0,0.0,0.0,0.0,0.0,0.0,0.0,0.0,0.0,0.0,0.0,0.0,0.0,0.0,0.0,0.0,0.0,0.0,0.0,0.0,0.0,0.0,0.0,0.0,0.0,0.0,0.0,0.0,0.0,0.0,0.0,0.0,0.0,0.0,0.0,0.0,0.0,0.0,0.0,0.0,0.0,0.0,0.0,0.0,0.0,0.0,0.0,0.0,0.0,0.0,0.0,0.0,2.1435,2.1226,2.0996,2.0779,2.0338,1.9564,1.8464,1.8629,1.8522,0.0,0.0,0.0,0.0,0.0,0.0,0.0,0.0,0.0,0.0,0.0,0.0,0.0,0.0,0.0,0.0,0.0,0.0,0.0,0.0,0.0,0.0,0.0,0.0,0.0,0.0,0.0,0.0,0.0,0.0,0.0,0.0,0.0,0.0,0.0,0.0,0.0,0.0,0.0,0.0,0.0,2.4343,2.3992,2.4254,2.4471,0.0,0.0,2.5307,2.5183,2.5155,0.0,0.0,0.0,0.0,0.0,0.0,0.0,0.0,0.0,0.0,0.0,0.0,0.0,0.0,0.0,0.0,0.0,0.0,0.0,0.0,0.0,0.0,0.0,0.0,0.0,0.0,0.0,0.0,0.0,0.0,0.0,0.0,0.0,0.0,0.0,0.0,0.0,0.0,0.0,0.0,0.0,0.0,0.0,0.0,0.0,0.0,0.0,0.0,0.0,0.0,0.0,0.0,0.0,0.0,0.0,2.1025,2.1717,2.1341,2.0695,1.9924,1.9889,1.925,1.7908,1.8126,1.8219,0.0,0.0,0.0,0.0,0.0,0.0,0.0,0.0,0.0,0.0,0.0,0.0,0.0,0.0,0.0,0.0,0.0,0.0,0.0,0.0,0.0,0.0,0.0,0.0,0.0,0.0,0.0,0.0,0.0,0.0,0.0,0.0,0.0,0.0,0.0,0.0,0.0,0.0,0.0,0.0,0.0,0.0,2.4907,2.4934,0.0,0.0,0.0,2.6077,2.6133,0.0,0.0,0.0,0.0,0.0,0.0,0.0,0.0,0.0,0.0,0.0,0.0,0.0,0.0,0.0,0.0,0.0,0.0,0.0,0.0,0.0,0.0,0.0,0.0,0.0,0.0,0.0,0.0,0.0,0.0,0.0,0.0,0.0,0.0,0.0,0.0,0.0,0.0,0.0,0.0,0.0,0.0,0.0,0.0,0.0,0.0,0.0,0.0,0.0,0.0,0.0,0.0,0.0,0.0,0.0,0.0,0.0,2.1779,2.1261,2.036,1.9215,1.9488,1.8942,1.7473,1.7645,0.0,0.0,0.0,0.0,0.0,0.0,0.0,0.0,0.0,0.0,0.0,0.0,0.0,0.0,0.0,0.0,0.0,0.0,0.0,0.0,0.0,0.0,0.0,0.0,0.0,0.0,0.0,1.784,0.0,0.0,0.0,0.0,0.0,0.0,0.0,0.0,0.0,0.0,0.0,0.0,0.0,0.0,2.584,2.5578,2.5706,2.5889,0.0,0.0,2.7097,2.7304,2.6762,2.6526,0.0,0.0,0.0,0.0,0.0,0.0,0.0,0.0,0.0,0.0,0.0,0.0,0.0,0.0,0.0,0.0,0.0,0.0,0.0,0.0,0.0,0.0,0.0,0.0,0.0,0.0,0.0,0.0,0.0,0.0,0.0,0.0,0.0,0.0,0.0,0.0,0.0,0.0,0.0,0.0,0.0,0.0,0.0,0.0,0.0,0.0,0.0,0.0,0.0,0.0,0.0,0.0,0.0,0.0,0.0,2.1224,2.068,1.9928,1.9041,1.9127,1.8595,1.742,1.743,1.7471,0.0,0.0,0.0,0.0,0.0,0.0,0.0,0.0,0.0,0.0,0.0,0.0,0.0,0.0,0.0,0.0,0.0,0.0,0.0,0.0,0.0,0.0,0.0,0.0,0.0,0.0,0.0,0.0,0.0,0.0,0.0,0.0,0.0,0.0,0.0,0.0,0.0,0.0,0.0,0.0,0.0,2.6747,2.5918,2.6708,2.7351,0.0,0.0,2.8462,2.8665,2.816,2.7758,2.7377,0.0,0.0,0.0,0.0,0.0,0.0,0.0,0.0,0.0,0.0,0.0,0.0,0.0,0.0,0.0,0.0,0.0,0.0,0.0,0.0,0.0,0.0,0.0,0.0,0.0,0.0,0.0,0.0,0.0,0.0,0.0,0.0,0.0,0.0,0.0,0.0,0.0,0.0,0.0,0.0,0.0,0.0,0.0,0.0,0.0,0.0,0.0,0.0,0.0,0.0,0.0,0.0,0.0,2.0813,2.0845,2.0586,1.9957,1.8805,1.8992,1.8589,1.7476,1.7283,1.7256,0.0,0.0,0.0,0.0,0.0,0.0,0.0,0.0,0.0,0.0,0.0,0.0,0.0,0.0,0.0,0.0,0.0,0.0,0.0,0.0,0.0,0.0,0.0,0.0,0.0,0.0,0.0,0.0,1.9527,1.9952,2.0236,0.0,0.0,0.0,0.0,0.0,0.0,0.0,0.0,0.0,0.0,2.795,2.8057,2.8647,0.0,0.0,2.9363,2.9388,2.9078,2.8618,2.8,2.732,2.6864,0.0,0.0,0.0,0.0,0.0,0.0,0.0,0.0,0.0,0.0,0.0,0.0,0.0,0.0,0.0,0.0,0.0,0.0,0.0,0.0,0.0,0.0,0.0,0.0,0.0,0.0,0.0,0.0,0.0,0.0,0.0,0.0,0.0,0.0,0.0,0.0,0.0,0.0,0.0,0.0,0.0,0.0,0.0,0.0,0.0,0.0,0.0,0.0,0.0,0.0,0.0,0.0,2.097,2.0719,2.0674,2.0077,1.8818,1.8881,1.8502,1.7595,1.7139,1.7057,0.0,0.0,0.0,0.0,0.0,0.0,0.0,0.0,0.0,0.0,0.0,0.0,0.0,0.0,0.0,0.0,0.0,0.0,0.0,0.0,0.0,0.0,0.0,0.0,0.0,0.0,0.0,0.0,2.0295,2.0792,2.0861,0.0,0.0,0.0,0.0,0.0,0.0,0.0,0.0,0.0,0.0,2.8876,2.9226,2.9831,3.0241,3.0277,3.0241,2.9998,2.9523,2.9013,2.831,2.7432,0.0,0.0,0.0,0.0,0.0,0.0,0.0,0.0,0.0,0.0,0.0,0.0,0.0,0.0,0.0,0.0,0.0,0.0,0.0,0.0,0.0,0.0,0.0,0.0,0.0,0.0,0.0,0.0,0.0,0.0,1.4862,0.0,0.0,0.0,0.0,0.0,0.0,0.0,0.0,0.0,0.0,0.0,0.0,0.0,0.0,0.0,0.0,0.0,0.0,0.0,0.0,0.0,0.0,2.1627,2.1013,2.0882,2.027,1.928,1.8796,1.824,1.7668,1.7111,1.6968,1.7334,0.0,0.0,0.0,0.0,0.0,0.0,0.0,0.0,0.0,0.0,0.0,0.0,0.0,0.0,0.0,0.0,0.0,0.0,0.0,0.0,0.0,0.0,0.0,0.0,0.0,0.0,2.1342,2.1395,2.149,0.0,0.0,0.0,0.0,0.0,0.0,0.0,0.0,0.0,0.0,2.8736,2.9608,2.8949,2.9888,3.0618,3.0695,3.0558,3.0319,3.009,2.9614,2.8817,0.0,0.0,0.0,0.0,0.0,0.0,0.0,0.0,0.0,0.0,0.0,0.0,0.0,0.0,0.0,0.0,0.0,0.0,0.0,0.0,0.0,0.0,0.0,0.0,0.0,0.0,0.0,1.6308,1.6329,0.0,0.0,0.0,0.0,0.0,0.0,0.0,0.0,0.0,0.0,0.0,1.8463,1.9155,0.0,0.0,0.0,0.0,0.0,0.0,0.0,0.0,0.0,0.0,0.0,0.0,2.1738,2.1026,2.0665,1.9997,1.9008,1.8553,1.8124,1.751,1.7114,1.7043,1.7409,0.0,0.0,0.0,0.0,0.0,0.0,0.0,0.0,0.0,0.0,0.0,0.0,0.0,0.0,0.0,0.0,0.0,0.0,0.0,0.0,0.0,0.0,0.0,0.0,0.0,2.1123,0.0,0.0,0.0,0.0,0.0,0.0,0.0,0.0,0.0,0.0,0.0,2.8194,2.8641,2.9722,3.0491,3.0583,3.1237,3.1577,0.0,0.0,0.0,0.0,0.0,0.0,0.0,0.0,0.0,0.0,0.0,0.0,0.0,0.0,2.8706,2.74,2.741,2.7637,2.7734,0.0,0.0,0.0,0.0,0.0,0.0,0.0,0.0,0.0,0.0,0.0,0.0,0.0,0.0,1.7564,0.0,1.7352,0.0,0.0,0.0,0.0,0.0,0.0,0.0,0.0,1.9157,1.9587,1.9724,2.0318,2.0728,0.0,2.1062,2.1023,0.0,0.0,0.0,0.0,0.0,0.0,0.0,0.0,2.1971,2.1455,2.0938,2.0275,1.9473,1.8904,1.8291,1.7669,1.725,1.7116,1.7344,1.7769,1.8312,0.0,0.0,0.0,0.0,0.0,0.0,0.0,0.0,0.0,0.0,0.0,0.0,0.0,0.0,0.0,0.0,0.0,0.0,0.0,0.0,0.0,0.0,0.0,2.2364,0.0,0.0,0.0,0.0,0.0,0.0,0.0,0.0,0.0,2.7697,2.8426,2.9191,2.9775,3.0591,3.1089,3.1276,0.0,0.0,0.0,0.0,0.0,0.0,0.0,2.9805,2.8705,2.8395,2.8303,2.8494,2.9176,2.9699,2.9699,0.0,0.0,2.808,2.8126,2.8394,2.8712,2.9275,2.9897,3.0467,3.0799,3.1019,0.0,0.0,0.0,0.0,0.0,0.0,0.0,0.0,1.8271,1.8339,0.0,1.8237,0.0,0.0,0.0,0.0,0.0,1.8746,0.0,0.0,2.0138,2.0483,2.0422,2.1053,2.1323,2.1306,2.1823,2.2148,2.2298,2.1765,0.0,0.0,0.0,0.0,0.0,0.0,2.2459,2.2185,2.1575,2.1125,2.0642,1.9576,1.8733,1.8166,1.7567,1.7241,1.7111,1.7974,1.84,1.8205,1.9353,0.0,0.0,0.0,0.0,0.0,0.0,0.0,0.0,0.0,0.0,0.0,0.0,0.0,0.0,0.0,0.0,0.0,0.0,0.0,0.0,2.3692,0.0,0.0,0.0,0.0,0.0,0.0,0.0,0.0,0.0,0.0,2.8951,2.9792,3.0498,3.061,0.0,0.0,0.0,0.0,3.2233,3.1862,3.2071,3.1874,3.0816,3.042,3.0012,2.9202,0.0,0.0,2.916,2.9534,2.9844,2.9844,2.9894,2.9593,2.8505,2.8851,2.9162,2.8894,2.9914,3.0806,3.124,3.1942,3.2382,2.0286,0.0,0.0,0.0,0.0,1.9794,1.9887,2.0287,1.932,1.917,1.9566,1.9004,0.0,0.0,0.0,0.0,0.0,0.0,2.0764,2.0918,2.1408,2.1602,2.16,2.2127,2.2433,2.2611,2.2647,2.2928,2.329,2.2976,2.2706,2.2542,0.0,0.0,0.0,0.0,2.3047,2.248,2.1675,2.0919,2.0278,1.9603,1.8947,1.8521,1.8326,1.8347,1.8456,1.8555,1.8744,1.9034,1.9433,0.0,0.0,0.0,0.0,0.0,0.0,0.0,0.0,0.0,0.0,0.0,0.0,0.0,0.0,0.0,0.0,0.0,0.0,0.0,2.3723,2.4177,2.4777,0.0,0.0,0.0,0.0,0.0,0.0,0.0,0.0,0.0,3.0729,3.101,3.1151,0.0,0.0,3.2172,3.1927,3.2137,3.2188,3.1698,3.1758,0.0,0.0,3.0922,3.0698,3.0295,2.9797,2.9518,2.9745,2.984,3.0126,3.0695,3.078,3.0802,3.0704,3.009,3.0087,3.0804,3.1397,3.2202,3.3357,3.3781,3.4033,2.2072,2.2109,2.1573,2.1534,2.1775,2.1312,2.1436,2.1977,2.0956,2.0758,2.1226,2.0606,2.062,2.1173,2.0941,0.0,0.0,0.0,2.2081,2.2433,2.2776,2.2868,2.2768,2.2948,2.3122,2.3094,2.3036,2.3213,2.3627,2.3897,2.4007,2.3826,0.0,0.0,2.3551,2.3502,2.3218,2.2661,2.1832,2.1144,2.0675,1.9861,1.9242,1.8848,1.8765,1.8765,1.9004,1.8827,1.8968,1.9465,1.9582,1.9809,0.0,0.0,0.0,0.0,0.0,0.0,0.0,0.0,0.0,0.0,0.0,2.0534,2.0502,0.0,0.0,0.0,2.3346,2.4286,2.5497,2.5778,0.0,0.0,0.0,0.0,0.0,0.0,0.0,3.0472,3.1034,3.1495,3.179,3.1823,3.1733,3.1679,3.2084,3.2367,3.2021,0.0,3.1946,3.163,3.1651,3.1546,3.1169,3.0964,3.0712,3.0386,3.0328,3.0226,3.0413,3.0731,3.1156,3.1632,3.193,3.2115,3.234,3.1748,3.1468,3.2277,3.271,3.3441,3.4547,3.5003,3.5258,2.3617,2.39,2.2788,2.2431,2.2608,2.2464,2.2981,2.371,2.2745,2.2696,2.3086,2.2643,2.2435,2.2356,2.2114,0.0,2.2339,2.2635,2.3157,2.3759,2.3969,2.3977,2.3867,2.3673,2.3521,2.3348,2.334,2.3462,2.3759,2.4712,2.5273,2.5385,2.4625,2.4002,2.3656,2.3382,2.3098,2.2784,2.2142,2.1669,2.1456,2.0407,1.9628,1.9203,1.8944,1.8944,1.9174,1.9155,1.9292,1.9647,1.9707,1.9975,2.0468,0.0,0.0,0.0,0.0,0.0,0.0,0.0,0.0,0.0,0.0,0.0,0.0,0.0,0.0,0.0,2.5052,0.0,2.7494,2.7791,0.0,0.0,0.0,2.9515,3.0254,3.025,3.0753,3.2248,0.0,0.0,3.2195,3.2174,3.2172,3.2213,3.2243,3.2069,3.1663,3.1701,3.1674,3.1443,3.1598,3.1492,3.1009,3.0823,3.0631,3.0202,3.0639,3.1078,3.1124,3.1798,3.2418,3.2571,3.304,3.3356,3.3404,3.3401,3.3446,3.3367,3.3921,3.4554,3.5146,3.5758,3.6205,2.397,2.4117,2.4147,2.4285,2.4391,2.387,2.4029,2.445,2.3421,2.3205,2.3581,2.3485,2.374,2.4217,2.4135,2.4127,2.4053,2.3824,2.3959,2.4413,2.4258,2.4221,2.4212,2.4481,2.467,2.4716,2.4862,2.5155,2.5585,2.5777,2.5808,2.571,2.5473,2.5396,2.5378,2.4839,2.4323,2.3785,2.3317,2.2563,2.1609,2.1135,2.0732,2.0456,2.035,2.0436,2.0665,2.0347,2.0262,2.0316,2.0175,2.0201,2.0328,2.0864,0.0,0.0,0.0,0.0,0.0,0.0,0.0,0.0,0.0,2.3232,2.3057,0.0,2.513,0.0,2.6192,2.7144,2.7915,2.8048,0.0,0.0,2.9555,2.9928,3.0724,3.079,3.1036,3.1701,3.1945,3.1933,3.1738,3.1896,3.1932,3.1624,3.1859,3.1859,3.145,3.136,3.138,3.1151,3.1181,3.1246,3.1494,3.1597,3.1611,3.1402,3.1515,3.1665,3.1843,3.203,3.2429,3.3197,3.3506,3.3839,3.427,3.4463,3.451,3.4688,3.4856,3.5255,3.6152,3.6939,3.7522,2.4897,2.5091,2.5479,2.5673,2.5757,2.4877,2.4765,2.5209,2.4354,2.4115,2.4404,2.4512,2.4728,2.4954,2.4778,2.4856,2.5073,2.4619,2.4717,2.5229,2.5159,2.5159,2.5338,2.5557,2.573,2.6054,2.6133,2.6403,2.6886,2.7157,2.7264,2.729,2.7172,2.7195,2.7208,2.5694,2.459,2.3977,2.3507,2.2818,2.209,2.1929,2.165,2.138,2.1429,2.1406,2.1369,2.1202,2.1145,2.1135,2.0853,2.0771,2.0945,2.1333,2.1833,0.0,0.0,0.0,0.0,0.0,0.0,0.0,0.0,0.0,0.0,0.0,2.6622,2.7033,2.769,2.8341,2.8897,2.8961,2.929,3.015,3.0544,3.0938,3.1291,3.1568,3.1775,3.1934,3.204,3.2056,3.1892,3.1995,3.1914,3.1687,3.1893,3.1805,3.1347,3.1239,3.1313,3.1234,3.1239,3.1472,3.167,3.1843,3.1933,3.1872,3.1949,3.2183,3.2268,3.2561,3.301,3.3679,3.3932,3.4197,3.4678,3.4823,3.4823,3.4981,3.5416,3.5916,3.653,3.7332,3.8079,2.5985,2.6172,2.6481,2.6602,2.6477,2.5678,2.5535,2.5959,2.5485,2.5408,2.5398,2.5603,2.5603,2.5315,2.5109,2.5251,2.5673,2.5191,2.5418,2.6154,2.606,2.6267,2.666,2.6526,2.6704,2.721,2.712,2.7342,2.7841,2.8412,2.8764,2.8967,2.8864,2.8718,2.8555,2.6319,2.4729,2.4094,2.3391,2.293,2.2716,2.2716,2.2504,2.208,2.2188,2.2172,2.1783,2.1983,2.205,2.2039,2.1826,2.1787,2.1944,2.199,2.2394,0.0,2.3561,0.0,0.0,0.0,0.0,0.0,0.0,0.0,0.0,2.7062,2.8157,2.8786,2.9127,2.9487,3.0059,3.0146,3.0392,3.1042,3.1767,3.2114,3.2031,3.2401,3.2658,3.2595,3.2378,3.2304,3.2416,3.2305,3.2194,3.2182,3.2158,3.1973,3.1354,3.1367,3.1484,3.1484,3.1725,3.1907,3.1953,3.1926,3.2007,3.2041,3.2317,3.2581,3.2592,3.3146,3.3755,3.3953,3.4127,3.4421,3.4738,3.4726,3.4823,3.4835,3.5617,3.6372,3.6466,3.7302,3.8079,2.6078,2.6191,2.6481,2.65,2.6153,2.6247,2.6462,2.6751,2.6663,2.6814,2.6993,2.7003,2.6913,2.6624,2.6624,2.64,2.5945,2.575,2.5919,2.6377,2.6166,2.6272,2.6798,2.6731,2.702,2.7593,2.7593,2.7862,2.8458,2.8541,2.8593,2.8431,2.8422,2.8296,2.8092,0.0,0.0,0.0,2.4467,2.3778,2.3337,2.316,2.2948,2.2757,2.2878,0.0,2.3165,2.3303,2.344,2.343,2.3356,0.0,0.0,0.0,0.0,0.0,0.0,0.0,0.0,0.0,0.0,0.0,2.7791,2.8154,2.7284,2.824,2.9003,2.9265,2.9588,2.9868,2.9977,3.0567,3.1138,3.1487,3.2196,3.2784,3.295,3.326,3.3385,3.3409,3.347,3.3408,3.2934,3.2718,3.2657,3.2568,3.2437,3.2368,3.2314,3.193,3.1734,3.1757,3.216,3.234,3.234,3.2684,3.2902,3.3017,3.3051,3.312,3.312,3.3178,3.3481,3.3779,3.3965,3.4261,3.4433,3.4628,3.4823,3.4823,3.5677,3.6386,3.6404,3.7406,3.8368,2.6595,0.0,2.6902,2.6902,0.0,2.6902,2.7122,2.7189,2.6775,2.6593,2.6798,2.6798,2.6705,2.65,2.6397,2.6305,2.619,2.5971,2.6097,2.6486,2.6378,2.6593,2.7119,2.7235,2.7736,2.8468,2.8561,2.8983,2.9495,2.9484,2.9482,2.9553,2.9341,2.9098,2.8943,2.8401,2.762,2.6774,2.5861,2.5149,2.4697,2.4395,2.3965,2.3402,0.0,0.0,0.0,0.0,0.0,0.0,0.0,0.0,0.0,0.0,0.0,2.5475,2.5508,2.5718,2.6372,2.7308,2.7742,2.7765,2.8972,2.9413,2.865,2.9618,3.0203,3.0191,3.0506,3.0732,3.1069,3.1442,3.1793,3.2067,3.2635,3.317,3.3469,3.3636,3.3835,3.3761,3.3789,3.372,3.3679,3.3557,3.3573,3.3579,3.3625,3.3614,3.3556,3.2982,3.2523,3.2523,3.2695,3.2879,3.2902,3.3074,3.3292,3.3281,3.3281,3.3281,3.3281,3.3281,3.3381,3.3679,3.3878,3.4162,3.4335,3.4628,3.4907,3.5208,3.5845,3.6483,3.6735,3.7537,3.8198,2.7144,2.7328,2.7427,2.7484,2.7431,2.7531,2.7493,2.7272,0.0,0.0,0.0,2.6305,2.6305,2.6314,2.6181,2.63,2.65,2.6359,2.6463,2.6793,2.6793,2.7122,2.754,2.7781,2.8281,2.903,2.9454,2.9836,3.0297,3.037,3.0475,3.0599,3.0229,3.0049,2.9986,2.9079,2.8415,2.8017,2.7139,2.6465,2.6009,2.5647,2.5078,2.426,2.4483,2.4378,2.4,2.4154,2.4317,2.4317,2.448,2.4723,2.5088,2.537,2.5732,2.6356,2.6657,2.6965,2.7155,2.8311,2.89,2.8813,2.9749,3.0145,2.9718,3.0579,3.1102,3.0909,3.1297,3.1588,3.1982,3.2204,3.2334,3.2535,3.317,3.3632,3.3776,3.4197,3.4399,3.4352,3.4303,3.4206,3.4553,3.4394,3.4418,3.4808,3.4842,3.4923,3.4819,3.4119,3.3545,3.3556,3.3602,3.3556,3.343,3.3419,3.3384,3.3304,3.3361,3.3407,3.3419,3.3488,3.3646,3.3939,3.4123,3.4421,3.4608,3.4915,3.5196,3.5653,3.6182,3.6663,3.7108,3.7613,3.8068,2.6903,2.7197,2.7428,2.7623,2.7704,2.7939,2.7744,2.7271,2.7253,2.7261,2.7261,2.7261,2.7144,2.684,2.7204,2.728,2.7133,2.7474,2.7545,0.0,2.76,2.7826,2.8033,2.8012,2.8282,2.8937,2.9489,2.9718,2.9741,3.0398,3.0494,3.014,3.0037,2.9995,2.9995,2.9881,2.9777,2.957,2.8094,2.6941,2.6486,2.6413,2.6134,2.5637,2.5753,2.592,2.5857,2.6024,2.6221,2.6232,2.6221,2.6264,2.6317,2.6582,2.6889,2.713,2.7789,2.821,2.8455,2.9083,2.9397,2.942,3.0296,3.045,2.955,3.0399,3.0997,3.102,3.1469,3.178,3.1872,3.2456,3.2797,3.294,3.3918,3.4581,3.4604,3.5187,3.5527,3.555,3.5802,3.5707,3.5419,3.5279,3.529,3.5393,3.5416,3.5428,3.5347,3.4946,3.4624,3.459,3.459,3.4395,3.4027,3.3912,3.3763,3.3338,3.3671,3.3912,3.3912,3.4211,3.444,3.4555,3.4737,3.511,3.5353,3.564,3.593,3.6218,3.6699,3.7084,3.724,3.7661,3.7974,2.7334,2.749,2.7612,2.7713,2.7765,2.7888,2.7658,2.7169,2.7308,2.7343,2.7353,2.7558,2.754,2.7447,2.7641,2.7602,2.7508,2.7682,2.7756,2.7756,2.7756,2.7992,2.821,2.8361,2.8703,2.9268,2.9719,2.9948,3.0093,3.0384,3.0262,2.9942,2.9792,2.9879,2.9984,2.9746,2.9611,2.9591,2.8545,2.7769,2.7303,2.6827,2.6465,2.6258,2.6339,2.6431,2.6441,2.6532,2.6508,2.6256,2.6336,2.6552,2.6806,2.7009,2.7388,2.792,2.8479,2.8833,2.909,3.005,3.0502,3.0356,3.1062,3.1292,3.0721,3.1251,3.1632,3.1823,3.203,3.2271,3.2569,3.3314,3.3703,3.3703,3.4489,3.514,3.534,3.5503,3.5825,3.6102,3.6225,3.6174,3.5956,3.5921,3.5921,3.5921,3.5921,3.591,3.5921,3.5749,3.5382,3.4923,3.4796,3.4716,3.4475,3.444,3.4337,3.413,3.428,3.4429,3.444,3.4693,3.4785,3.4796,3.5005,3.5292,3.5603,3.5781,3.6081,3.6566,3.6805,3.7068,3.7367,3.7736,3.795,2.7829,2.7911,2.7911,2.7957,2.8031,2.7939,2.7728,2.7462,2.7453,2.7453,2.7481,2.7591,2.7682,2.7765,2.7866,2.7911,2.7911,2.8003,2.804,2.804,2.804,2.8164,2.8375,2.8757,2.904,2.9482,2.9829,3.0105,3.0248,3.0318,3.0269,3.0065,2.9926,3.0072,3.0294,2.9849,2.9611,2.958,2.8959,2.839,2.7924,2.7324,2.6982,2.6879,2.6982,2.7034,2.7034,2.7034,2.6858,2.6517,2.6576,2.6794,2.7139,2.7355,2.7689,2.8346,2.901,2.9634,3.0177,3.116,3.1586,3.1116,3.1614,3.1893,3.1939,3.207,3.2298,3.2523,3.2581,3.2868,3.335,3.3931,3.4345,3.4484,3.4947,3.5387,3.5769,3.5611,3.571,3.61,3.6157,3.6059,3.6168,3.6168,3.6145,3.6243,3.6266,3.6266,3.6266,3.6266,3.591,3.5416,3.5129,3.5095,3.5014,3.4969,3.49,3.4854,3.4888,3.4934,3.4992,3.5037,3.5152,3.5198,3.5386,3.562,3.5864,3.606,3.6341,3.6813,3.692,3.7038,3.7465,3.7761,3.7974,2.8003,2.8315,2.8342,2.8544,2.8792,2.848,2.8306,2.826,2.8278,2.8287,2.8205,2.7554,2.7481,2.7792,2.8168,2.8333,2.8361,2.87,2.8838,2.8819,2.8874,2.8865,2.8873,2.9188,2.9259,2.9355,2.9909,2.9971,2.9648,3.03,3.0598,3.077,3.0778,3.0847,3.1164,3.077,3.0543,3.0532,2.928,2.839,2.7986,2.8255,2.8224,2.781,2.8204,2.8421,2.838,2.8421,2.84,2.8328,2.7914,2.7738,2.7759,2.7714,2.7799,2.8389,2.9597,3.0857,3.199,3.2241,3.2121,3.1629,3.1629,3.1969,3.2398,3.2488,3.2485,3.2632,3.2948,3.3407,3.3866,3.4016,3.4383,3.4797,3.5164,3.5474,3.5577,3.5717,3.5817,3.5829,3.5742,3.5522,3.5852,3.5961,3.5961,3.6266,3.6266,3.6266,3.6266,3.6266,3.6254,3.6105,3.6105,3.5887,3.5577,3.5462,3.5324,3.5003,3.5187,3.5405,3.552,3.5784,3.6117,3.5853,3.6013,3.6195,3.6444,3.6645,3.6694,3.6896,3.7086,3.7168,3.7584,3.7785,3.7974,2.8581,2.8737,2.8746,2.8828,2.8948,2.881,2.8608,2.8407,2.8397,2.8526,2.87,2.8379,2.8333,2.8498,2.8673,2.8737,2.8737,2.8673,2.8636,2.8608,2.8379,2.8376,2.8607,2.9057,2.9306,2.9344,3.0007,3.0152,2.9882,3.0035,3.0241,3.0505,3.06,3.0801,3.109,3.0797,3.0688,3.0657,2.986,2.9332,2.9094,2.8514,2.8255,2.838,2.8783,2.9021,2.9021,2.9021,2.8887,2.8638,2.8431,2.8462,2.8721,2.8666,2.8859,2.953,3.0664,3.1635,3.2361,3.2896,3.3005,3.2514,3.2481,3.2691,3.3202,3.3059,3.2994,3.3364,3.3579,3.3912,3.4406,3.4727,3.4992,3.5244,3.5669,3.5967,3.5967,3.5825,3.5852,3.6059,3.5852,3.5742,3.607,3.6059,3.6168,3.6266,3.6266,3.6266,3.6266,3.6266,3.6266,3.6266,3.6266,3.6197,3.5979,3.5956,3.5841,3.5749,3.5818,3.5956,3.5979,3.6082,3.6266,3.6266,3.6266,3.6375,3.6654,3.6808,3.7012,3.7131,3.7251,3.7477,3.7608,3.7785,3.7974,2.8984,2.8984,2.8984,2.9048,2.9149,2.914,2.9048,2.8902,2.8893,2.9058,2.9296,2.9314,2.9314,2.9324,2.9314,2.9324,2.9278,2.9021,2.8819,2.87,2.8397,2.8321,2.8496,2.9075,2.9351,2.9408,2.9878,3.003,2.9893,2.9871,3.0065,3.059,3.0767,3.1055,3.1338,3.1179,3.105,3.1008,3.0501,3.018,3.0046,2.9208,2.8773,2.9011,2.9435,2.9632,2.9497,2.9497,2.9352,2.9011,2.9001,2.9135,2.9466,2.9497,2.9964,3.0842,3.1646,3.2405,3.2962,3.3617,3.3846,3.3508,3.3355,3.3482,3.3832,3.3686,3.3693,3.4326,3.4418,3.4613,3.4946,3.5313,3.5554,3.5715,3.5974,3.6168,3.6157,3.5852,3.5632,3.595,3.5742,3.5742,3.6059,3.6277,3.6266,3.6266,3.6266,3.6266,3.6266,3.6266,3.6266,3.6266,3.6266,3.6266,3.6266,3.622,3.6266,3.6266,3.6231,3.622,3.6266,3.6266,3.6266,3.6266,3.6266,3.6375,3.6592,3.6916,3.7024,3.7143,3.737,3.7596,3.7608,3.7785,3.7974,2.8984,2.8993,2.8993,2.9241,2.9544,2.9553,2.9764,2.9993,3.0057,3.0103,3.0112,3.013,3.014,3.0149,3.0149,3.014,3.0112,3.002,2.9782,2.9461,2.9406,2.9259,2.8948,2.9303,2.953,2.9484,2.953,2.9677,2.9804,2.9893,3.048,3.1622,3.1667,3.2041,3.2416,3.2147,3.1971,3.1857,3.1153,3.0698,3.0698,3.0605,3.0346,3.0056,3.0377,3.0398,3.0056,2.9973,2.9963,2.9942,2.9942,2.9953,2.9984,3.0015,3.0757,3.1975,3.2593,3.3251,3.4161,3.4403,3.4425,3.436,3.3945,3.3955,3.4408,3.4157,3.429,3.5264,3.5359,3.5428,3.5474,3.5566,3.5772,3.6128,3.5916,3.584,3.5852,3.5533,3.5202,3.5412,3.5423,3.5533,3.5852,3.6059,3.6266,3.6266,3.6266,3.6266,3.6266,3.6266,3.6266,3.6266,3.6266,3.6266,3.6266,3.6151,3.6174,3.6128,3.6048,3.6185,3.6243,3.6266,3.6243,3.6266,3.6266,3.6375,3.6592,3.6808,3.7024,3.7131,3.7477,3.7596,3.7702,3.7892,3.7974,2.9131,2.9379,2.9654,2.9846,2.9965,2.9975,3.0066,3.0195,3.0204,3.0351,3.0552,3.058,3.0717,3.0956,3.0956,3.0681,3.0204,2.9929,2.9709,2.9544,2.9324,2.9241,2.924,2.945,2.944,2.9459,2.945,2.945,2.9331,2.9686,3.0274,3.085,3.1556,3.2028,3.2342,3.2447,3.2478,3.2447,3.2137,3.1992,3.1961,3.1992,3.1774,3.1329,3.1174,3.105,3.0884,3.0874,3.0874,3.0874,3.0874,3.1008,3.1298,3.1588,3.21,3.2982,3.3274,3.3669,3.4379,3.4524,3.4524,3.4491,3.4076,3.4021,3.4508,3.4504,3.4696,3.5306,3.5841,3.5979,3.599,3.5785,3.5745,3.5904,3.584,3.5852,3.5742,3.5632,3.5632,3.5852,3.5852,3.595,3.6059,3.6266,3.6266,3.6266,3.6266,3.6266,3.6266,3.6266,3.6266,3.6266,3.6266,3.6266,3.6266,3.5944,3.5761,3.5669,3.5623,3.5611,3.5646,3.5818,3.583,3.6329,3.6375,3.6483,3.682,3.7143,3.7239,3.7548,3.7785,3.7785,3.7892,3.7986,3.7974,2.9406,2.9791,3.0075,3.0277,3.0387,3.0387,3.047,3.0571,3.0589,3.0736,3.0947,3.0974,3.113,3.1341,3.1377,3.1121,3.0589,3.0296,3.0085,2.9947,2.969,2.9619,2.9638,2.973,2.973,2.9592,2.9582,2.9526,2.9508,2.9752,3.0274,3.0859,3.1556,3.2028,3.2373,3.2612,3.2727,3.2727,3.2727,3.2716,3.2727,3.2727,3.2592,3.2271,3.1971,3.1661,3.1412,3.1381,3.1381,3.1391,3.1516,3.1795,3.224,3.2551,3.2955,3.3512,3.3614,3.3851,3.4412,3.4524,3.4524,3.4524,3.424,3.4252,3.4678,3.4787,3.5125,3.5529,3.6025,3.6266,3.6266,3.595,3.5852,3.595,3.5852,3.5852,3.5742,3.5742,3.584,3.6059,3.6168,3.6277,3.6266,3.6266,3.6266,3.6266,3.6266,3.6266,3.6266,3.6266,3.6266,3.6266,3.6266,3.6266,3.6185,3.591,3.5646,3.5531,3.5267,3.5187,3.5336,3.5462,3.581,3.6202,3.6495,3.6712,3.7036,3.737,3.7679,3.7868,3.7974,3.788,3.7986,3.7974,3.7974,2.9819,3.0185,3.0213,3.0479,3.0772,3.0791,3.1011,3.1258,3.1304,3.1277,3.1295,3.1341,3.1332,3.1377,3.1377,3.1341,3.1267,3.1194,3.102,3.0745,3.0708,3.0516,3.0213,3.0149,3.0094,3.0066,2.9755,2.9935,3.0342,3.0158,3.0557,3.1566,3.1672,3.2028,3.2727,3.2727,3.2727,3.2727,3.2727,3.2727,3.2727,3.2727,3.2706,3.2675,3.2633,3.2261,3.1495,3.1464,3.1505,3.1526,3.1836,3.225,3.2602,3.2727,3.2955,3.3512,3.3625,3.3963,3.4412,3.4524,3.4524,3.4524,3.4502,3.4558,3.488,3.5234,3.5454,3.5772,3.6122,3.6266,3.6266,3.6059,3.595,3.6168,3.5961,3.5852,3.5742,3.5632,3.5533,3.5852,3.6168,3.6266,3.6266,3.6266,3.6266,3.6266,3.6266,3.6266,3.6266,3.6266,3.6266,3.6266,3.6266,3.6266,3.6094,3.5875,3.568,3.5462,3.5129,3.4946,3.5324,3.5649,3.5868,3.6322,3.67,3.6808,3.6928,3.7358,3.7572,3.7761,3.7868,3.788,3.788,3.788,3.7974,3.0241,3.0635,3.091,3.1075,3.1185,3.1194,3.1277,3.1377,3.1377,3.1377,3.1377,3.1377,3.1377,3.1377,3.1377,3.1377,3.1377,3.1368,3.1304,3.1203,3.1185,3.1121,3.0965,3.0726,3.047,3.0222,3.0066,3.01,3.0232,3.0294,3.069,3.1384,3.1692,3.2143,3.2633,3.2727,3.2727,3.2727,3.2727,3.2727,3.2727,3.2727,3.2727,3.2727,3.2727,3.2582,3.2333,3.2313,3.2313,3.2282,3.2437,3.2582,3.2706,3.2965,3.3193,3.3523,3.3861,3.4086,3.4412,3.4524,3.4524,3.4524,3.4524,3.4635,3.498,3.5202,3.5533,3.5742,3.6059,3.6266,3.6266,3.6277,3.6059,3.5961,3.5852,3.5852,3.5852,3.5961,3.6059,3.6168,3.6266,3.6266,3.6266,3.6266,3.6266,3.6266,3.6266,3.6266,3.6266,3.6266,3.6266,3.6266,3.6266,3.6266,3.614,3.5979,3.5761,3.5508,3.5164,3.4992,3.5324,3.5672,3.6021,3.6372,3.6738,3.6916,3.7036,3.7251,3.7453,3.7584,3.7608,3.7714,3.7702,3.7845,3.8118,3.0516,3.102,3.1267,3.1377,3.1377,3.1377,3.1377,3.1405,3.1552,3.1607,3.1634,3.1772,3.1744,3.1634,3.1616,3.1515,3.1405,3.1663,3.1792,3.1662,3.1644,3.1644,3.1616,3.1276,3.1037,3.0644,3.0613,3.0658,3.0785,3.0971,3.1362,3.1958,3.2119,3.2503,3.2944,3.2799,3.2727,3.2841,3.2841,3.2965,3.2955,3.3069,3.3069,3.3058,3.3069,3.3079,3.3069,3.3069,3.2955,3.2727,3.2727,3.2727,3.2841,3.3079,3.342,3.3749,3.3974,3.4199,3.4412,3.4524,3.4524,3.4524,3.4524,3.4524,3.4858,3.508,3.5533,3.5632,3.6059,3.6266,3.6266,3.6266,3.6168,3.607,3.6059,3.5961,3.6059,3.6157,3.6266,3.6266,3.6266,3.6266,3.6266,3.6266,3.6266,3.6266,3.6266,3.6266,3.6266,3.6266,3.6266,3.6266,3.6266,3.6254,3.6243,3.6071,3.5853,3.5577,3.5256,3.5233,3.5393,3.5733,3.6024,3.6587,3.6916,3.7024,3.7131,3.7143,3.7251,3.7298,3.7535,3.7762,3.8024,3.8251,3.8443,3.0681,3.1341,3.1377,3.1377,3.1387,3.1423,3.146,3.1497,3.1854,3.2038,3.2102,3.234,3.2349,3.2093,3.2038,3.1854,3.1709,3.2255,3.2404,3.2162,3.2078,3.2188,3.1919,3.1854,3.168,3.1487,3.1336,3.1546,3.1655,3.1986,3.2532,3.2855,3.2987,3.3176,3.3368,3.3016,3.3142,3.3413,3.3319,3.337,3.3586,3.3523,3.3512,3.3523,3.3576,3.3607,3.3618,3.3629,3.3349,3.2851,3.2841,3.2955,3.3193,3.3193,3.3523,3.3985,3.4097,3.4311,3.4412,3.4524,3.4524,3.4524,3.4524,3.4524,3.4635,3.5091,3.5423,3.5522,3.595,3.6266,3.6266,3.6266,3.6277,3.6266,3.6266,3.6266,3.6266,3.6266,3.6266,3.6266,3.6266,3.6266,3.6266,3.6266,3.6266,3.6266,3.6266,3.6266,3.6266,3.6266,3.6266,3.6266,3.6266,3.6266,3.6254,3.622,3.6025,3.5898,3.5623,3.56,3.56,3.5883,3.607,3.6514,3.6916,3.7024,3.7071,3.701,3.7282,3.7602,3.7866,3.8132,3.8359,3.8671,3.8864,3.0919,3.1359,3.1377,3.1377,3.1433,3.1698,3.1845,3.1891,3.2267,3.2441,3.2469,3.2542,3.2579,3.245,3.2441,3.2501,3.2691,3.2916,3.3209,3.3228,3.3462,3.3081,3.2398,3.2294,3.2166,3.2138,3.2016,3.21,3.22,3.2572,3.2838,3.3115,3.3622,3.4004,3.4219,3.4338,3.4551,3.4487,3.4159,3.4,3.4072,3.3806,3.3625,3.3657,3.3955,3.4104,3.4125,3.4114,3.3944,3.342,3.3409,3.3399,3.3523,3.3749,3.3872,3.4097,3.4311,3.4423,3.4412,3.4524,3.4524,3.4524,3.4524,3.4635,3.4869,3.5202,3.5533,3.5742,3.6059,3.6266,3.6266,3.6266,3.6266,3.6266,3.6266,3.6266,3.6266,3.6266,3.6266,3.6266,3.6266,3.6266,3.6266,3.6266,3.6266,3.6266,3.6266,3.6266,3.6266,3.6266,3.6266,3.6266,3.6266,3.6266,3.6266,3.6266,3.6231,3.6208,3.6082,3.6036,3.6036,3.6156,3.6225,3.6472,3.6592,3.6592,3.6754,3.6772,3.7246,3.7903,3.8241,3.8508,3.8895,3.9184,3.9283,3.102,3.1396,3.157,3.1643,3.1689,3.2084,3.2258,3.234,3.268,3.2863,3.29,3.3055,3.301,3.2872,3.2988,3.3146,3.3301,3.3718,3.3956,3.3917,3.4284,3.3787,3.3039,3.2801,3.254,3.2422,3.2549,3.267,3.2855,3.3181,3.3643,3.4065,3.4445,3.4711,3.5058,3.4986,3.5157,3.5189,3.4964,3.4825,3.5035,3.4819,3.4712,3.4712,3.4938,3.5057,3.5067,3.5067,3.4662,3.3909,3.3625,3.3625,3.3861,3.3974,3.4086,3.4311,3.4423,3.4524,3.4524,3.4524,3.4524,3.4524,3.4524,3.4646,3.498,3.5202,3.5522,3.5742,3.6048,3.6266,3.6266,3.6266,3.6266,3.6266,3.6266,3.6266,3.6266,3.6266,3.6266,3.6266,3.6266,3.6266,3.6266,3.6266,3.6266,3.6266,3.6266,3.6266,3.6266,3.6266,3.6266,3.6266,3.6266,3.6266,3.6266,3.6266,3.6266,3.6254,3.6254,3.6266,3.6266,3.6266,3.6266,3.6375,3.6266,3.6358,3.6587,3.6874,3.7576,3.819,3.8489,3.9013,3.9379,3.9722,3.9822,3.1084,3.1478,3.1845,3.2029,3.212,3.2478,3.2661,3.2735,3.3111,3.3285,3.334,3.3651,3.3532,3.3421,3.3684,3.3778,3.3603,3.449,3.4662,3.4622,3.4731,3.4347,3.3907,3.3267,3.2899,3.2696,3.2794,3.3155,3.3475,3.3998,3.4652,3.5098,3.5196,3.5565,3.5742,3.5563,3.5564,3.5725,3.5756,3.5797,3.5881,3.5773,3.5664,3.5675,3.5838,3.5914,3.6031,3.5987,3.5418,3.3941,3.3855,3.3936,3.4129,3.4086,3.4199,3.4423,3.4524,3.4524,3.4524,3.4524,3.4524,3.4524,3.4534,3.4646,3.5091,3.5312,3.5632,3.584,3.6168,3.6266,3.6266,3.6266,3.6266,3.6266,3.6266,3.6266,3.6266,3.6266,3.6266,3.6266,3.6266,3.6266,3.6266,3.6266,3.6266,3.6266,3.6266,3.6266,3.6266,3.6266,3.6266,3.6266,3.6266,3.6266,3.6266,3.6266,3.6266,3.6266,3.6266,3.6266,3.6266,3.6266,3.6266,3.6289,3.6427,3.6622,3.6874,3.733,3.8005,3.8556,3.904,3.9521,4.0105,4.0326,4.0475,3.1497,3.1882,3.1964,3.2184,3.2505,3.29,3.3083,3.312,3.3505,3.3651,3.3697,3.3789,3.39,3.4084,3.4203,3.4458,3.4871,3.5249,3.5404,3.5597,3.5371,3.5234,3.479,3.4187,3.3651,3.3291,3.3311,3.3428,3.3806,3.4298,3.4797,3.5387,3.5928,3.6263,3.6574,3.6686,3.6948,3.6883,3.66,3.6426,3.6457,3.6205,3.6053,3.6074,3.6358,3.6522,3.6544,3.6544,3.6249,3.5609,3.507,3.4777,3.4597,3.4477,3.4466,3.4444,3.4534,3.4524,3.4524,3.4524,3.4524,3.4524,3.4758,3.4991,3.5301,3.5533,3.5852,3.6168,3.6277,3.6266,3.6266,3.6266,3.6266,3.6266,3.6266,3.6266,3.6266,3.6266,3.6266,3.6266,3.6266,3.6266,3.6266,3.6266,3.6266,3.6266,3.6266,3.6266,3.6266,3.6266,3.6266,3.6266,3.6266,3.6266,3.6266,3.6266,3.6266,3.6346,3.6369,3.6415,3.6415,3.6484,3.6564,3.661,3.6668,3.692,3.7311,3.7781,3.839,3.8989,3.9555,4.0006,4.0342,4.0679,4.0908,3.1616,3.2019,3.2203,3.2514,3.2927,3.3331,3.3496,3.3532,3.3707,3.3817,3.3817,3.3817,3.4094,3.437,3.4646,3.4921,3.5479,3.5616,3.5879,3.5947,3.5752,3.5586,3.5495,3.5024,3.4634,3.3966,3.3858,3.4023,3.4233,3.4693,3.5304,3.5798,3.6433,3.6757,3.7032,3.7275,3.7341,3.7309,3.7156,3.7014,3.6948,3.6784,3.6631,3.6642,3.6872,3.7014,3.7014,3.7014,3.6762,3.6369,3.6042,3.5692,3.5223,3.4982,3.4862,3.4829,3.4611,3.4545,3.4524,3.4524,3.4524,3.4524,3.4758,3.5091,3.5423,3.5643,3.595,3.6157,3.6266,3.6266,3.6266,3.6266,3.6266,3.6266,3.6266,3.6266,3.6266,3.6266,3.6266,3.6266,3.6266,3.6266,3.6266,3.6266,3.6266,3.6266,3.6266,3.6266,3.6266,3.6266,3.6266,3.6266,3.6266,3.6266,3.6266,3.6266,3.6266,3.6404,3.6564,3.6656,3.6736,3.684,3.6966,3.7001,3.7058,3.7529,3.793,3.8413,3.8839,3.9395,3.9803,4.0304,4.0571,4.0846,4.0949,3.1717,3.2129,3.2524,3.2936,3.3331,3.3661,3.3789,3.3798,3.3817,3.3817,3.3817,3.3817,3.4094,3.4508,3.4784,3.5196,3.5606,3.5889,3.6025,3.6006,3.5986,3.5801,3.5691,3.5638,3.5416,3.4575,3.4705,3.4752,3.5037,3.5386,3.6061,3.6689,3.6913,3.7324,3.7449,3.7494,3.7472,3.7385,3.733,3.7429,3.744,3.7407,3.7385,3.7385,3.7276,3.7298,3.7298,3.7287,3.7178,3.6828,3.6806,3.6588,3.6184,3.5638,3.5321,3.5299,3.4939,3.4731,3.4687,3.46,3.4524,3.4524,3.4869,3.5102,3.5423,3.5742,3.6059,3.6157,3.6266,3.6266,3.6266,3.6266,3.6266,3.6266,3.6266,3.6266,3.6266,3.6266,3.6266,3.6266,3.6266,3.6266,3.6266,3.6266,3.6266,3.6266,3.6266,3.6266,3.6266,3.6266,3.6266,3.6266,3.6266,3.6484,3.653,3.6599,3.6553,3.6771,3.692,3.7035,3.7184,3.746,3.7586,3.7425,3.7552,3.8011,3.8367,3.8665,3.9081,3.9592,3.9908,4.013,4.0479,4.0838,4.1069,3.2139,3.2533,3.2945,3.3349,3.3688,3.3789,3.3817,3.3817,3.3817,3.3817,3.3817,3.3817,3.4223,3.4637,3.4921,3.5333,3.5743,3.6025,3.6025,3.6025,3.6025,3.5918,3.6005,3.6331,3.6206,3.6082,3.5882,3.6017,3.627,3.6577,3.7034,3.777,3.7999,3.7973,3.7939,3.7964,3.7811,3.7614,3.7538,3.7659,3.7835,3.7769,3.7747,3.7758,3.7495,3.7495,3.7374,3.7374,3.733,3.7276,3.7276,3.7199,3.6926,3.6282,3.5932,3.5747,3.5375,3.5102,3.5081,3.4742,3.4578,3.4635,3.5024,3.5368,3.5589,3.5908,3.6363,3.6404,3.6381,3.6323,3.6266,3.6415,3.6323,3.63,3.6335,3.6323,3.6312,3.6323,3.63,3.6277,3.6266,3.6266,3.6266,3.6266,3.6266,3.6266,3.6266,3.6266,3.6266,3.6266,3.6266,3.6266,3.6266,3.6576,3.6851,3.6955,3.7023,3.7345,3.7517,3.7598,3.7804,3.816,3.824,3.808,3.8103,3.8436,3.8734,3.8952,3.909,3.9521,3.9779,4.0013,4.0363,4.0711,4.0954,3.2542,3.2936,3.3147,3.3459,3.378,3.3817,3.3817,3.3817,3.3817,3.3817,3.3817,3.3955,3.437,3.4784,3.5196,3.547,3.5889,3.6025,3.6025,3.6025,3.6025,3.6142,3.6403,3.6789,3.7102,3.7289,3.7449,3.7317,3.7221,3.7413,3.7859,3.8175,3.8449,3.857,3.8543,3.8477,3.8346,3.8128,3.8095,3.8098,3.8232,3.8044,3.7889,3.7626,3.7626,3.7626,3.7747,3.7878,3.7878,3.7747,3.7626,3.7506,3.7352,3.6981,3.6566,3.6304,3.5889,3.5605,3.5643,3.5293,3.5241,3.5564,3.5848,3.6173,3.6432,3.6881,3.7001,3.7023,3.7046,3.7058,3.7104,3.7023,3.7046,3.7001,3.684,3.6679,3.6668,3.6656,3.6553,3.6415,3.6358,3.6346,3.6266,3.6266,3.6266,3.6266,3.6266,3.6277,3.6277,3.6266,3.6266,3.6438,3.6507,3.6874,3.7207,3.7379,3.7552,3.7873,3.8091,3.8172,3.8309,3.8619,3.8768,3.8746,3.886,3.8872,3.8998,3.917,3.9262,3.9308,3.9779,4.0013,4.0235,4.0583,4.0826,3.2918,3.323,3.3312,3.3532,3.3789,3.3817,3.3817,3.3817,3.3817,3.3817,3.3817,3.4241,3.4518,3.4921,3.5343,3.5753,3.6016,3.6152,3.6152,3.6287,3.6287,3.6403,3.6799,3.7337,3.7873,3.8364,3.8719,3.8827,3.823,3.8349,3.8657,3.8849,3.9038,3.9045,3.9012,3.8969,3.8958,3.8849,3.8952,3.8847,3.8753,3.8365,3.7945,3.7637,3.7758,3.7878,3.7878,3.813,3.8029,3.7843,3.781,3.7701,3.7473,3.7352,3.7221,3.6936,3.6498,3.6279,3.6219,3.6005,3.5965,3.6312,3.6589,3.7008,3.7247,3.7394,3.7701,3.7793,3.7747,3.7689,3.7632,3.7747,3.7724,3.7655,3.7379,3.7184,3.7184,3.715,3.7046,3.6851,3.661,3.6461,3.6415,3.6495,3.6541,3.6415,3.6415,3.6369,3.6369,3.6277,3.6335,3.661,3.6851,3.7219,3.7552,3.785,3.808,3.839,3.8585,3.87,3.8826,3.901,3.9078,3.909,3.9147,3.9159,3.9285,3.9308,3.9308,3.9426,3.9767,4.0118,4.0235,4.0583,4.0954,3.3184,3.3266,3.3596,3.3771,3.3807,3.3817,3.3817,3.3817,3.3817,3.3817,3.3817,3.4232,3.4656,3.5059,3.5733,3.6132,3.6393,3.6529,3.6664,3.6944,3.6944,3.7213,3.7482,3.7893,3.8437,3.8967,3.9494,3.9593,3.9325,3.9433,3.9639,3.9866,3.9908,3.9897,3.9621,3.9588,3.9231,3.8947,3.9247,3.9388,3.9365,3.9185,3.875,3.8395,3.813,3.7998,3.8107,3.8347,3.8201,3.7775,3.773,3.7473,3.7237,3.7462,3.7588,3.7524,3.7154,3.6717,3.6993,3.6733,3.6627,3.7014,3.72,3.7303,3.7702,3.7851,3.7953,3.7793,3.785,3.7942,3.7988,3.7873,3.7827,3.7862,3.7839,3.7724,3.7701,3.7689,3.7575,3.7494,3.7311,3.6874,3.6622,3.6748,3.6828,3.6668,3.6553,3.6564,3.6686,3.6709,3.6633,3.6943,3.7345,3.7724,3.7965,3.8263,3.8516,3.8849,3.8964,3.9101,3.9147,3.9182,3.9228,3.9262,3.9308,3.9308,3.9308,3.9308,3.9308,3.9426,3.9767,4.0001,4.0118,4.0479,4.0954,3.3138,3.3569,3.3734,3.3817,3.3817,3.3817,3.3817,3.3817,3.3817,3.3955,3.4232,3.4508,3.5049,3.5714,3.6122,3.6664,3.7069,3.7069,3.7337,3.7595,3.7729,3.7863,3.8283,3.8559,3.9088,3.9494,3.9888,4.0018,4.0018,4.0007,4.0149,4.0279,4.0279,4.03,4.0177,4.0327,4.0228,4.0285,4.0304,4.0286,4.0096,3.9656,3.9239,3.8772,3.8503,3.8391,3.8466,3.8704,3.8585,3.8071,3.7841,3.7567,3.7244,3.7322,3.7602,3.7736,3.7699,3.7688,3.7751,3.7562,3.7589,3.7774,3.8077,3.8251,3.8435,3.8492,3.8596,3.8654,3.8654,3.8619,3.8608,3.8642,3.8642,3.8585,3.8344,3.8263,3.8229,3.8217,3.816,3.8091,3.7988,3.7722,3.7411,3.748,3.7549,3.7365,3.743,3.7599,3.7623,3.7669,3.758,3.7437,3.785,3.8275,3.8481,3.87,3.8872,3.9113,3.9124,3.9228,3.9262,3.9297,3.9308,3.9308,3.9308,3.9308,3.9308,3.9308,3.9308,3.9544,3.9661,4.0001,4.0235,4.0711,4.1069,3.2955,3.3514,3.3624,3.3661,3.3679,3.3771,3.3817,3.3817,3.3955,3.4094,3.4508,3.4912,3.5724,3.6519,3.6789,3.7213,3.776,3.7883,3.8006,3.8262,3.8395,3.8671,3.8946,3.922,3.9483,3.9888,4.0268,4.0398,4.0398,4.0528,4.0528,4.0398,4.0669,4.0647,4.0895,4.0862,4.0935,4.1287,4.1271,4.1045,4.0785,4.0354,3.9778,3.9295,3.91,3.8948,3.8823,3.906,3.8832,3.8444,3.8214,3.7938,3.7398,3.7695,3.7841,3.801,3.814,3.8439,3.8337,3.8263,3.8483,3.868,3.8821,3.8872,3.9136,3.9308,3.9297,3.917,3.9193,3.9228,3.9297,3.9251,3.917,3.9044,3.8941,3.8849,3.8757,3.8816,3.892,3.8909,3.8943,3.8885,3.863,3.8549,3.8308,3.8089,3.819,3.8498,3.8498,3.8486,3.8318,3.8102,3.8367,3.8734,3.8872,3.9067,3.9262,3.9308,3.9308,3.9308,3.9308,3.9308,3.9308,3.9308,3.9308,3.9308,3.9308,3.9308,3.9308,3.9414,3.965,4.0001,4.0351,4.0826,4.1184,3.2625,3.2707,3.3101,3.3266,3.3321,3.3661,3.3817,3.3955,3.4241,3.4508,3.4784,3.547,3.6413,3.6944,3.7482,3.776,3.8181,3.8426,3.8814,3.9078,3.922,3.9341,3.9483,3.9757,3.9888,4.0279,4.0528,4.0647,4.0777,4.1046,4.1046,4.0777,4.0917,4.1175,4.1304,4.1293,4.1433,4.1678,4.1681,4.173,4.1491,4.1114,4.0502,3.981,3.9549,3.9322,3.8857,3.919,3.909,3.8503,3.8457,3.8239,3.7848,3.8111,3.8202,3.8316,3.868,3.89,3.8718,3.8703,3.8873,3.9144,3.9239,3.9182,3.9297,3.9308,3.9308,3.9308,3.9308,3.9308,3.9308,3.9308,3.9308,3.9262,3.917,3.9253,3.9207,3.9476,3.9488,3.9674,3.9709,3.9546,3.9639,3.9464,3.9162,3.8814,3.9078,3.9388,3.9133,3.911,3.9022,3.892,3.9023,3.9147,3.9205,3.9308,3.9308,3.9308,3.9308,3.9308,3.9308,3.9308,3.9308,3.9308,3.9308,3.9308,3.9308,3.9308,3.9308,3.9414,3.9638,4.0106,4.0467,4.0942,4.1069,3.1845,3.1891,3.2559,3.2896,3.3266,3.3927,3.4232,3.4232,3.4793,3.5323,3.5714,3.6539,3.7223,3.776,3.815,3.8549,3.9099,3.9231,3.9483,3.9746,3.9877,4.0007,4.0018,4.0149,4.0268,4.0528,4.0777,4.0906,4.1175,4.1433,4.155,4.141,4.1421,4.1421,4.155,4.1817,4.1945,4.2073,4.2073,4.2063,4.1948,4.1582,4.1273,4.0953,4.0106,3.9911,3.9625,3.9327,3.9055,3.8734,3.8631,3.8366,3.8228,3.8493,3.8469,3.8398,3.9055,3.9124,3.9033,3.9041,3.9178,3.919,3.9308,3.9308,3.9308,3.9308,3.9308,3.9308,3.9308,3.9308,3.9308,3.9308,3.9308,3.9308,3.9308,3.9426,3.9544,3.979,3.9908,3.9978,4.0095,4.0024,4.0164,4.0292,3.9976,3.9673,3.9985,4.0124,3.9947,3.9612,3.9499,3.9337,3.9382,3.9262,3.9308,3.9308,3.9308,3.9308,3.9308,3.9308,3.9308,3.9308,3.9308,3.9308,3.9308,3.9308,3.9308,3.9308,3.9308,3.9414,3.9884,4.0339,4.0699,4.0942,4.1069,3.1644,3.1819,3.2339,3.2719,3.3151,3.3839,3.4355,3.4576,3.5132,3.6044,3.7069,3.7626,3.8037,3.8437,3.8824,3.922,3.9625,3.9757,4.0018,4.0149,4.0279,4.0279,4.0279,4.0398,4.0528,4.0777,4.1024,4.1293,4.1433,4.1806,4.1934,4.1806,4.1689,4.1817,4.1945,4.22,4.2327,4.2327,4.2327,4.2327,4.2258,4.2029,4.1673,4.1512,4.0881,4.0364,4.0077,3.9721,3.9354,3.9021,3.8803,3.8631,3.8527,3.8527,3.8677,3.8803,3.8975,3.9239,3.9147,3.9239,3.9297,3.9308,3.9308,3.9308,3.9308,3.932,3.9308,3.9297,3.9426,3.9449,3.9461,3.9544,3.9661,3.9767,3.965,3.9767,3.9896,4.0141,4.0258,4.0363,4.0479,4.0583,4.0595,4.0711,4.0639,4.037,4.0521,4.0671,4.0521,4.0231,3.9942,3.9768,3.9486,3.9414,3.9308,3.9308,3.9308,3.9308,3.9308,3.9308,3.9308,3.9308,3.9308,3.9308,3.9308,3.9308,3.932,3.9437,3.9437,3.9437,4.0013,4.0467,4.0826,4.1069,4.1184,3.2422,3.2478,3.2838,3.2777,3.2777,3.3275,3.408,3.4806,3.541,3.645,3.7873,3.8181,3.857,3.9088,3.9483,3.9757,3.9888,4.0149,4.0279,4.0279,4.0279,4.0279,4.0398,4.0658,4.0777,4.0895,4.1282,4.1667,4.1806,4.2073,4.22,4.22,4.2073,4.2212,4.2212,4.2339,4.2327,4.2327,4.2327,4.2327,4.2316,4.2247,4.1994,4.173,4.1432,4.0927,4.033,4.002,3.9641,3.9239,3.917,3.909,3.909,3.9101,3.9033,3.8746,3.9078,3.9078,3.8746,3.909,3.9262,3.9308,3.9308,3.9342,3.9342,3.9354,3.948,3.9748,3.9798,3.9847,4.0001,4.0106,4.0176,4.0223,4.013,4.0177,4.0317,4.0374,4.0491,4.0607,4.0954,4.1184,4.1184,4.1184,4.1069,4.1033,4.1172,4.1069,4.0954,4.0595,4.013,3.9896,3.9544,3.9426,3.9308,3.9308,3.9308,3.9308,3.9308,3.9308,3.9308,3.9308,3.9308,3.9308,3.9308,3.9308,3.9437,3.9567,3.979,3.9908,4.0258,4.0723,4.1069,4.1184,4.1184,3.2549,3.2813,3.3075,3.3378,3.3485,3.4023,3.4663,3.5215,3.602,3.7187,3.8353,3.8692,3.9088,3.9483,3.9888,4.0018,4.0149,4.0149,4.0279,4.0279,4.0279,4.0528,4.0658,4.0777,4.1024,4.141,4.1795,4.1934,4.2084,4.2212,4.2339,4.2327,4.2327,4.2327,4.2339,4.2327,4.2327,4.2327,4.2327,4.2327,4.2327,4.2316,4.2235,4.2029,4.1765,4.1271,4.0594,4.0341,3.9882,3.9434,3.9354,3.9308,3.9308,3.9308,3.9228,3.9055,3.9285,3.9239,3.9101,3.9262,3.9297,3.9308,3.9354,3.9492,3.9721,3.979,4.0082,4.0398,4.053,4.0805,4.1173,4.1161,4.1234,4.0858,4.0728,4.0646,4.068,4.0678,4.0735,4.0954,4.1184,4.1184,4.1184,4.1184,4.1196,4.0954,4.0954,4.0838,4.0723,4.0374,3.9908,3.979,3.9544,3.9426,3.9308,3.9308,3.9308,3.9308,3.9308,3.9308,3.9308,3.9308,3.9308,3.9308,3.9308,3.9308,3.9673,4.0036,4.0258,4.0491,4.0794,4.0874,4.1069,4.1184,4.1184,3.3165,3.3428,3.367,3.3922,3.4263,3.4536,3.4844,3.544,3.6373,3.7415,3.8178,3.8608,3.9096,3.9411,3.9942,4.0279,4.0279,4.0279,4.0279,4.0279,4.0398,4.0658,4.0777,4.1024,4.141,4.1806,4.1945,4.2084,4.2212,4.2339,4.2327,4.2327,4.2327,4.2327,4.2327,4.2327,4.2327,4.2327,4.2327,4.2327,4.2327,4.2327,4.2327,4.2224,4.1994,4.1616,4.1099,4.0582,4.0077,3.9664,3.9411,3.9331,3.9308,3.9308,3.9308,3.9308,3.9308,3.9297,3.9285,3.9285,3.9308,3.9308,3.9434,3.9802,4.0192,4.0307,4.0699,4.1005,4.1411,4.1653,4.1872,4.1895,4.197,4.1579,4.133,4.1234,4.1103,4.1113,4.105,4.1256,4.1293,4.1268,4.1268,4.1196,4.1081,4.0838,4.0607,4.0631,4.0526,4.0141,3.9802,3.9673,3.9544,3.9426,3.9308,3.9308,3.9308,3.9308,3.9308,3.9308,3.9308,3.9308,3.9308,3.9449,3.959,3.9719,4.0036,4.0386,4.0702,4.1005,4.1321,4.1365,4.122,4.1432,4.1668,3.4047,3.4413,3.4423,3.4548,3.4807,3.4588,3.4936,3.5605,3.6387,3.685,3.7349,3.7758,3.8357,3.9045,3.9519,3.9844,4.0149,4.0279,4.0279,4.0398,4.0517,4.0777,4.1035,4.1421,4.1678,4.1934,4.2073,4.22,4.2327,4.2327,4.2327,4.2327,4.2327,4.2327,4.2327,4.2327,4.2327,4.2327,4.2201,4.2178,4.2144,4.2109,4.2155,4.2086,4.1994,4.1729,4.1179,4.0755,4.0341,3.9928,3.9549,3.9388,3.9308,3.9308,3.9308,3.9308,3.9308,3.9308,3.9308,3.9308,3.94,3.948,3.9767,4.0261,4.0479,4.0647,4.0837,4.1317,4.1665,4.1919,4.2292,4.2377,4.258,4.228,4.2016,4.1966,4.1846,4.1677,4.1461,4.1425,4.1485,4.1509,4.1569,4.1509,4.1489,4.1315,4.1093,4.0693,4.0528,3.9884,3.9661,3.9673,3.9544,3.9308,3.932,3.9331,3.9308,3.9308,3.9308,3.9297,3.9308,3.9472,3.9659,3.9812,3.993,4.0247,4.087,4.1057,4.1113,4.1441,4.1854,4.1837,4.174,4.2299,4.2586,3.4163,3.4787,3.4797,3.4922,3.5119,3.4831,3.4954,3.5459,3.548,3.5904,3.6824,3.695,3.7593,3.8648,3.9078,3.9455,3.9899,4.0138,4.0279,4.0398,4.0647,4.0906,4.1293,4.155,4.1934,4.2073,4.22,4.2327,4.2327,4.2327,4.2327,4.2327,4.2258,4.2281,4.2258,4.2316,4.2258,4.2178,4.196,4.1994,4.1946,4.1897,4.1816,4.1758,4.1769,4.1368,4.0854,4.0479,4.0066,3.9618,3.9423,3.9308,3.9308,3.9308,3.9308,3.9308,3.9308,3.9308,3.9308,3.9308,3.9411,3.9652,3.9916,4.0031,4.0359,4.0606,4.0975,4.1427,4.1907,4.2172,4.24,4.2628,4.2639,4.2411,4.2182,4.2062,4.1954,4.1882,4.1713,4.1978,4.2026,4.2026,4.205,4.2134,4.21,4.1923,4.1615,4.1141,4.0634,4.0106,3.9544,3.9555,3.9449,3.9331,3.9354,3.9377,3.9342,3.9308,3.9365,3.9518,3.9648,3.9823,4.0141,4.0422,4.0881,4.1306,4.1756,4.19,4.1798,4.2224,4.2511,4.2433,4.2348,4.2861,4.3223,3.4548,3.5046,3.5036,3.5077,3.5066,3.4486,3.4383,3.4559,3.4507,3.496,3.556,3.5946,3.6656,3.7551,3.8349,3.9088,3.9466,4.0073,4.0279,4.0409,4.0777,4.1035,4.1421,4.1817,4.2073,4.22,4.2327,4.2327,4.2316,4.2304,4.2293,4.1994,4.2029,4.1903,4.1753,4.1752,4.1911,4.1911,4.1842,4.1839,4.1707,4.1574,4.1602,4.1497,4.1497,4.1033,4.0549,4.0421,3.9979,3.9561,3.9503,3.9308,3.9308,3.9308,3.9308,3.9308,3.9308,3.9308,3.9308,3.9308,3.9492,3.9783,3.9898,3.9994,4.0214,4.0542,4.1217,4.186,4.2136,4.2412,4.264,4.2723,4.2531,4.2351,4.2218,4.2098,4.2062,4.205,4.2279,4.2591,4.2675,4.2663,4.2699,4.2747,4.2616,4.2269,4.1875,4.1555,4.101,4.0422,3.9812,3.9449,3.9472,3.9365,3.94,3.948,3.9645,3.9702,3.9925,4.0055,4.0199,4.0387,4.0681,4.1259,4.1995,4.2305,4.2365,4.2447,4.2381,4.2786,4.3008,4.2892,4.2971,4.3407,4.3733,3.4736,3.5345,3.5335,3.5045,3.461,3.3803,3.3451,3.341,3.3793,3.3989,3.4217,3.4879,3.5519,3.6215,3.7318,3.8305,3.8894,3.9465,3.9995,4.0214,4.0906,4.1293,4.1433,4.1945,4.22,4.2327,4.2304,4.227,4.2235,4.2144,4.1914,4.1535,4.1512,4.1374,4.1234,4.1311,4.1533,4.1527,4.1679,4.1813,4.1677,4.1692,4.1692,4.161,4.1586,4.1407,4.1073,4.0755,4.0356,3.9933,3.9748,3.9449,3.9308,3.9426,3.9426,3.9426,3.9426,3.9544,3.9532,3.9532,3.9532,3.959,3.9673,3.9872,4.0257,4.0632,4.1187,4.1519,4.1733,4.197,4.2194,4.2194,4.2074,4.1966,4.187,4.1954,4.2122,4.2194,4.2435,4.2699,4.2747,4.2747,4.2747,4.2747,4.276,4.252,4.2341,4.1899,4.1448,4.0834,4.0199,3.9613,3.9449,3.9495,3.9526,3.9737,4.0006,4.0229,4.036,4.0397,4.0528,4.0893,4.1389,4.1828,4.2376,4.2663,4.2806,4.285,4.2939,4.2983,4.3284,4.3367,4.3594,4.3855,4.412,3.4299,3.4879,3.4538,3.432,3.4165,3.3617,3.3368,3.3348,3.312,3.3254,3.3555,3.3824,3.4419,3.5216,3.6093,3.7004,3.7727,3.8705,3.9362,3.9979,4.0735,4.1091,4.1377,4.1786,4.2109,4.2327,4.2281,4.2052,4.1822,4.1696,4.1512,4.1053,4.0996,4.0969,4.1028,4.1138,4.1263,4.1365,4.1555,4.1673,4.1615,4.12,4.0986,4.1034,4.1046,4.0858,4.0658,4.0446,4.0094,3.9906,3.9754,3.9567,3.9308,3.9544,3.9673,3.9684,3.9767,3.9884,3.9884,3.9884,3.9873,3.9873,4.0118,4.0246,4.0469,4.0763,4.0998,4.1151,4.1408,4.1537,4.1653,4.1653,4.1653,4.1581,4.1545,4.1834,4.2146,4.2375,4.2579,4.2663,4.2735,4.2747,4.2747,4.276,4.276,4.2772,4.264,4.2353,4.1757,4.1153,4.0634,4.0047,3.9767,3.9696,3.9798,3.9948,4.0301,4.035,4.0399,4.0564,4.0868,4.1389,4.2018,4.2136,4.2493,4.2889,4.3296,4.3317,4.3406,4.3493,4.335,4.3559,4.3749,4.4102,4.4367,3.4268,3.4672,3.4041,3.3762,3.3679,3.3285,3.3089,3.3037,3.284,3.2861,3.311,3.3317,3.3679,3.4399,3.5258,3.5827,3.6641,3.7718,3.8483,3.9407,3.9963,4.0438,4.0952,4.1433,4.149,4.165,4.1639,4.1455,4.1271,4.1202,4.1007,4.0681,4.071,4.0739,4.084,4.0974,4.1141,4.1175,4.1303,4.142,4.142,4.1133,4.0954,4.0954,4.0838,4.0711,4.0479,4.0351,4.0246,4.0025,4.0013,3.9896,3.9767,3.9884,4.0013,4.0013,4.0118,4.0223,4.0223,4.0223,4.0223,4.0223,4.0363,4.0503,4.1032,4.1175,4.1109,4.1365,4.1261,4.1389,4.1377,4.1389,4.1389,4.1341,4.1377,4.1557,4.2014,4.2411,4.2579,4.2711,4.2747,4.2747,4.2879,4.2998,4.2891,4.2879,4.2879,4.2614,4.204,4.1624,4.1127,4.0692,4.0386,4.0294,4.0374,4.055,4.0669,4.0658,4.0587,4.1091,4.1573,4.2086,4.2623,4.2729,4.2968,4.3427,4.3774,4.3794,4.3838,4.3937,4.373,4.3649,4.3991,4.4231,4.4662,3.4247,3.4455,3.3658,3.3296,3.3244,3.2903,3.2747,3.2747,3.2727,3.2727,3.2799,3.313,3.3275,3.383,3.4633,3.5198,3.5896,3.6763,3.7735,3.8451,3.9042,3.9736,4.0378,4.0694,4.093,4.1019,4.1007,4.0881,4.0732,4.0808,4.0733,4.0545,4.0467,4.0469,4.0376,4.0503,4.0794,4.0946,4.1062,4.1244,4.1208,4.1184,4.1184,4.1184,4.1184,4.1081,4.0838,4.0723,4.0595,4.0351,4.0235,4.0118,4.0118,4.0235,4.0246,4.0363,4.0467,4.0467,4.0467,4.0467,4.0467,4.0467,4.0631,4.1077,4.1504,4.1633,4.1564,4.1619,4.1632,4.1347,4.1347,4.1347,4.1347,4.1335,4.1396,4.1432,4.1938,4.2372,4.2493,4.2638,4.2626,4.2744,4.2768,4.2911,4.2923,4.2817,4.272,4.2478,4.2212,4.1958,4.1577,4.1213,4.0966,4.0972,4.0893,4.0999,4.0893,4.1196,4.1309,4.1782,4.2195,4.236,4.2683,4.3167,4.3468,4.372,4.3998,4.4222,4.4264,4.4282,4.3974,4.3726,4.3979,4.4358,4.4852,3.3493,3.3596,3.3068,3.2861,3.284,3.2768,3.2727,3.2727,3.2727,3.2727,3.2747,3.2778,3.2861,3.2871,3.3538,3.4221,3.4869,3.5819,3.6618,3.735,3.8428,3.9163,3.9756,4.0293,4.0644,4.0732,4.0617,4.0548,4.0393,4.0421,4.0345,4.0023,4.0294,4.0352,4.0678,4.0723,4.0826,4.0954,4.1069,4.1184,4.1184,4.1184,4.1184,4.1184,4.1184,4.1184,4.1069,4.1081,4.0954,4.0595,4.0351,4.0351,4.0351,4.0479,4.0595,4.0595,4.0711,4.0826,4.0826,4.0826,4.0826,4.097,4.1357,4.181,4.2228,4.2705,4.2769,4.3002,4.2727,4.2176,4.2079,4.2066,4.2066,4.2005,4.2017,4.1969,4.2176,4.2262,4.2311,4.2348,4.2348,4.2348,4.236,4.2487,4.2614,4.2512,4.2524,4.2328,4.2364,4.2115,4.203,4.183,4.1631,4.116,4.0934,4.1145,4.1341,4.1583,4.1837,4.2037,4.2164,4.2168,4.2528,4.3313,4.3486,4.3676,4.3979,4.4606,4.4436,4.4377,4.3976,4.3802,4.4093,4.4687,4.5374]},{"header":{"parameterUnit":"m.s-1","parameterCategory":1,"la1":31.0,"la2":29.5877,"lo1":-88.7671,"lo2":-86.6584,"dy":0.0162,"dx":0.0185,"nx":115,"ny":88,"refTime":"2023-10-21T06:00:00:Z","depth":0,"parameterNumber":3,"parameterNumberName":"V-component_of_WINDS"},"data":[0.0,0.0,0.0,0.0,0.0,0.0,0.0,0.0,0.0,0.0,0.0,0.0,0.0,0.0,0.0,0.0,0.0,0.0,0.0,0.0,0.0,0.0,0.0,0.0,0.0,0.0,0.0,0.0,0.0,0.0,0.0,0.0,0.0,0.0,0.0,0.0,0.0,0.0,0.0,0.0,0.0,0.0,0.0,0.0,0.0,0.0,0.0,0.0,0.0,0.0,0.0,0.0,0.0,0.0,0.0,0.0,0.0,0.0,0.0,0.0,0.0,0.0,0.0,0.0,0.0,0.0,0.0,0.0,0.0,0.0,0.0,0.0,0.0,0.0,0.0,0.0,0.0,0.0,0.0,0.0,0.0,0.0,0.0,0.0,0.0,0.0,0.0,0.0,0.0,0.0,0.0,0.0,0.0,0.0,0.0,0.0,0.0,0.0,0.0,0.0,0.0,0.0,0.0,0.0,0.0,0.0,0.0,0.0,0.0,0.0,0.0,0.0,0.0,0.0,0.0,0.0,0.0,0.0,0.0,0.0,0.0,0.0,0.0,0.0,0.0,0.0,0.0,0.0,0.0,0.0,0.0,0.0,0.0,0.0,0.0,0.0,0.0,0.0,0.0,0.0,0.0,0.0,0.0,0.0,0.0,0.0,0.0,0.0,0.0,0.0,0.0,0.0,0.0,0.0,0.0,0.0,0.0,0.0,0.0,0.0,0.0,0.0,0.0,0.0,0.0,0.0,0.0,0.0,0.0,0.0,0.0,0.0,0.0,0.0,0.0,0.0,0.0,0.0,0.0,0.0,0.0,0.0,0.0,0.0,0.0,0.0,0.0,0.0,0.0,0.0,0.0,0.0,0.0,0.0,0.0,0.0,0.0,0.0,0.0,0.0,0.0,0.0,0.0,0.0,0.0,0.0,0.0,0.0,0.0,0.0,0.0,0.0,0.0,0.0,0.0,0.0,0.0,0.0,0.0,0.0,0.0,0.0,0.0,0.0,0.0,0.0,0.0,0.0,0.0,0.0,0.0,0.0,0.0,0.0,0.0,0.0,0.0,0.0,0.0,0.0,0.0,0.0,0.0,0.0,0.0,0.0,0.0,0.0,0.0,0.0,0.0,0.0,0.0,0.0,0.0,0.0,0.0,0.0,0.0,0.0,0.0,0.0,0.0,0.0,0.0,0.0,0.0,0.0,0.0,0.0,0.0,0.0,0.0,0.0,0.0,0.0,0.0,0.0,0.0,0.0,0.0,0.0,0.0,0.0,0.0,0.0,0.0,0.0,0.0,0.0,0.0,0.0,0.0,0.0,0.0,0.0,0.0,0.0,0.0,0.0,0.0,0.0,0.0,0.0,0.0,0.0,0.0,0.0,0.0,0.0,0.0,0.0,0.0,0.0,0.0,0.0,0.0,0.0,0.0,0.0,0.0,0.0,0.0,0.0,0.0,0.0,0.0,0.0,0.0,0.0,0.0,0.0,0.0,0.0,0.0,0.0,0.0,0.0,0.0,0.0,0.0,0.0,0.0,0.0,0.0,0.0,0.0,0.0,0.0,0.0,0.0,0.0,0.0,0.0,0.0,0.0,0.0,0.0,0.0,0.0,0.0,0.0,0.0,0.0,0.0,0.0,0.0,0.0,0.0,0.0,0.0,0.0,0.0,0.0,0.0,0.0,0.0,0.0,0.0,0.0,0.0,0.0,0.0,0.0,0.0,0.0,0.0,0.0,0.0,0.0,0.0,0.0,0.0,0.0,0.0,0.0,0.0,0.0,0.0,0.0,0.0,0.0,0.0,0.0,0.0,0.0,0.0,0.0,0.0,0.0,0.0,0.0,0.0,0.0,0.0,0.0,0.0,0.0,0.0,0.0,0.0,0.0,0.0,0.0,0.0,0.0,0.0,0.0,0.0,0.0,0.0,0.0,0.0,0.0,0.0,0.0,0.0,0.0,0.0,0.0,0.0,0.0,0.0,0.0,0.0,0.0,0.0,0.0,0.0,0.0,0.0,0.0,0.0,0.0,0.0,0.0,0.0,0.0,0.0,0.0,0.0,0.0,0.0,0.0,0.0,0.0,0.0,0.0,0.0,0.0,0.0,0.0,0.0,0.0,0.0,0.0,0.0,0.0,0.0,0.0,0.0,0.0,0.0,0.0,0.0,0.0,0.0,0.0,0.0,0.0,0.0,0.0,0.0,0.0,0.0,0.0,0.0,0.0,0.0,0.0,0.0,0.0,0.0,0.0,0.0,0.0,0.0,0.0,0.0,0.0,0.0,0.0,0.0,0.0,0.0,0.0,0.0,0.0,0.0,0.0,0.0,0.0,0.0,0.0,0.0,0.0,0.0,0.0,0.0,0.0,0.0,0.0,0.0,0.0,0.0,0.0,0.0,0.0,0.0,0.0,0.0,0.0,0.0,0.0,0.0,0.0,0.0,0.0,0.0,0.0,0.0,0.0,0.0,0.0,0.0,0.0,0.0,0.0,0.0,0.0,0.0,0.0,0.0,0.0,0.0,0.0,0.0,0.0,0.0,0.0,0.0,0.0,0.0,0.0,0.0,0.0,0.0,0.0,0.0,0.0,0.0,0.0,0.0,0.0,0.0,0.0,0.0,0.0,0.0,0.0,0.0,0.0,0.0,0.0,0.0,0.0,0.0,0.0,0.0,0.0,0.0,0.0,0.0,0.0,0.0,0.0,0.0,0.0,0.0,0.0,0.0,0.0,0.0,0.0,0.0,0.0,0.0,0.0,0.0,0.0,0.0,0.0,0.0,0.0,0.0,0.0,0.0,0.0,0.0,0.0,0.0,0.0,0.0,0.0,0.0,0.0,0.0,0.0,0.0,0.0,0.0,0.0,0.0,0.0,0.0,0.0,0.0,0.0,0.0,0.0,0.0,0.0,0.0,0.0,0.0,0.0,0.0,0.0,0.0,0.0,0.0,0.0,0.0,0.0,0.0,0.0,0.0,0.0,0.0,0.0,0.0,0.0,0.0,0.0,0.0,0.0,0.0,0.0,0.0,0.0,0.0,0.0,0.0,0.0,0.0,0.0,0.0,0.0,0.0,0.0,0.0,0.0,0.0,0.0,0.0,0.0,0.0,0.0,0.0,0.0,0.0,0.0,0.0,0.0,0.0,0.0,0.0,0.0,0.0,0.0,0.0,0.0,0.0,0.0,0.0,0.0,0.0,0.0,0.0,0.0,0.0,0.0,0.0,0.0,0.0,0.0,0.0,0.0,0.0,0.0,0.0,0.0,0.0,0.0,0.0,0.0,0.0,0.0,0.0,0.0,0.0,0.0,0.0,0.0,0.0,0.0,0.0,0.0,0.0,0.0,0.0,0.0,0.0,0.0,0.0,0.0,0.0,0.0,0.0,0.0,0.0,0.0,0.0,0.0,0.0,0.0,0.0,0.0,0.0,0.0,0.0,0.0,0.0,0.0,0.0,0.0,0.0,0.0,0.0,0.0,0.0,0.0,0.0,0.0,0.0,0.0,0.0,0.0,0.0,0.0,0.0,0.0,0.0,0.0,0.0,0.0,0.0,0.0,0.0,0.0,0.0,0.0,0.0,0.0,0.0,0.0,0.0,0.0,0.0,0.0,0.0,0.0,0.0,0.0,0.0,0.0,0.0,0.0,0.0,0.0,0.0,0.0,0.0,0.0,0.0,0.0,0.0,0.0,0.0,0.0,0.0,0.0,0.0,0.0,0.0,0.0,0.0,0.0,0.0,0.0,0.0,0.0,0.0,0.0,0.0,0.0,0.0,0.0,0.0,0.0,0.0,0.0,0.0,0.0,0.0,0.0,0.0,0.0,0.0,0.0,0.0,0.0,0.0,0.0,0.0,0.0,0.0,0.0,0.0,0.0,0.0,0.0,0.0,0.0,0.0,0.0,0.0,0.0,0.0,0.0,0.0,0.0,0.0,0.0,0.0,0.0,0.0,0.0,0.0,0.0,0.0,0.0,0.0,0.0,0.0,0.0,0.0,0.0,0.0,0.0,0.0,0.0,0.0,0.0,0.0,0.0,0.0,0.0,0.0,0.0,0.0,0.0,0.0,0.0,0.0,0.0,0.0,0.0,0.0,0.0,0.0,0.0,0.0,0.0,0.0,0.0,0.0,0.0,0.0,0.0,0.0,0.0,0.0,0.0,0.0,0.0,0.0,0.0,0.0,0.0,0.0,0.0,0.0,0.0,0.0,0.0,0.0,0.0,0.0,0.0,0.0,0.0,0.0,0.0,0.0,0.0,0.0,0.0,0.0,0.0,0.0,0.0,0.0,0.0,0.0,0.0,1.2525,0.0,0.0,0.0,0.0,0.0,0.0,0.0,0.0,0.0,0.0,0.0,0.0,0.0,0.0,0.0,0.0,0.0,0.0,0.0,0.0,0.0,0.0,0.0,0.0,0.0,0.0,0.0,0.0,0.0,0.0,0.0,0.0,0.0,0.0,0.0,0.0,0.0,0.0,0.0,0.0,0.0,0.0,0.0,0.0,0.0,0.0,0.0,0.0,0.0,0.0,0.0,0.0,0.0,0.0,0.0,0.0,0.0,0.0,0.0,0.0,0.0,0.0,0.0,0.0,0.0,0.0,0.0,0.0,0.0,0.0,0.0,0.0,0.0,0.0,0.0,0.0,0.0,0.0,0.0,0.0,0.0,0.0,0.0,0.0,0.0,0.0,0.0,0.0,0.0,0.0,0.0,0.0,0.0,0.0,0.0,0.0,0.0,0.0,0.0,0.0,0.0,0.0,0.0,0.0,0.0,0.0,0.0,0.0,0.0,0.0,1.0128,1.0731,1.1364,1.2087,1.2836,0.0,0.0,0.0,0.0,0.0,0.0,0.0,0.0,0.0,0.0,0.0,0.0,0.0,0.0,0.0,0.0,0.0,0.0,0.0,0.0,0.0,0.0,0.0,0.0,0.0,0.0,0.0,0.0,0.0,0.0,0.0,0.0,0.0,0.0,0.0,0.0,0.0,0.0,0.0,0.0,0.0,0.0,0.0,0.0,0.0,0.0,0.0,0.0,0.0,0.0,0.0,0.0,0.0,0.0,0.0,0.0,0.0,0.0,0.0,0.0,0.0,0.0,0.0,0.0,0.0,0.0,0.0,0.0,0.0,0.0,0.0,0.0,0.0,0.0,0.0,0.0,0.0,0.0,0.0,0.0,0.0,0.0,0.0,0.0,0.0,0.0,0.0,0.0,0.0,0.0,0.0,0.0,0.0,0.0,0.0,0.0,0.0,0.0,0.0,0.0,0.0,0.0,0.0,0.0,0.0,0.0,0.0,0.0,0.0,0.0,0.0,0.0,1.1685,1.2309,1.2953,0.0,0.0,0.0,0.0,0.0,0.0,0.0,0.0,0.0,0.0,0.0,0.0,0.0,0.0,0.0,0.0,0.0,0.0,0.0,0.0,0.0,0.0,0.0,0.0,0.0,0.0,0.0,0.0,0.0,0.0,0.0,0.0,0.0,0.0,0.0,0.0,0.0,0.0,0.0,0.0,0.0,0.0,0.0,0.0,0.0,0.0,0.0,0.0,0.0,0.0,0.0,0.0,0.0,0.0,0.0,0.0,0.0,0.0,0.0,0.0,0.0,0.0,0.0,0.0,0.0,0.0,0.0,0.0,0.0,0.0,0.0,0.0,0.0,0.0,0.0,0.0,0.0,0.0,0.0,0.0,0.0,0.0,0.0,0.0,0.0,0.0,0.0,0.0,0.0,0.0,0.0,0.0,0.0,0.0,0.0,0.0,0.0,0.0,0.0,0.0,0.0,0.0,0.0,0.0,0.0,0.0,0.0,0.0,0.0,0.0,1.0833,1.1442,1.2036,0.0,1.3163,0.0,0.0,0.0,0.0,0.0,0.0,0.0,0.0,0.0,0.0,0.0,0.0,0.0,0.0,0.0,0.0,0.0,0.0,0.0,0.0,0.0,0.0,0.0,0.0,0.0,0.0,0.0,0.0,0.0,0.0,0.0,0.0,0.0,0.0,0.0,0.0,0.0,0.0,0.0,0.0,0.0,0.0,0.0,0.0,0.0,0.0,0.0,0.0,0.0,0.0,0.0,0.0,0.0,0.0,0.0,0.0,0.0,0.0,0.0,0.0,0.0,0.0,0.0,0.0,0.0,0.0,0.0,0.0,0.0,0.0,0.0,0.0,0.0,0.0,0.0,0.0,0.0,0.0,0.0,0.0,0.0,0.0,0.0,0.0,0.0,0.0,0.0,0.0,0.0,0.0,0.0,0.0,0.0,0.0,0.0,0.0,0.0,0.0,0.0,0.0,0.0,0.0,0.0,0.0,0.0,0.0,0.0,0.0,0.0,0.0,1.1203,1.1365,1.22,1.2815,0.0,0.0,0.0,0.0,0.0,0.0,0.0,0.0,0.0,0.0,0.0,0.0,0.0,0.0,0.0,0.0,0.0,0.0,0.0,0.0,0.0,0.0,0.0,0.0,0.0,0.0,0.0,0.0,0.0,0.0,0.0,0.0,0.0,0.0,0.0,0.0,0.0,0.0,0.0,0.0,0.0,0.0,0.0,0.0,0.0,0.0,0.0,0.0,0.0,0.0,0.0,0.0,0.0,0.0,0.0,0.0,0.0,0.0,0.0,0.0,0.0,0.0,0.0,0.0,0.0,0.0,0.0,0.0,0.0,0.0,0.0,0.0,0.0,0.0,0.0,0.0,0.0,0.0,0.0,0.0,0.0,0.0,0.0,0.0,0.0,0.0,0.0,0.0,0.0,0.0,0.0,0.0,0.0,0.0,0.0,0.0,0.0,0.0,0.0,0.0,0.0,0.0,0.0,0.0,0.0,0.0,0.0,0.0,0.0,0.0,1.108,1.1422,1.1572,1.2318,1.2873,1.321,0.0,0.0,0.0,0.0,0.0,0.0,0.0,0.0,0.0,0.0,0.0,0.0,0.0,0.0,0.0,0.0,0.0,0.0,0.0,0.0,0.0,0.0,0.0,0.0,0.0,0.0,0.0,0.0,0.0,0.0,0.0,0.0,0.0,0.0,0.0,0.0,0.0,0.0,0.0,0.0,0.0,0.0,0.0,0.0,0.0,0.0,0.0,0.0,0.0,0.0,0.0,0.0,0.0,0.0,0.0,0.0,0.0,0.0,0.0,0.0,0.0,0.0,0.0,0.0,0.0,0.0,0.0,0.0,0.0,0.0,0.0,0.0,0.0,0.0,0.0,0.0,0.0,0.0,0.0,0.0,0.0,0.0,0.0,0.0,0.0,0.0,0.0,0.0,0.0,0.0,0.0,0.0,0.0,0.0,0.0,0.0,0.0,0.0,0.0,0.0,0.0,0.0,0.0,0.0,0.0,0.0,0.0,0.0,1.0967,1.1011,1.141,1.214,1.2389,1.2733,0.0,0.0,0.0,0.0,0.0,0.0,0.0,0.0,0.0,0.0,0.0,0.0,0.0,0.0,0.0,0.0,0.0,0.0,0.0,0.0,0.0,0.0,0.0,0.0,0.0,0.0,0.0,0.0,0.0,0.0,0.0,0.0,0.0,0.0,0.0,0.0,0.0,0.0,0.0,0.0,0.0,0.0,0.0,0.0,0.0,0.0,0.0,0.0,0.0,0.0,0.0,0.0,0.0,0.0,0.0,0.0,0.0,0.0,0.0,0.0,0.0,0.0,0.0,0.0,0.0,0.0,0.0,0.0,0.0,0.0,0.0,0.0,0.0,0.0,0.0,0.0,0.0,0.0,0.0,0.0,0.0,0.0,0.0,0.0,0.0,0.0,0.0,0.0,0.0,0.0,0.0,0.0,0.0,0.0,0.0,0.0,0.0,0.0,0.0,0.0,0.0,0.0,0.0,0.0,0.0,0.0,0.0,0.0,0.0,1.1431,1.1503,1.1725,1.2198,1.2389,1.265,0.0,0.0,0.0,0.0,0.0,0.0,0.0,0.0,0.0,0.0,0.0,0.0,0.0,0.0,0.0,0.0,0.0,0.0,0.0,0.0,0.0,0.0,0.0,0.0,0.0,0.0,0.0,0.0,0.0,0.0,0.0,0.0,0.0,0.0,0.0,0.0,0.0,0.0,0.0,0.0,0.0,0.0,0.0,0.0,0.0,0.0,0.0,0.0,0.0,0.0,0.0,0.0,0.0,0.0,0.0,0.0,0.0,0.0,0.0,0.0,0.0,0.0,0.0,0.0,0.0,0.0,0.0,0.0,0.0,0.0,0.0,0.0,0.0,0.0,0.0,0.0,0.0,0.0,0.0,0.0,0.0,0.0,0.0,0.0,0.0,0.0,0.0,0.0,0.0,0.0,0.0,0.0,0.0,0.0,0.0,0.0,0.0,0.0,0.0,0.0,0.0,0.0,0.0,0.0,0.0,0.0,0.0,0.0,0.0,1.1866,0.0,1.2034,1.2466,1.2484,1.265,0.0,0.0,0.0,0.0,0.0,0.0,0.0,0.0,0.0,0.0,0.0,0.0,0.0,0.0,0.0,0.0,0.0,0.0,0.0,0.0,0.0,0.0,0.0,0.0,0.0,0.0,0.0,0.0,0.0,0.0,0.0,0.0,0.0,0.0,0.0,0.0,0.0,0.0,0.0,0.0,0.0,0.0,0.0,0.0,0.0,0.0,0.0,0.0,0.0,0.0,0.0,0.0,0.0,0.0,0.0,0.0,0.0,0.0,0.0,0.0,0.0,0.0,0.0,0.0,0.0,0.0,0.0,0.0,0.0,0.0,0.0,0.0,0.0,0.0,0.0,0.0,0.0,0.0,0.0,0.0,0.0,0.0,0.0,0.0,0.0,0.0,0.0,0.0,0.0,0.0,0.0,0.0,0.0,0.0,0.0,0.0,0.0,0.0,0.0,0.0,0.0,0.0,0.0,0.0,0.0,0.0,0.0,0.0,1.1763,1.2278,1.205,1.2324,1.2977,1.2744,1.2745,0.0,0.0,0.0,0.0,0.0,0.0,0.0,0.0,0.0,0.0,0.0,0.0,0.0,0.0,0.0,0.0,0.0,0.0,0.0,0.0,0.0,0.0,0.0,0.0,0.0,0.0,0.0,0.0,0.0,0.0,0.0,0.0,0.0,0.0,0.0,0.0,0.0,0.0,0.0,0.0,0.0,0.0,0.0,0.0,0.0,0.0,0.0,0.0,0.0,0.0,0.0,0.0,0.0,0.0,0.0,0.0,0.0,0.0,0.0,0.0,0.0,0.0,0.0,0.0,0.0,0.0,0.0,0.0,0.0,0.0,0.0,0.0,0.0,0.0,0.0,0.0,0.0,0.0,0.0,0.0,0.0,0.0,0.0,0.0,0.0,0.0,0.0,0.0,0.0,0.0,0.0,0.0,0.0,0.0,0.0,0.0,0.0,0.0,0.0,0.0,0.0,0.0,0.0,0.0,0.0,0.0,0.0,0.0,0.0,1.2977,1.3134,1.3451,1.3867,1.3567,1.3545,0.0,0.0,0.0,0.0,0.0,0.0,0.0,0.0,0.0,0.0,0.0,0.0,0.0,0.0,0.0,0.0,0.0,0.0,0.0,0.0,0.0,0.0,0.0,0.0,0.0,0.0,0.0,0.0,0.0,0.0,0.0,0.0,0.0,0.0,0.0,0.0,0.0,0.0,0.0,0.0,0.0,0.0,0.0,0.0,0.0,0.0,0.0,0.0,0.0,0.0,0.0,0.0,0.0,0.0,0.0,0.0,0.0,0.0,0.0,0.0,0.0,0.0,0.0,0.0,0.0,0.0,0.0,0.0,0.0,0.0,0.0,0.0,0.0,0.0,0.0,0.0,0.0,0.0,0.0,0.0,0.0,0.0,0.0,0.0,0.0,0.0,0.0,0.0,0.0,0.0,0.0,0.0,0.0,0.0,0.0,0.0,0.0,0.0,0.0,0.0,0.0,0.0,0.0,0.0,0.0,0.0,0.0,0.0,0.0,1.3834,1.3795,1.3966,1.4408,1.4399,1.4248,1.4044,0.0,0.0,0.0,0.0,0.0,0.0,0.0,0.0,0.0,0.0,0.0,0.0,0.0,0.0,0.0,0.0,0.0,0.0,0.0,0.0,0.0,0.0,0.0,0.0,0.0,0.0,0.0,0.0,0.0,0.0,0.0,0.0,0.0,0.0,0.0,0.0,0.0,0.0,0.0,0.0,0.0,0.0,0.0,0.0,0.0,0.0,0.0,0.0,0.0,0.0,0.0,0.0,0.0,0.0,0.0,0.0,0.0,0.0,0.0,0.0,0.0,0.0,0.0,0.0,0.0,0.0,0.0,0.0,0.0,0.0,0.0,0.0,0.0,0.0,0.0,0.0,0.0,0.0,0.0,0.0,0.0,0.0,0.0,0.0,0.0,0.0,0.0,0.0,0.0,0.0,0.0,0.0,0.0,0.0,0.0,0.0,0.0,0.0,0.0,0.0,0.0,0.0,0.0,0.0,0.0,0.0,0.0,0.0,1.4856,1.4213,1.4174,1.481,1.5108,1.4904,0.0,0.0,0.0,0.0,0.0,0.0,0.0,0.0,0.0,0.0,0.0,0.0,0.0,0.0,0.0,0.0,0.0,0.0,0.0,0.0,0.0,0.0,0.0,0.0,0.0,0.0,0.0,0.0,0.0,0.0,0.0,0.0,0.0,0.0,0.0,0.0,0.0,0.0,0.0,0.0,0.0,0.0,0.0,0.0,0.0,0.0,0.0,0.0,0.0,0.0,0.0,0.0,0.0,0.0,0.0,0.0,0.0,0.0,0.0,0.0,0.0,0.0,0.0,0.0,0.0,0.0,0.0,0.0,0.0,0.0,0.0,0.0,0.0,0.0,0.0,0.0,0.0,0.0,0.0,0.0,0.0,0.0,0.0,0.0,0.0,0.0,0.0,0.0,0.0,0.0,0.0,0.0,0.0,0.0,0.0,0.0,0.0,0.0,0.0,0.0,0.0,0.0,0.0,0.0,0.0,0.0,0.0,0.0,0.0,1.5647,1.5754,1.5854,1.601,1.5438,1.5542,0.0,0.0,0.0,0.0,0.0,0.0,0.0,0.0,0.0,0.0,0.0,0.0,0.0,0.0,0.0,0.0,0.0,0.0,0.0,0.0,0.0,0.0,0.0,0.0,0.0,0.0,0.0,0.0,0.0,0.0,0.0,0.0,0.0,0.0,0.0,0.0,0.0,0.0,0.0,0.0,0.0,0.0,0.0,0.0,0.0,0.0,0.0,0.0,0.0,0.0,0.0,0.0,0.0,0.0,0.0,0.0,0.0,0.0,0.0,0.0,0.0,0.0,0.0,0.0,0.0,0.0,0.0,0.0,0.0,0.0,0.0,0.0,0.0,0.0,0.0,0.0,0.0,0.0,0.0,0.0,0.0,0.0,0.0,0.0,0.0,0.0,0.0,0.0,0.0,0.0,0.0,0.0,0.0,0.0,0.0,0.0,0.0,0.0,0.0,0.0,0.0,0.0,0.0,0.0,0.0,0.0,0.0,0.0,1.5608,1.5819,1.6527,1.7089,1.7493,1.6922,1.6728,0.0,0.0,0.0,0.0,0.0,0.0,0.0,0.0,0.0,0.0,0.0,0.0,0.0,0.0,0.0,0.0,0.0,0.0,0.0,0.0,0.0,0.0,0.0,0.0,0.0,0.0,0.0,0.0,0.0,0.0,0.0,0.0,0.0,0.0,0.0,0.0,0.0,0.0,0.0,0.0,0.0,0.0,0.0,0.0,0.0,0.0,0.0,0.0,0.0,0.0,0.0,0.0,0.0,0.0,0.0,0.0,0.0,0.0,0.0,0.0,0.0,0.0,0.0,0.0,0.0,0.0,0.0,0.0,0.0,0.0,0.0,0.0,0.0,0.0,0.0,0.0,0.0,0.0,0.0,0.0,0.0,0.0,0.0,0.0,0.0,0.0,0.0,0.0,0.0,0.0,0.0,0.0,0.0,0.0,0.0,0.0,0.0,0.0,0.0,0.0,0.0,0.0,0.0,0.0,0.0,0.0,0.0,0.0,1.6475,1.5998,1.7124,1.8205,1.9065,1.8736,1.8161,0.0,0.0,0.0,0.0,0.0,0.0,0.0,0.0,0.0,0.0,0.0,0.0,0.0,0.0,0.0,0.0,0.0,0.0,0.0,0.0,0.0,0.0,0.0,0.0,0.0,0.0,0.0,0.0,0.0,0.0,0.0,0.0,0.0,0.0,0.0,0.0,0.0,0.0,0.0,0.0,0.0,0.0,0.0,0.0,0.0,0.0,0.0,0.0,0.0,0.0,0.0,0.0,0.0,0.0,0.0,0.0,0.0,0.0,0.0,0.0,0.0,0.0,0.0,0.0,0.0,0.0,0.0,0.0,0.0,0.0,0.0,0.0,0.0,0.0,0.0,0.0,0.0,0.0,0.0,0.0,0.0,0.0,0.0,0.0,0.0,0.0,0.0,0.0,0.0,0.0,0.0,0.0,0.0,0.0,0.0,0.0,0.0,0.0,0.0,0.0,0.0,0.0,0.0,0.0,0.0,0.0,0.0,0.0,1.7483,1.8247,1.9144,1.9964,2.0699,1.8891,1.8741,0.0,0.0,0.0,0.0,0.0,0.0,0.0,0.0,0.0,0.0,0.0,0.0,0.0,0.0,0.0,0.0,0.0,0.0,0.0,0.0,0.0,0.0,0.0,0.0,0.0,0.0,0.0,0.0,0.0,0.0,0.0,0.0,0.0,0.0,0.0,0.0,0.0,0.0,0.0,0.0,0.0,0.0,0.0,0.0,0.0,0.0,0.0,0.0,1.5222,0.0,0.0,0.0,0.0,0.0,0.0,0.0,0.0,0.0,0.0,0.0,0.0,0.0,0.0,0.0,0.0,0.0,0.0,0.0,0.0,0.0,0.0,0.0,0.0,0.0,0.0,0.0,0.0,0.0,0.0,0.0,0.0,0.0,0.0,0.0,0.0,0.0,0.0,0.0,0.0,0.0,0.0,0.0,0.0,0.0,0.0,0.0,0.0,0.0,0.0,0.0,0.0,0.0,0.0,0.0,0.0,0.0,0.0,0.0,1.849,1.9274,2.054,2.1513,2.2064,2.1038,2.0898,0.0,0.0,0.0,0.0,0.0,0.0,0.0,0.0,0.0,0.0,0.0,0.0,0.0,0.0,0.0,0.0,0.0,0.0,0.0,0.0,0.0,0.0,0.0,0.0,0.0,0.0,0.0,0.0,0.0,0.0,0.0,0.0,0.0,0.0,0.0,0.0,0.0,0.0,0.0,0.0,0.0,0.0,0.0,0.0,0.0,0.0,0.0,0.0,0.0,0.0,0.0,0.0,0.0,0.0,0.0,0.0,0.0,0.0,0.0,0.0,0.0,0.0,0.0,0.0,0.0,0.0,0.0,0.0,0.0,0.0,0.0,0.0,0.0,0.0,0.0,0.0,0.0,0.0,0.0,0.0,0.0,0.0,0.0,0.0,0.0,0.0,0.0,0.0,0.0,0.0,0.0,0.0,0.0,0.0,0.0,0.0,0.0,0.0,0.0,0.0,0.0,0.0,0.0,0.0,0.0,0.0,0.0,1.8694,1.959,2.0066,2.1707,2.2878,2.3483,2.3833,2.3561,2.2632,0.0,0.0,0.0,0.0,0.0,0.0,0.0,0.0,0.0,0.0,0.0,0.0,0.0,0.0,0.0,0.0,0.0,0.0,0.0,0.0,0.0,0.0,0.0,0.0,0.0,0.0,0.0,0.0,0.0,0.0,0.0,0.0,0.0,0.0,0.0,0.0,0.0,0.0,1.4373,1.5788,0.0,0.0,0.0,0.0,0.0,0.0,0.0,0.0,1.7509,0.0,0.0,0.0,0.0,0.0,0.0,0.0,0.0,0.0,0.0,0.0,0.0,0.0,0.0,0.0,0.0,0.0,0.0,0.0,0.0,0.0,0.0,0.0,0.0,0.0,0.0,0.0,0.0,0.0,0.0,0.0,0.0,0.0,0.0,0.0,0.0,0.0,0.0,0.0,0.0,0.0,0.0,0.0,0.0,0.0,0.0,0.0,0.0,0.0,0.0,0.0,0.0,0.0,0.0,0.0,0.0,1.8354,1.9481,2.0819,2.2414,2.345,2.4268,2.4833,2.5456,2.5385,2.4508,0.0,0.0,0.0,0.0,0.0,0.0,0.0,0.0,0.0,0.0,0.0,0.0,0.0,0.0,0.0,0.0,0.0,0.0,0.0,0.0,0.0,0.0,0.0,0.0,0.0,0.0,0.0,0.0,0.0,0.0,0.0,0.0,0.0,0.0,0.0,0.0,0.0,0.0,0.0,1.731,1.8027,0.0,0.0,0.0,0.0,0.0,0.0,0.0,0.0,1.7797,0.0,0.0,0.0,0.0,0.0,0.0,0.0,0.0,0.0,0.0,0.0,0.0,0.0,0.0,0.0,0.0,0.0,0.0,0.0,0.0,0.0,0.0,0.0,0.0,0.0,0.0,0.0,0.0,0.0,0.0,0.0,0.0,0.0,0.0,0.0,0.0,0.0,0.0,0.0,0.0,0.0,0.0,0.0,0.0,0.0,0.0,0.0,0.0,0.0,0.0,0.0,0.0,0.0,0.0,0.0,1.9214,2.0348,2.158,2.2922,2.4351,2.5119,2.5237,2.6233,2.6277,0.0,0.0,0.0,0.0,0.0,0.0,0.0,0.0,0.0,0.0,0.0,0.0,0.0,0.0,0.0,0.0,0.0,0.0,0.0,0.0,0.0,0.0,0.0,0.0,0.0,0.0,0.0,0.0,0.0,0.0,0.0,0.0,0.0,0.0,0.0,0.0,0.0,0.0,0.0,0.0,1.7781,1.8607,1.9131,0.0,0.0,0.0,0.0,0.0,0.0,1.9648,1.9698,0.0,0.0,0.0,0.0,0.0,0.0,0.0,0.0,0.0,0.0,0.0,0.0,0.0,0.0,0.0,0.0,0.0,0.0,0.0,0.0,0.0,0.0,0.0,0.0,0.0,0.0,0.0,0.0,0.0,0.0,0.0,0.0,0.0,0.0,0.0,0.0,0.0,0.0,0.0,0.0,0.0,0.0,0.0,0.0,0.0,0.0,0.0,0.0,0.0,0.0,0.0,0.0,0.0,0.0,0.0,1.9903,2.1145,2.2259,2.3243,2.5002,2.5818,2.5424,2.6743,2.6734,0.0,0.0,0.0,0.0,0.0,0.0,0.0,0.0,0.0,0.0,0.0,0.0,0.0,0.0,0.0,0.0,0.0,0.0,0.0,0.0,0.0,0.0,0.0,0.0,0.0,0.0,0.0,0.0,0.0,0.0,0.0,0.0,0.0,0.0,0.0,0.0,0.0,0.0,0.0,0.0,0.0,1.9242,2.0015,2.0334,0.0,0.0,0.0,0.0,2.1626,2.1719,0.0,0.0,0.0,0.0,0.0,0.0,0.0,0.0,0.0,0.0,0.0,0.0,0.0,0.0,0.0,0.0,0.0,0.0,0.0,0.0,0.0,0.0,0.0,0.0,0.0,0.0,0.0,0.0,0.0,0.0,0.0,0.0,0.0,0.0,0.0,0.0,0.0,0.0,0.0,0.0,0.0,0.0,0.0,0.0,0.0,0.0,0.0,0.0,0.0,0.0,0.0,0.0,0.0,0.0,0.0,0.0,2.0341,2.1695,2.3014,2.4222,2.5799,2.6439,2.6126,2.7106,2.6824,0.0,0.0,0.0,0.0,0.0,0.0,0.0,0.0,0.0,0.0,0.0,0.0,0.0,0.0,0.0,0.0,0.0,0.0,0.0,0.0,0.0,0.0,0.0,0.0,0.0,0.0,0.0,0.0,0.0,0.0,0.0,0.0,0.0,0.0,0.0,0.0,0.0,0.0,0.0,0.0,0.0,2.0517,2.1133,2.1838,2.2326,0.0,0.0,2.3292,2.3484,2.3457,0.0,0.0,0.0,0.0,0.0,0.0,0.0,0.0,0.0,0.0,0.0,0.0,0.0,0.0,0.0,0.0,0.0,0.0,0.0,0.0,0.0,0.0,0.0,0.0,0.0,0.0,0.0,0.0,0.0,0.0,0.0,0.0,0.0,0.0,0.0,0.0,0.0,0.0,0.0,0.0,0.0,0.0,0.0,0.0,0.0,0.0,0.0,0.0,0.0,0.0,0.0,0.0,0.0,0.0,0.0,1.9865,2.1064,2.2587,2.3702,2.4277,2.6514,2.7364,2.6675,2.7515,2.7266,0.0,0.0,0.0,0.0,0.0,0.0,0.0,0.0,0.0,0.0,0.0,0.0,0.0,0.0,0.0,0.0,0.0,0.0,0.0,0.0,0.0,0.0,0.0,0.0,0.0,0.0,0.0,0.0,0.0,0.0,0.0,0.0,0.0,0.0,0.0,0.0,0.0,0.0,0.0,0.0,0.0,0.0,2.2426,2.2948,0.0,0.0,0.0,2.5293,2.5905,0.0,0.0,0.0,0.0,0.0,0.0,0.0,0.0,0.0,0.0,0.0,0.0,0.0,0.0,0.0,0.0,0.0,0.0,0.0,0.0,0.0,0.0,0.0,0.0,0.0,0.0,0.0,0.0,0.0,0.0,0.0,0.0,0.0,0.0,0.0,0.0,0.0,0.0,0.0,0.0,0.0,0.0,0.0,0.0,0.0,0.0,0.0,0.0,0.0,0.0,0.0,0.0,0.0,0.0,0.0,0.0,0.0,2.1779,2.3406,2.4372,2.4594,2.7195,2.8216,2.7427,2.7965,0.0,0.0,0.0,0.0,0.0,0.0,0.0,0.0,0.0,0.0,0.0,0.0,0.0,0.0,0.0,0.0,0.0,0.0,0.0,0.0,0.0,0.0,0.0,0.0,0.0,0.0,0.0,1.3322,0.0,0.0,0.0,0.0,0.0,0.0,0.0,0.0,0.0,0.0,0.0,0.0,0.0,0.0,2.2462,2.3748,2.4182,2.4784,0.0,0.0,2.7454,2.8398,2.8078,2.7709,0.0,0.0,0.0,0.0,0.0,0.0,0.0,0.0,0.0,0.0,0.0,0.0,0.0,0.0,0.0,0.0,0.0,0.0,0.0,0.0,0.0,0.0,0.0,0.0,0.0,0.0,0.0,0.0,0.0,0.0,0.0,0.0,0.0,0.0,0.0,0.0,0.0,0.0,0.0,0.0,0.0,0.0,0.0,0.0,0.0,0.0,0.0,0.0,0.0,0.0,0.0,0.0,0.0,0.0,0.0,2.2267,2.3895,2.5053,2.5733,2.783,2.8772,2.8427,2.8443,2.7959,0.0,0.0,0.0,0.0,0.0,0.0,0.0,0.0,0.0,0.0,0.0,0.0,0.0,0.0,0.0,0.0,0.0,0.0,0.0,0.0,0.0,0.0,0.0,0.0,0.0,0.0,0.0,0.0,0.0,0.0,0.0,0.0,0.0,0.0,0.0,0.0,0.0,0.0,0.0,0.0,0.0,2.3768,2.4811,2.5567,2.6644,0.0,0.0,2.9992,3.074,3.033,2.9636,2.8976,0.0,0.0,0.0,0.0,0.0,0.0,0.0,0.0,0.0,0.0,0.0,0.0,0.0,0.0,0.0,0.0,0.0,0.0,0.0,0.0,0.0,0.0,0.0,0.0,0.0,0.0,0.0,0.0,0.0,0.0,0.0,0.0,0.0,0.0,0.0,0.0,0.0,0.0,0.0,0.0,0.0,0.0,0.0,0.0,0.0,0.0,0.0,0.0,0.0,0.0,0.0,0.0,0.0,2.1552,2.2649,2.4642,2.5775,2.6122,2.8558,2.9748,2.9374,2.9488,2.9005,0.0,0.0,0.0,0.0,0.0,0.0,0.0,0.0,0.0,0.0,0.0,0.0,0.0,0.0,0.0,0.0,0.0,0.0,0.0,0.0,0.0,0.0,0.0,0.0,0.0,0.0,0.0,0.0,1.6168,1.6816,1.7055,0.0,0.0,0.0,0.0,0.0,0.0,0.0,0.0,0.0,0.0,2.5612,2.7094,2.8029,0.0,0.0,3.0807,3.124,3.1873,3.1368,3.0557,2.9297,2.8062,0.0,0.0,0.0,0.0,0.0,0.0,0.0,0.0,0.0,0.0,0.0,0.0,0.0,0.0,0.0,0.0,0.0,0.0,0.0,0.0,0.0,0.0,0.0,0.0,0.0,0.0,0.0,0.0,0.0,0.0,0.0,0.0,0.0,0.0,0.0,0.0,0.0,0.0,0.0,0.0,0.0,0.0,0.0,0.0,0.0,0.0,0.0,0.0,0.0,0.0,0.0,0.0,2.2292,2.3316,2.553,2.6764,2.6999,2.9354,3.049,3.0323,3.0292,2.9844,0.0,0.0,0.0,0.0,0.0,0.0,0.0,0.0,0.0,0.0,0.0,0.0,0.0,0.0,0.0,0.0,0.0,0.0,0.0,0.0,0.0,0.0,0.0,0.0,0.0,0.0,0.0,0.0,1.7257,1.7758,1.7738,0.0,0.0,0.0,0.0,0.0,0.0,0.0,0.0,0.0,0.0,2.7283,2.8721,2.9831,3.0908,3.1905,3.2288,3.2594,3.2788,3.2222,3.1304,2.9806,0.0,0.0,0.0,0.0,0.0,0.0,0.0,0.0,0.0,0.0,0.0,0.0,0.0,0.0,0.0,0.0,0.0,0.0,0.0,0.0,0.0,0.0,0.0,0.0,0.0,0.0,0.0,0.0,0.0,0.0,1.787,0.0,0.0,0.0,0.0,0.0,0.0,0.0,0.0,0.0,0.0,0.0,0.0,0.0,0.0,0.0,0.0,0.0,0.0,0.0,0.0,0.0,0.0,2.3601,2.4279,2.6489,2.8028,2.8718,3.0079,3.0965,3.1227,3.0711,3.0299,3.0023,0.0,0.0,0.0,0.0,0.0,0.0,0.0,0.0,0.0,0.0,0.0,0.0,0.0,0.0,0.0,0.0,0.0,0.0,0.0,0.0,0.0,0.0,0.0,0.0,0.0,0.0,1.8228,1.8435,1.8354,0.0,0.0,0.0,0.0,0.0,0.0,0.0,0.0,0.0,0.0,2.7033,2.8468,2.9331,3.0681,3.1984,3.2773,3.3642,3.412,3.3565,3.289,3.2004,0.0,0.0,0.0,0.0,0.0,0.0,0.0,0.0,0.0,0.0,0.0,0.0,0.0,0.0,0.0,0.0,0.0,0.0,0.0,0.0,0.0,0.0,0.0,0.0,0.0,0.0,0.0,2.0967,2.0901,0.0,0.0,0.0,0.0,0.0,0.0,0.0,0.0,0.0,0.0,0.0,2.6865,2.774,0.0,0.0,0.0,0.0,0.0,0.0,0.0,0.0,0.0,0.0,0.0,0.0,2.4787,2.5394,2.7053,2.8295,2.8992,3.0275,3.1078,3.1428,3.1356,3.0905,3.0002,0.0,0.0,0.0,0.0,0.0,0.0,0.0,0.0,0.0,0.0,0.0,0.0,0.0,0.0,0.0,0.0,0.0,0.0,0.0,0.0,0.0,0.0,0.0,0.0,0.0,1.8688,0.0,0.0,0.0,0.0,0.0,0.0,0.0,0.0,0.0,0.0,0.0,2.5722,2.7417,2.908,3.0358,3.1121,3.2066,3.2986,0.0,0.0,0.0,0.0,0.0,0.0,0.0,0.0,0.0,0.0,0.0,0.0,0.0,0.0,2.8581,2.5888,2.5449,2.5548,2.5414,0.0,0.0,0.0,0.0,0.0,0.0,0.0,0.0,0.0,0.0,0.0,0.0,0.0,0.0,2.3521,0.0,2.2923,0.0,0.0,0.0,0.0,0.0,0.0,0.0,0.0,2.8401,2.9593,3.0228,3.0843,3.0875,0.0,2.9528,2.8153,0.0,0.0,0.0,0.0,0.0,0.0,0.0,0.0,2.5953,2.6732,2.8168,2.9364,3.0274,3.0999,3.1523,3.1876,3.1771,3.1199,3.004,2.9426,2.8606,0.0,0.0,0.0,0.0,0.0,0.0,0.0,0.0,0.0,0.0,0.0,0.0,0.0,0.0,0.0,0.0,0.0,0.0,0.0,0.0,0.0,0.0,0.0,2.0404,0.0,0.0,0.0,0.0,0.0,0.0,0.0,0.0,0.0,2.5048,2.6392,2.7944,2.9388,3.0591,3.1636,3.2246,0.0,0.0,0.0,0.0,0.0,0.0,0.0,3.3688,3.2731,3.2665,3.2847,3.3069,3.3123,3.3129,3.3129,0.0,0.0,2.8951,2.8497,2.8643,2.8712,2.8894,2.9125,2.9294,2.9484,2.9565,0.0,0.0,0.0,0.0,0.0,0.0,0.0,0.0,2.5497,2.5592,0.0,2.5449,0.0,0.0,0.0,0.0,0.0,2.6525,0.0,0.0,3.1611,3.2779,3.3001,3.3528,3.331,3.2343,3.1902,3.163,3.1261,2.7733,0.0,0.0,0.0,0.0,0.0,0.0,2.7124,2.8396,2.9832,3.1172,3.2401,3.2259,3.2283,3.2605,3.2021,3.1264,3.0398,3.0667,3.0026,2.8303,2.8291,0.0,0.0,0.0,0.0,0.0,0.0,0.0,0.0,0.0,0.0,0.0,0.0,0.0,0.0,0.0,0.0,0.0,0.0,0.0,0.0,2.219,0.0,0.0,0.0,0.0,0.0,0.0,0.0,0.0,0.0,0.0,2.7714,2.8896,3.0102,3.1149,0.0,0.0,0.0,0.0,3.5022,3.5386,3.6091,3.6186,3.4984,3.4994,3.4984,3.4494,0.0,0.0,3.5849,3.5668,3.5409,3.5409,3.5469,3.4649,3.2361,3.2184,3.2246,3.1671,3.2219,3.2748,3.2633,3.2933,3.3241,3.461,0.0,0.0,0.0,0.0,2.8936,2.8801,2.938,2.8243,2.8156,2.8737,2.7394,0.0,0.0,0.0,0.0,0.0,0.0,3.1671,3.3313,3.4595,3.5599,3.6306,3.6285,3.6074,3.5663,3.4874,3.4314,3.4046,3.236,3.0407,2.8339,0.0,0.0,0.0,0.0,2.9631,3.038,3.1245,3.206,3.2768,3.2949,3.3151,3.3413,3.3231,3.2929,3.2621,3.2138,3.1506,3.0759,3.0067,0.0,0.0,0.0,0.0,0.0,0.0,0.0,0.0,0.0,0.0,0.0,0.0,0.0,0.0,0.0,0.0,0.0,0.0,0.0,2.362,2.3967,2.4136,0.0,0.0,0.0,0.0,0.0,0.0,0.0,0.0,0.0,3.196,3.2393,3.2826,0.0,0.0,3.5264,3.5459,3.5848,3.6222,3.6625,3.6857,0.0,0.0,3.6851,3.691,3.6914,3.7292,3.7612,3.7732,3.7682,3.7704,3.8074,3.8181,3.8038,3.7916,3.6019,3.4765,3.5125,3.5488,3.5764,3.6244,3.6544,3.6496,3.9013,3.7163,3.4861,3.3801,3.353,3.2199,3.2234,3.3047,3.1662,3.1511,3.2069,3.0839,3.0571,3.0951,3.047,0.0,0.0,0.0,3.5166,3.6968,3.7719,3.8438,3.9041,3.8572,3.8104,3.7686,3.6687,3.6089,3.5866,3.5428,3.4286,3.2494,0.0,0.0,2.9608,3.0217,3.0951,3.177,3.2368,3.3031,3.3739,3.3886,3.3837,3.3656,3.368,3.368,3.359,3.3107,3.2688,3.2395,3.1338,3.0359,0.0,0.0,0.0,0.0,0.0,0.0,0.0,0.0,0.0,0.0,0.0,2.0896,2.0955,0.0,0.0,0.0,2.3965,2.504,2.6287,2.6231,0.0,0.0,0.0,0.0,0.0,0.0,0.0,3.0874,3.256,3.3922,3.4845,3.5343,3.5554,3.5183,3.5948,3.6585,3.6836,0.0,3.757,3.7863,3.8226,3.8439,3.8319,3.8409,3.8611,3.8893,3.9703,4.0294,4.0177,4.0231,4.0421,4.067,4.0685,4.0738,4.1208,3.9558,3.8174,3.8467,3.8639,3.881,3.922,3.939,3.9503,4.2826,4.2243,3.8304,3.6603,3.6356,3.5432,3.5728,3.6861,3.5531,3.5284,3.5892,3.5202,3.4382,3.3616,3.3729,0.0,3.5234,3.6937,3.8539,4.0135,4.0896,4.1321,4.1339,4.0593,3.9732,3.8857,3.7902,3.7366,3.7294,3.7514,3.7469,3.7109,3.3893,3.1852,3.1109,3.117,3.1792,3.2996,3.3453,3.4178,3.5185,3.4992,3.4516,3.3769,3.3826,3.3826,3.3718,3.3684,3.3584,3.3354,3.2317,3.1506,3.1071,0.0,0.0,0.0,0.0,0.0,0.0,0.0,0.0,0.0,0.0,0.0,0.0,0.0,0.0,0.0,2.6631,0.0,2.8972,2.8904,0.0,0.0,0.0,3.0034,3.1603,3.1877,3.2691,3.4582,0.0,0.0,3.6711,3.7838,3.8172,3.7057,3.6928,3.7054,3.7401,3.8286,3.894,3.9177,3.9902,4.0309,3.9868,3.9988,4.0282,4.0629,4.1787,4.2579,4.2643,4.2777,4.302,4.3027,4.2865,4.2694,4.2756,4.256,4.2425,4.1389,4.1518,4.1731,4.1516,4.1867,4.2204,4.2584,4.2411,4.1199,4.0618,4.0394,3.8952,3.883,3.9511,3.8219,3.8053,3.867,3.7766,3.7444,3.765,3.7702,3.8239,3.9251,3.9847,4.1083,4.2715,4.3095,4.325,4.3233,4.2833,4.2092,4.1134,4.0771,4.0453,4.016,4.0268,3.9551,3.8116,3.7238,3.627,3.5253,3.4822,3.4899,3.5597,3.5906,3.6108,3.6142,3.6241,3.591,3.5076,3.507,3.5043,3.4908,3.437,3.4057,3.3979,3.3084,3.2172,3.1303,3.0357,0.0,0.0,0.0,0.0,0.0,0.0,0.0,0.0,0.0,2.4589,2.4726,0.0,2.7066,0.0,2.9217,3.0279,3.1003,3.1014,0.0,0.0,3.268,3.3238,3.4727,3.4955,3.5389,3.6468,3.7238,3.7888,3.8331,3.9213,3.9786,3.9757,3.9519,3.9519,3.9895,4.0139,4.0346,4.0597,4.082,4.109,4.1417,4.2122,4.2526,4.2827,4.3179,4.3384,4.323,4.3286,4.3427,4.3656,4.3665,4.3704,4.4062,4.411,4.3973,4.3609,4.3625,4.3731,4.3856,4.4218,4.4519,4.4685,4.4575,4.4355,4.4243,4.3945,4.1607,4.1013,4.1543,4.0531,4.0333,4.0615,4.0001,3.996,4.0325,4.0434,4.1163,4.2354,4.2642,4.3688,4.5282,4.5388,4.5388,4.5244,4.4716,4.412,4.3361,4.2856,4.246,4.2202,4.2423,4.1983,4.0843,4.0475,3.9941,3.9221,3.7038,3.6115,3.6571,3.6898,3.7053,3.6947,3.7043,3.6754,3.5937,3.584,3.5626,3.5215,3.4768,3.4505,3.4489,3.3698,3.2921,3.2253,3.148,3.0609,0.0,0.0,0.0,0.0,0.0,0.0,0.0,0.0,0.0,0.0,0.0,2.9959,3.1235,3.2421,3.333,3.3984,3.4059,3.4446,3.5457,3.5763,3.6223,3.7127,3.7455,3.7868,3.8397,3.8867,3.941,4.0093,4.0585,4.1218,4.1859,4.1752,4.145,4.1038,4.1267,4.1554,4.1638,4.2024,4.2338,4.2799,4.323,4.3551,4.3668,4.3974,4.4094,4.4008,4.4205,4.4407,4.4491,4.4421,4.4366,4.4586,4.4572,4.4572,4.4573,4.4926,4.5153,4.491,4.549,4.5988,4.7364,4.7216,4.7043,4.702,4.6799,4.3811,4.292,4.3417,4.2836,4.2495,4.2478,4.2401,4.2401,4.2551,4.2627,4.3517,4.4919,4.5213,4.6093,4.7427,4.7501,4.7387,4.7121,4.6411,4.579,4.5286,4.4473,4.3969,4.3701,4.4171,4.4292,4.3972,4.3197,4.2778,4.2534,3.8836,3.701,3.7101,3.7433,3.7603,3.7619,3.7619,3.7268,3.6566,3.6386,3.6006,3.5374,3.5181,3.5116,3.51,3.4426,3.3871,3.363,3.2756,3.1982,0.0,3.0985,0.0,0.0,0.0,0.0,0.0,0.0,0.0,0.0,3.1545,3.3408,3.4766,3.5649,3.6413,3.6955,3.7061,3.7364,3.7994,3.8536,3.8958,3.9204,3.9834,4.033,4.0431,4.0705,4.1162,4.1866,4.21,4.2529,4.3294,4.3458,4.3012,4.1987,4.2197,4.2548,4.2548,4.3268,4.3715,4.3778,4.3943,4.4053,4.4101,4.448,4.4843,4.4859,4.5205,4.541,4.5262,4.5083,4.4858,4.4663,4.4648,4.4572,4.4587,4.5588,4.6137,4.5639,4.627,4.7023,4.729,4.725,4.7043,4.7077,4.7182,4.6391,4.6065,4.6101,4.5949,4.5748,4.5597,4.5614,4.569,4.5882,4.5882,4.6191,4.6806,4.6936,4.7489,4.8329,4.8444,4.8386,4.8097,4.7977,4.7276,4.615,4.5922,4.569,4.5322,4.5454,4.5098,4.4414,4.4187,4.3781,4.3052,0.0,0.0,0.0,3.9156,3.8802,3.827,3.8355,3.8003,3.7136,3.697,0.0,3.6537,3.6403,3.6268,3.6252,3.6137,0.0,0.0,0.0,0.0,0.0,0.0,0.0,0.0,0.0,0.0,0.0,3.5095,3.5079,3.3245,3.5186,3.6626,3.6792,3.7533,3.8058,3.8196,3.8601,3.9146,3.9941,4.0475,4.1031,4.1797,4.2571,4.3117,4.3148,4.3816,4.4133,4.3903,4.4015,4.4134,4.4417,4.4441,4.4346,4.4071,4.3747,4.3479,4.351,4.4062,4.4512,4.4512,4.4986,4.5286,4.5444,4.5491,4.5586,4.5586,4.5665,4.5662,4.5442,4.5278,4.5055,4.4874,4.4723,4.4572,4.4572,4.5664,4.6573,4.6386,4.7237,4.8019,4.8477,0.0,4.8285,4.8285,0.0,4.8285,4.8184,4.8056,4.7325,4.7003,4.6886,4.6886,4.6961,4.7077,4.7135,4.7455,4.7986,4.8083,4.8569,4.9292,4.935,4.9234,4.8924,4.8882,4.8284,4.7378,4.73,4.7065,4.6746,4.673,4.65,4.5945,4.5616,4.5239,4.4781,4.4154,4.3147,4.1625,4.1187,4.0641,3.991,3.9615,3.8916,3.7817,0.0,0.0,0.0,0.0,0.0,0.0,0.0,0.0,0.0,0.0,0.0,3.6214,3.5761,3.5561,3.564,3.6404,3.6982,3.7013,3.8622,3.8681,3.6506,3.808,3.9183,3.9168,3.9936,4.0598,4.0857,4.1162,4.1434,4.179,4.2339,4.2839,4.3225,4.4033,4.4495,4.46,4.5044,4.5363,4.5515,4.5557,4.5788,4.6218,4.6281,4.6266,4.6187,4.5396,4.4764,4.4764,4.5001,4.5254,4.5286,4.5523,4.5823,4.5807,4.5807,4.5807,4.5807,4.5807,4.5735,4.5515,4.5368,4.5129,4.4949,4.4723,4.4679,4.5064,4.588,4.6696,4.7019,4.783,4.8453,4.9735,4.9812,4.9736,4.9838,5.0001,4.9924,4.9855,4.971,0.0,0.0,0.0,4.77,4.77,4.7717,4.7969,4.8438,4.9062,4.9315,4.9769,5.039,5.039,5.0214,4.9941,4.9606,4.9232,4.8795,4.854,4.8214,4.7787,4.7902,4.7836,4.7571,4.6996,4.6717,4.6618,4.5645,4.4818,4.4191,4.3221,4.2353,4.1624,4.1044,4.0133,3.8825,3.8616,3.8266,3.7672,3.7551,3.7445,3.7445,3.7339,3.753,3.8084,3.7968,3.8149,3.8527,3.8605,3.851,3.8424,3.9326,3.9961,4.0024,4.1324,4.1302,3.9259,4.0395,4.1273,4.1393,4.2103,4.2884,4.3418,4.3521,4.3498,4.3372,4.4018,4.4429,4.4417,4.5176,4.5856,4.5794,4.6147,4.6438,4.6909,4.7123,4.7372,4.7909,4.7956,4.8067,4.7925,4.6961,4.6171,4.6187,4.625,4.6187,4.6013,4.5997,4.595,4.5839,4.5918,4.5981,4.5997,4.6092,4.6097,4.6076,4.5696,4.5472,4.5306,4.5094,4.5049,4.5634,4.6311,4.6927,4.7496,4.8142,4.8506,5.0331,5.0883,5.0781,5.1142,5.183,5.1726,5.1365,5.0754,4.9675,4.918,4.918,4.918,4.9222,4.9433,5.0103,5.0506,5.0762,5.1399,5.1804,0.0,5.1908,5.1787,5.163,5.0796,5.0243,4.9869,4.9567,4.8974,4.8296,4.8647,4.8564,4.8001,4.7836,4.777,4.777,4.7588,4.7422,4.7322,4.4743,4.3115,4.2386,4.227,4.1823,4.1028,4.0816,4.0687,4.0588,4.0458,4.0377,4.0394,4.0377,4.0443,4.0525,4.0352,4.0242,4.0221,4.0623,4.0855,4.0638,4.1342,4.1789,4.1821,4.3067,4.2887,4.0672,4.1649,4.2469,4.2501,4.3116,4.3542,4.3668,4.4063,4.4322,4.4313,4.5216,4.589,4.5921,4.712,4.8011,4.8043,4.8828,4.8921,4.8527,4.8557,4.8573,4.8715,4.8746,4.8762,4.8652,4.8098,4.7656,4.7609,4.7609,4.734,4.6834,4.6676,4.6471,4.5886,4.6345,4.6676,4.6676,4.7087,4.7403,4.7561,4.6944,4.6592,4.6702,4.6237,4.5988,4.6357,4.6973,4.7465,4.7665,4.8204,4.8604,5.1407,5.1701,5.1658,5.1847,5.2218,5.2174,5.1744,5.1097,5.0557,5.036,5.0377,5.0755,5.0987,5.1081,5.1443,5.1641,5.1735,5.2063,5.2201,5.2201,5.2201,5.2096,5.1957,5.1429,5.0992,5.0693,5.0452,5.0089,4.9591,4.9826,4.9626,4.886,4.8379,4.8049,4.7984,4.7603,4.7388,4.7355,4.5682,4.444,4.3694,4.2932,4.2353,4.2021,4.1947,4.189,4.1906,4.1849,4.1609,4.1214,4.114,4.128,4.1674,4.1589,4.1575,4.1785,4.2421,4.2747,4.2525,4.3928,4.4589,4.4168,4.4986,4.4898,4.3269,4.3611,4.3939,4.3801,4.4085,4.4417,4.4828,4.5227,4.5547,4.5547,4.6398,4.7058,4.7542,4.8199,4.8859,4.9237,4.9631,4.9789,4.9489,4.9442,4.9442,4.9442,4.9442,4.9426,4.9442,4.9205,4.8699,4.8067,4.7893,4.7782,4.7451,4.7403,4.7261,4.6977,4.7182,4.7387,4.7403,4.7751,4.7877,4.7893,4.7523,4.7261,4.7247,4.6843,4.681,4.7225,4.7534,4.7874,4.826,4.8517,4.8573,5.2339,5.2494,5.2494,5.258,5.2718,5.2546,5.2149,5.1649,5.1632,5.1632,5.1683,5.189,5.2063,5.2218,5.2408,5.2494,5.2494,5.2666,5.2735,5.2735,5.2735,5.2691,5.2533,5.2147,5.1855,5.1583,5.1406,5.1109,5.0843,5.096,5.0626,4.9791,4.9075,4.8596,4.8481,4.7769,4.7388,4.7338,4.6344,4.5433,4.4688,4.3727,4.3181,4.3015,4.3181,4.3264,4.3264,4.3264,4.2982,4.2435,4.2121,4.2261,4.2805,4.2528,4.2638,4.3235,4.4038,4.4561,4.4739,4.6196,4.6828,4.6131,4.6431,4.6405,4.5613,4.5378,4.5072,4.4764,4.4843,4.5238,4.5902,4.6276,4.6626,4.6815,4.7444,4.8042,4.8561,4.9015,4.9377,4.9915,4.9995,5.0089,5.001,5.001,4.9979,4.9884,4.9916,4.9916,4.9916,4.9916,4.9426,4.8746,4.8351,4.8304,4.8193,4.813,4.8035,4.7972,4.8019,4.8083,4.8162,4.8225,4.8383,4.8446,4.8261,4.8137,4.7809,4.7637,4.7791,4.8193,4.8333,4.8488,4.8825,4.8769,4.8604,5.2666,5.3253,5.3304,5.3684,5.4149,5.3563,5.3235,5.3149,5.3184,5.3201,5.3046,5.1821,5.1683,5.227,5.2977,5.3287,5.3339,5.3977,5.4236,5.4201,5.4305,5.4287,5.4018,5.3203,5.2785,5.2686,5.2329,5.1911,5.1352,5.1697,5.143,5.046,5.0226,5.0092,4.9872,4.9243,4.8879,4.8862,4.6858,4.5433,4.4787,4.5218,4.5168,4.4506,4.5135,4.5483,4.5417,4.5483,4.545,4.5334,4.4671,4.439,4.4423,4.3713,4.3636,4.4348,4.5358,4.6399,4.7427,4.7799,4.7621,4.6892,4.6892,4.6733,4.6269,4.6182,4.5754,4.512,4.5349,4.5981,4.6613,4.6819,4.7107,4.7675,4.8399,4.8825,4.8968,4.9614,5.0214,5.023,5.034,5.0496,5.0262,5.0184,5.0184,4.9916,4.9916,4.9916,4.9916,4.9916,4.99,4.9694,4.9694,4.9394,4.8968,4.881,4.862,4.8177,4.843,4.8731,4.8889,4.9252,4.971,4.9347,4.9568,4.9363,4.9252,4.9298,4.9139,4.8963,4.8992,4.9101,4.898,4.88,4.8604,5.3753,5.4046,5.4063,5.4218,5.4443,5.4184,5.3804,5.3425,5.3408,5.3649,5.3977,5.3373,5.3287,5.3598,5.3925,5.4046,5.4046,5.3925,5.3856,5.3804,5.3373,5.3087,5.2963,5.2963,5.287,5.2938,5.3037,5.3023,5.2816,5.255,5.2115,5.153,5.0928,5.051,5.024,4.9526,4.911,4.9061,4.7785,4.6941,4.656,4.5632,4.5218,4.5417,4.6063,4.6444,4.6444,4.6444,4.6228,4.5831,4.55,4.5549,4.5963,4.5653,4.5739,4.6353,4.6994,4.757,4.7977,4.8771,4.8933,4.8204,4.8155,4.8013,4.7638,4.7213,4.6686,4.6133,4.6218,4.6676,4.7356,4.7798,4.8162,4.8509,4.9094,4.9505,4.9505,4.9993,5.0262,5.0089,5.0262,5.034,5.0105,5.0089,5.001,4.9916,4.9916,4.9916,4.9916,4.9916,4.9916,4.9916,4.9916,4.9821,4.9521,4.9489,4.9331,4.9205,4.9299,4.9489,4.9521,4.9663,4.9916,4.9916,4.9916,4.9836,4.9534,4.9517,4.934,4.9275,4.921,4.9062,4.9011,4.88,4.8604,5.4512,5.4512,5.4512,5.4632,5.4822,5.4805,5.4632,5.4356,5.4339,5.4649,5.5098,5.5132,5.5132,5.515,5.5132,5.515,5.5063,5.4581,5.4201,5.3977,5.3408,5.2984,5.2757,5.2997,5.3225,5.3327,5.3625,5.3898,5.3929,5.3338,5.287,5.2454,5.1715,5.1178,5.089,5.0139,4.969,4.9624,4.8812,4.8299,4.8084,4.6742,4.6046,4.6427,4.7106,4.7421,4.7206,4.7206,4.6974,4.6427,4.6411,4.6626,4.7156,4.7206,4.7489,4.8181,4.8731,4.8958,4.8868,4.9839,5.0179,4.9677,4.9451,4.9176,4.8769,4.8109,4.7675,4.7462,4.7372,4.764,4.8098,4.8604,4.8936,4.9157,4.9741,5.001,4.9995,5.0262,5.0418,5.0168,5.034,5.034,5.0089,4.9931,4.9916,4.9916,4.9916,4.9916,4.9916,4.9916,4.9916,4.9916,4.9916,4.9916,4.9916,4.9852,4.9916,4.9916,4.9868,4.9852,4.9916,4.9916,4.9916,4.9916,4.9916,4.9836,4.9677,4.9437,4.9356,4.9291,4.9144,4.8996,4.9011,4.88,4.8604,5.4512,5.4529,5.4529,5.4994,5.5563,5.5581,5.5977,5.6408,5.6529,5.6615,5.6633,5.6667,5.6684,5.6702,5.6702,5.6684,5.6633,5.646,5.6012,5.5408,5.5305,5.5029,5.4443,5.4252,5.4106,5.4021,5.4106,5.4093,5.4045,5.3929,5.36,5.2889,5.2702,5.2544,5.213,5.1446,5.1164,5.0982,4.9856,4.9127,4.9127,4.8978,4.8564,4.81,4.8614,4.8647,4.81,4.7968,4.7951,4.7918,4.7918,4.7934,4.7984,4.8034,4.8513,4.9473,5.0189,5.0716,5.0885,5.1005,5.1038,5.094,5.0325,4.987,4.9368,4.8781,4.852,4.876,4.8667,4.8762,4.8825,4.8952,4.9236,4.9726,5.012,5.0246,5.0262,5.0512,5.0743,5.0573,5.0589,5.0512,5.0262,5.0089,4.9916,4.9916,4.9916,4.9916,4.9916,4.9916,4.9916,4.9916,4.9916,4.9916,4.9916,4.9758,4.9789,4.9726,4.9615,4.9805,4.9884,4.9916,4.9884,4.9916,4.9916,4.9836,4.9677,4.9517,4.9356,4.9275,4.9062,4.8996,4.8914,4.8718,4.8604,5.4787,5.5253,5.577,5.6133,5.6357,5.6374,5.6546,5.6788,5.6805,5.7081,5.746,5.7512,5.7771,5.8219,5.8219,5.7702,5.6805,5.6288,5.5874,5.5563,5.515,5.4707,5.4419,5.4239,5.4222,5.4257,5.4239,5.4239,5.4303,5.411,5.3783,5.3433,5.3041,5.2781,5.252,5.2179,5.1976,5.1926,5.1429,5.1197,5.1148,5.1197,5.085,5.0137,4.9889,4.969,4.9425,4.9409,4.9409,4.9409,4.9409,4.9624,5.0088,5.0551,5.0876,5.1031,5.1237,5.1353,5.121,5.1183,5.1183,5.1135,5.0519,4.9967,4.9512,4.9277,4.9094,4.9043,4.9331,4.9521,4.9536,4.9709,4.9882,5.0104,5.0246,5.0262,5.034,5.0418,5.0418,5.0262,5.0262,5.0168,5.0089,4.9916,4.9916,4.9916,4.9916,4.9916,4.9916,4.9916,4.9916,4.9916,4.9916,4.9916,4.9916,4.9473,4.922,4.9094,4.9031,4.9015,4.9062,4.9299,4.9315,4.9773,4.9836,4.9757,4.9533,4.9291,4.9194,4.8934,4.88,4.88,4.8718,4.862,4.8604,5.5305,5.6029,5.6564,5.6943,5.715,5.715,5.7305,5.7495,5.7529,5.7805,5.8202,5.8254,5.8547,5.8944,5.9012,5.853,5.7529,5.6978,5.6581,5.6322,5.5839,5.5413,5.5159,5.5042,5.5042,5.5073,5.4767,5.4664,5.463,5.423,5.3783,5.345,5.3041,5.2781,5.257,5.2445,5.2373,5.2373,5.2373,5.2357,5.2373,5.2373,5.2158,5.1645,5.1164,5.0667,5.027,5.022,5.022,5.0237,5.0436,5.0883,5.1595,5.2092,5.223,5.1851,5.1762,5.1631,5.1258,5.1183,5.1183,5.1183,5.0762,5.0306,4.9989,4.9913,4.97,4.958,4.9584,4.9916,4.9916,5.0168,5.0262,5.0168,5.0262,5.0262,5.034,5.034,5.0246,5.0089,5.001,4.9931,4.9916,4.9916,4.9916,4.9916,4.9916,4.9916,4.9916,4.9916,4.9916,4.9916,4.9916,4.9916,4.9805,4.9426,4.9062,4.8904,4.8541,4.843,4.8636,4.881,4.9063,4.96,4.9773,4.9613,4.9372,4.9144,4.8883,4.8687,4.8604,4.8702,4.862,4.8604,4.8604,5.6081,5.6771,5.6822,5.7322,5.7874,5.7909,5.8323,5.8788,5.8875,5.8823,5.8857,5.8944,5.8926,5.9012,5.9012,5.8944,5.8806,5.8668,5.834,5.7823,5.7754,5.7391,5.6822,5.6702,5.6598,5.6546,5.596,5.542,5.502,5.4407,5.3736,5.3058,5.2972,5.2781,5.2373,5.2373,5.2373,5.2373,5.2373,5.2373,5.2373,5.2373,5.234,5.2291,5.2224,5.1628,5.0402,5.0353,5.0419,5.0452,5.0949,5.1612,5.2175,5.2373,5.223,5.1851,5.1778,5.1557,5.1258,5.1183,5.1183,5.1183,5.1151,5.0995,5.0751,5.0554,5.04,5.0151,4.9947,4.9916,4.9916,5.0089,5.0168,5.001,5.0184,5.0262,5.034,5.0418,5.0512,5.0262,5.001,4.9916,4.9916,4.9916,4.9916,4.9916,4.9916,4.9916,4.9916,4.9916,4.9916,4.9916,4.9916,4.9916,4.9679,4.9378,4.911,4.881,4.8351,4.8098,4.862,4.8842,4.9142,4.9536,4.9597,4.9517,4.9452,4.9128,4.8965,4.8769,4.8687,4.8702,4.8702,4.8702,4.8604,5.6874,5.7616,5.8133,5.8443,5.865,5.8668,5.8823,5.9012,5.9012,5.9012,5.9012,5.9012,5.9012,5.9012,5.9012,5.9012,5.9012,5.8995,5.8875,5.8685,5.865,5.853,5.8236,5.7788,5.7305,5.684,5.6546,5.6019,5.5392,5.4935,5.4244,5.328,5.3006,5.2711,5.2478,5.2373,5.2373,5.2373,5.2373,5.2373,5.2373,5.2373,5.2373,5.2373,5.2373,5.2142,5.1744,5.1711,5.1711,5.1661,5.191,5.2142,5.234,5.2247,5.2102,5.1868,5.1647,5.1499,5.1258,5.1183,5.1183,5.1183,5.1183,5.1108,5.0896,5.0743,5.0512,5.034,5.0089,4.9916,4.9916,4.9931,5.0089,5.0184,5.0262,5.0262,5.0262,5.0184,5.0089,5.001,4.9916,4.9916,4.9916,4.9916,4.9916,4.9916,4.9916,4.9916,4.9916,4.9916,4.9916,4.9916,4.9916,4.9916,4.9742,4.9521,4.922,4.8873,4.8399,4.8162,4.862,4.8874,4.9127,4.9378,4.9423,4.9437,4.9372,4.921,4.9031,4.898,4.9011,4.8929,4.8914,4.8877,4.8789,5.7391,5.834,5.8806,5.9012,5.9012,5.9012,5.9012,5.9064,5.934,5.9444,5.9495,5.9754,5.9702,5.9495,5.9461,5.9271,5.9064,5.9237,5.9168,5.8927,5.8892,5.8892,5.8841,5.8513,5.8065,5.7633,5.7273,5.6761,5.6114,5.5587,5.4873,5.3984,5.3456,5.304,5.2721,5.2489,5.2373,5.2302,5.2302,5.2247,5.223,5.2158,5.2158,5.2142,5.2158,5.2175,5.2158,5.2158,5.223,5.2373,5.2373,5.2373,5.2302,5.2175,5.1957,5.1721,5.1573,5.1424,5.1258,5.1183,5.1183,5.1183,5.1183,5.1183,5.0956,5.0804,5.0512,5.0418,5.0089,4.9916,4.9916,4.9916,5.001,5.0105,5.0089,5.0184,5.0089,4.9995,4.9916,4.9916,4.9916,4.9916,4.9916,4.9916,4.9916,4.9916,4.9916,4.9916,4.9916,4.9916,4.9916,4.9916,4.9916,4.99,4.9884,4.9647,4.9347,4.8968,4.8525,4.8494,4.8715,4.8733,4.8907,4.9219,4.9437,4.9356,4.9275,4.9291,4.921,4.9272,4.9361,4.9213,4.9109,4.918,4.9204,5.7702,5.8944,5.9012,5.9012,5.903,5.9099,5.9168,5.9237,5.9909,6.0254,6.0375,6.0823,6.084,6.0358,6.0254,5.9909,5.9323,5.9717,5.968,5.9234,5.908,5.8975,5.8788,5.8668,5.8651,5.86,5.8015,5.7501,5.7106,5.6248,5.5505,5.495,5.4095,5.3612,5.34,5.2837,5.2528,5.2448,5.23,5.2129,5.1966,5.1868,5.1851,5.1868,5.195,5.1999,5.2015,5.2032,5.2096,5.2318,5.2302,5.223,5.2102,5.2102,5.1868,5.1589,5.1515,5.135,5.1258,5.1183,5.1183,5.1183,5.1183,5.1183,5.1108,5.082,5.0589,5.0496,5.0168,4.9916,4.9916,4.9916,4.9931,4.9916,4.9916,4.9916,4.9916,4.9916,4.9916,4.9916,4.9916,4.9916,4.9916,4.9916,4.9916,4.9916,4.9916,4.9916,4.9916,4.9916,4.9916,4.9916,4.9916,4.9916,4.99,4.9852,4.9584,4.941,4.9031,4.8999,4.8999,4.8938,4.897,4.9346,4.9437,4.9356,4.9418,4.9562,4.97,4.9899,4.9797,4.947,4.9542,4.972,4.9743,5.815,5.8978,5.9012,5.9012,5.9116,5.9616,5.9892,5.9978,6.0685,6.1013,6.1065,6.1203,6.1272,6.103,6.1013,6.0804,6.0524,6.0625,6.0532,6.0254,6.0057,5.9375,5.8749,5.8561,5.8631,5.858,5.8357,5.7909,5.7204,5.6701,5.6027,5.5113,5.4599,5.4155,5.3973,5.3642,5.3459,5.336,5.2852,5.2606,5.2466,5.2056,5.1778,5.1827,5.2286,5.2515,5.2548,5.2531,5.2269,5.1957,5.1941,5.1924,5.1868,5.1721,5.1663,5.1515,5.135,5.1275,5.1258,5.1183,5.1183,5.1183,5.1183,5.1108,5.0972,5.0743,5.0512,5.034,5.0089,4.9916,4.9916,4.9916,4.9916,4.9916,4.9916,4.9916,4.9916,4.9916,4.9916,4.9916,4.9916,4.9916,4.9916,4.9916,4.9916,4.9916,4.9916,4.9916,4.9916,4.9916,4.9916,4.9916,4.9916,4.9916,4.9916,4.9916,4.9868,4.9837,4.9663,4.96,4.96,4.9537,4.9631,4.9741,4.9677,4.9677,4.9897,5.0151,5.0335,5.0528,5.0518,5.0412,5.046,5.0607,5.0506,5.834,5.9047,5.9375,5.9513,5.9599,6.034,6.0668,6.0823,6.1461,6.1806,6.1875,6.2168,6.2082,6.1823,6.1717,6.1366,6.1015,6.1143,6.0944,6.0563,6.0289,5.9718,5.8996,5.857,5.8402,5.849,5.8419,5.8038,5.7484,5.7183,5.6549,5.5862,5.5123,5.4748,5.4503,5.4131,5.388,5.3672,5.3329,5.3117,5.2932,5.2606,5.2443,5.2443,5.2786,5.2965,5.2981,5.2981,5.2617,5.1966,5.1778,5.1778,5.1647,5.1573,5.1499,5.135,5.1275,5.1183,5.1183,5.1183,5.1183,5.1183,5.1183,5.1124,5.0896,5.0743,5.0496,5.034,5.0073,4.9916,4.9916,4.9916,4.9916,4.9916,4.9916,4.9916,4.9916,4.9916,4.9916,4.9916,4.9916,4.9916,4.9916,4.9916,4.9916,4.9916,4.9916,4.9916,4.9916,4.9916,4.9916,4.9916,4.9916,4.9916,4.9916,4.9916,4.9916,4.99,4.99,4.9916,4.9916,4.9916,4.9916,4.9836,4.9916,5.0042,5.0358,5.0753,5.1014,5.1142,5.1309,5.1305,5.132,5.1302,5.12,5.8461,5.9202,5.9892,6.0237,6.0409,6.1082,6.1427,6.1565,6.2272,6.2599,6.2703,6.3289,6.3065,6.2527,6.2363,6.189,6.1251,6.1586,6.1265,6.0883,6.0461,6.0095,5.9627,5.88,5.8447,5.8382,5.826,5.801,5.769,5.7429,5.7105,5.6442,5.5782,5.5292,5.5038,5.4502,5.3987,5.3974,5.3766,5.3574,5.3448,5.3285,5.3123,5.3139,5.3383,5.3496,5.3418,5.3353,5.3006,5.2015,5.1884,5.1761,5.1564,5.1499,5.1424,5.1275,5.1183,5.1183,5.1183,5.1183,5.1183,5.1183,5.1199,5.1124,5.082,5.0666,5.0418,5.0246,5.001,4.9916,4.9916,4.9916,4.9916,4.9916,4.9916,4.9916,4.9916,4.9916,4.9916,4.9916,4.9916,4.9916,4.9916,4.9916,4.9916,4.9916,4.9916,4.9916,4.9916,4.9916,4.9916,4.9916,4.9916,4.9916,4.9916,4.9916,4.9916,4.9916,4.9916,4.9916,4.9916,4.9916,4.9916,4.9947,5.0137,5.0405,5.0753,5.1146,5.1596,5.1868,5.2043,5.1973,5.1796,5.1847,5.1805,5.9237,5.9961,6.0116,6.053,6.1134,6.1875,6.222,6.2289,6.3013,6.3289,6.3375,6.3548,6.3422,6.3102,6.2993,6.2809,6.2267,6.2302,6.2259,6.1968,6.1264,6.1028,6.0562,5.9512,5.8581,5.8247,5.7988,5.7898,5.7678,5.7364,5.7063,5.663,5.6126,5.584,5.552,5.5165,5.5037,5.4939,5.4518,5.4258,5.4049,5.3677,5.345,5.3483,5.3904,5.4146,5.4179,5.4179,5.3742,5.3042,5.2486,5.2048,5.1534,5.1356,5.134,5.1307,5.1199,5.1183,5.1183,5.1183,5.1183,5.1183,5.1048,5.0912,5.065,5.0512,5.0262,5.001,4.9931,4.9916,4.9916,4.9916,4.9916,4.9916,4.9916,4.9916,4.9916,4.9916,4.9916,4.9916,4.9916,4.9916,4.9916,4.9916,4.9916,4.9916,4.9916,4.9916,4.9916,4.9916,4.9916,4.9916,4.9916,4.9916,4.9916,4.9916,4.9916,5.0026,5.0058,5.0121,5.0121,5.0216,5.0326,5.039,5.0469,5.0816,5.1353,5.2001,5.2597,5.269,5.2731,5.2611,5.2575,5.2537,5.2359,5.9461,6.022,6.0565,6.1151,6.1927,6.2686,6.2996,6.3065,6.3393,6.36,6.36,6.36,6.3452,6.3302,6.3152,6.3,6.271,6.2632,6.2459,6.2262,6.1924,6.1637,6.117,6.0359,5.9389,5.8535,5.8349,5.8049,5.754,5.7172,5.6774,5.6463,5.6102,5.5797,5.5685,5.5523,5.5361,5.5312,5.5086,5.4875,5.4778,5.4535,5.4308,5.4325,5.4665,5.4875,5.4875,5.4875,5.4503,5.392,5.3434,5.2916,5.222,5.1863,5.1685,5.1637,5.1313,5.1216,5.1183,5.1183,5.1183,5.1183,5.1048,5.082,5.0589,5.0434,5.0168,4.9995,4.9916,4.9916,4.9916,4.9916,4.9916,4.9916,4.9916,4.9916,4.9916,4.9916,4.9916,4.9916,4.9916,4.9916,4.9916,4.9916,4.9916,4.9916,4.9916,4.9916,4.9916,4.9916,4.9916,4.9916,4.9916,4.9916,4.9916,4.9916,4.9916,5.0105,5.0326,5.0453,5.0563,5.0706,5.0879,5.0927,5.1006,5.1654,5.2207,5.287,5.3212,5.324,5.3302,5.3243,5.3113,5.2754,5.2649,5.9651,6.0427,6.1168,6.1944,6.2686,6.3307,6.3548,6.3565,6.36,6.36,6.36,6.36,6.3452,6.3227,6.3076,6.2847,6.2615,6.2476,6.2398,6.2364,6.233,6.2009,6.1508,6.1109,6.0425,5.9287,5.8917,5.8413,5.774,5.7183,5.7153,5.6495,5.6302,5.6124,5.5783,5.5587,5.5555,5.5426,5.5345,5.5231,5.5247,5.5198,5.5166,5.5166,5.5264,5.5296,5.5296,5.528,5.5118,5.46,5.4567,5.4244,5.3644,5.2835,5.2365,5.2333,5.1799,5.1491,5.1426,5.1297,5.1183,5.1183,5.0972,5.0836,5.0589,5.034,5.0089,4.9995,4.9916,4.9916,4.9916,4.9916,4.9916,4.9916,4.9916,4.9916,4.9916,4.9916,4.9916,4.9916,4.9916,4.9916,4.9916,4.9916,4.9916,4.9916,4.9916,4.9916,4.9916,4.9916,4.9916,4.9916,4.9916,5.0216,5.0279,5.0374,5.0311,5.0611,5.0816,5.0974,5.118,5.1559,5.1733,5.1512,5.1685,5.2317,5.2807,5.3218,5.3544,5.375,5.3687,5.3496,5.3233,5.2982,5.2803,6.0444,6.1185,6.1961,6.272,6.3358,6.3548,6.36,6.36,6.36,6.36,6.36,6.36,6.336,6.3134,6.3,6.277,6.2537,6.2398,6.2398,6.2398,6.2398,6.2212,6.2049,6.1677,6.1161,6.0348,5.9717,5.9064,5.8611,5.8535,5.7853,5.7609,5.7411,5.71,5.6512,5.6284,5.6057,5.5766,5.5652,5.557,5.5309,5.5212,5.518,5.5196,5.5328,5.5328,5.5409,5.5409,5.5345,5.5264,5.5264,5.515,5.4745,5.379,5.3272,5.2997,5.2446,5.2041,5.2009,5.1507,5.1264,5.1108,5.096,5.0746,5.0591,5.0341,5.0279,5.0105,5.0074,4.9995,4.9916,5.0121,4.9995,4.9963,5.001,4.9995,4.9979,4.9995,4.9963,4.9931,4.9916,4.9916,4.9916,4.9916,4.9916,4.9916,4.9916,4.9916,4.9916,4.9916,4.9916,4.9916,4.9916,5.0342,5.0721,5.0864,5.0958,5.1401,5.1638,5.1749,5.2033,5.2523,5.2633,5.2412,5.2444,5.2902,5.3313,5.3613,5.3803,5.3899,5.3758,5.3584,5.3321,5.3055,5.2893,6.1203,6.1944,6.2341,6.2927,6.3531,6.36,6.36,6.36,6.36,6.36,6.36,6.3526,6.3302,6.3076,6.2847,6.2693,6.2476,6.2398,6.2398,6.2398,6.2398,6.2285,6.211,6.1837,6.1444,6.085,6.0224,5.9431,5.8707,5.8445,5.8297,5.795,5.7816,5.7453,5.7142,5.7045,5.685,5.6527,5.6478,5.6217,5.5628,5.5355,5.5129,5.5262,5.5262,5.5262,5.518,5.5113,5.5113,5.518,5.5262,5.5344,5.5118,5.4826,5.4211,5.3823,5.3207,5.2786,5.2595,5.2078,5.1759,5.1988,5.1435,5.1184,5.1312,5.123,5.0927,5.0958,5.099,5.1006,5.1069,5.0958,5.099,5.0927,5.0706,5.0484,5.0469,5.0453,5.0311,5.0121,5.0042,5.0026,4.9916,4.9916,4.9916,4.9916,4.9916,4.9931,4.9931,4.9916,4.9916,5.0153,5.0247,5.0753,5.1211,5.1448,5.1685,5.2128,5.2428,5.2539,5.2728,5.3155,5.336,5.3329,5.3487,5.3502,5.3676,5.3913,5.404,5.4103,5.3758,5.3584,5.3393,5.3129,5.2966,6.191,6.2496,6.2651,6.3065,6.3548,6.36,6.36,6.36,6.36,6.36,6.36,6.3394,6.3244,6.3,6.2787,6.2554,6.2381,6.2302,6.2302,6.2223,6.2223,6.211,6.1854,6.153,6.1202,6.0803,6.0485,5.9788,5.9151,5.8771,5.8404,5.8418,5.815,5.7887,5.7838,5.7773,5.7757,5.7595,5.7478,5.7054,5.6123,5.5561,5.521,5.5278,5.5196,5.5113,5.5113,5.4964,5.4819,5.4806,5.4757,5.4856,5.5036,5.5118,5.4923,5.4503,5.3856,5.3533,5.3195,5.2633,5.2329,5.2588,5.2013,5.1884,5.1978,5.1944,5.1891,5.2017,5.1954,5.1875,5.1796,5.1954,5.1922,5.1828,5.1448,5.118,5.118,5.1132,5.099,5.0721,5.039,5.0184,5.0121,5.0232,5.0295,5.0121,5.0121,5.0058,5.0058,4.9931,5.001,5.039,5.0721,5.1227,5.1685,5.2096,5.2412,5.2839,5.3107,5.3265,5.3439,5.3692,5.3787,5.3803,5.3882,5.3897,5.4071,5.4103,5.4103,5.4017,5.3742,5.3481,5.3393,5.3129,5.2893,6.241,6.2565,6.3186,6.3513,6.3582,6.36,6.36,6.36,6.36,6.36,6.36,6.3377,6.3169,6.2923,6.252,6.2268,6.2093,6.2014,6.1934,6.179,6.179,6.1628,6.1465,6.1235,6.0919,6.0581,6.0239,6.0103,5.9696,5.9577,5.9605,5.9383,5.9166,5.915,5.8464,5.8416,5.8162,5.7741,5.7372,5.6777,5.5959,5.5703,5.5341,5.5089,5.4964,5.5031,5.4931,5.4765,5.4557,5.3949,5.3885,5.4017,5.418,5.4001,5.4436,5.4598,5.4568,5.418,5.3826,5.3198,5.2797,5.2861,5.2394,5.2297,5.2372,5.2337,5.2238,5.2017,5.2096,5.2223,5.2286,5.2128,5.2065,5.2112,5.208,5.1922,5.1891,5.1875,5.1717,5.1606,5.1353,5.0753,5.0405,5.0579,5.069,5.0469,5.0311,5.0326,5.0262,5.0294,5.0421,5.0848,5.1401,5.1922,5.2254,5.2665,5.3013,5.3471,5.3629,5.3818,5.3882,5.3929,5.3992,5.404,5.4103,5.4103,5.4103,5.4103,5.4103,5.4017,5.3742,5.3568,5.3481,5.3233,5.2893,6.2324,6.3134,6.3444,6.36,6.36,6.36,6.36,6.36,6.36,6.3526,6.3377,6.3227,6.2906,6.2486,6.2251,6.1934,6.1692,6.1692,6.153,6.135,6.1268,6.1185,6.0969,6.0818,6.0479,6.0239,5.9979,5.9892,5.9892,5.9875,5.9804,5.9716,5.9716,5.9467,5.9007,5.8952,5.8807,5.8341,5.7829,5.7269,5.6734,5.6112,5.5522,5.5373,5.4989,5.4829,5.4681,5.4513,5.4094,5.3621,5.3544,5.3403,5.3438,5.355,5.3951,5.4143,5.4597,5.4581,5.4418,5.3645,5.3435,5.3448,5.3137,5.2891,5.3144,5.3223,5.3123,5.3202,5.3202,5.3155,5.3139,5.3186,5.3186,5.3107,5.2776,5.2665,5.2618,5.2602,5.2523,5.2428,5.2286,5.1682,5.1256,5.1351,5.1446,5.1193,5.1048,5.1045,5.1077,5.114,5.1253,5.1527,5.2096,5.2681,5.2965,5.3265,5.3502,5.3834,5.385,5.3992,5.404,5.4087,5.4103,5.4103,5.4103,5.4103,5.4103,5.4103,5.4103,5.3931,5.3844,5.3568,5.3393,5.3055,5.2803,6.1979,6.3031,6.3238,6.3307,6.3341,6.3513,6.36,6.36,6.3526,6.3452,6.3227,6.2983,6.2503,6.1997,6.1837,6.1628,6.1318,6.1219,6.1119,6.0936,6.0853,6.0701,6.0548,6.0394,6.0222,5.9979,5.97,5.9612,5.9612,5.9524,5.9524,5.9612,5.9452,5.9419,5.9225,5.9177,5.9008,5.869,5.8128,5.7809,5.7443,5.6575,5.6025,5.5602,5.507,5.4603,5.4428,5.4258,5.3941,5.3402,5.3327,5.3188,5.3163,5.3337,5.3544,5.3783,5.4218,5.4389,5.4246,5.3891,5.3951,5.3978,5.3925,5.3502,5.3866,5.4103,5.4087,5.3913,5.3945,5.3992,5.4087,5.4024,5.3913,5.3739,5.3597,5.3471,5.3344,5.3181,5.308,5.3065,5.2869,5.2791,5.2445,5.2335,5.2246,5.1946,5.1847,5.179,5.179,5.1774,5.202,5.2203,5.2807,5.3313,5.3502,5.3771,5.404,5.4103,5.4103,5.4103,5.4103,5.4103,5.4103,5.4103,5.4103,5.4103,5.4103,5.4103,5.4103,5.4001,5.3829,5.3568,5.3305,5.2966,5.2713,6.1358,6.1513,6.2255,6.2565,6.2668,6.3307,6.36,6.3526,6.3394,6.3227,6.3076,6.2693,6.2127,6.179,6.1465,6.1318,6.1102,6.0902,6.0633,6.0463,6.0394,6.0292,6.0222,6.0066,5.9979,5.9716,5.9524,5.9419,5.9331,5.9168,5.9168,5.9331,5.9257,5.9078,5.8988,5.8972,5.8898,5.8701,5.8435,5.7967,5.7634,5.7111,5.6781,5.5811,5.5446,5.5128,5.4476,5.4189,5.3803,5.3239,5.3176,5.3117,5.306,5.3184,5.3311,5.347,5.3978,5.4036,5.3783,5.401,5.4248,5.4125,5.4008,5.3929,5.4087,5.4103,5.4103,5.4103,5.4103,5.4103,5.4103,5.4103,5.4103,5.404,5.3913,5.378,5.3717,5.3593,5.3609,5.3616,5.342,5.3201,5.3083,5.2848,5.2683,5.2455,5.2332,5.227,5.2168,5.2137,5.2495,5.2838,5.3465,5.3882,5.3961,5.4103,5.4103,5.4103,5.4103,5.4103,5.4103,5.4103,5.4103,5.4103,5.4103,5.4103,5.4103,5.4103,5.4103,5.4001,5.3813,5.3465,5.3217,5.2877,5.2803,5.9892,5.9978,6.0596,6.1545,6.2565,6.3142,6.3377,6.3377,6.3093,6.2753,6.2486,6.203,6.1645,6.1318,6.1053,6.0802,6.0496,6.041,6.0222,6.0049,5.9963,5.9875,5.9892,5.9804,5.97,5.9524,5.9331,5.9241,5.9078,5.8898,5.8792,5.8866,5.8882,5.8882,5.8792,5.8626,5.8534,5.8443,5.8443,5.8161,5.8003,5.7496,5.7069,5.6626,5.5455,5.5186,5.479,5.4378,5.3755,5.3313,5.3171,5.3049,5.2859,5.2981,5.3191,5.3339,5.3755,5.385,5.3724,5.3983,5.4173,5.4189,5.4103,5.4103,5.4103,5.4103,5.4103,5.4103,5.4103,5.4103,5.4103,5.4103,5.4103,5.4103,5.4103,5.4017,5.3931,5.3773,5.3687,5.3537,5.3449,5.3356,5.3299,5.3227,5.305,5.2887,5.2822,5.2766,5.2533,5.2566,5.2895,5.3161,5.371,5.404,5.4103,5.4103,5.4103,5.4103,5.4103,5.4103,5.4103,5.4103,5.4103,5.4103,5.4103,5.4103,5.4103,5.4103,5.4103,5.4001,5.3655,5.329,5.304,5.2877,5.2803,5.8892,5.8909,5.956,6.0576,6.1697,6.2324,6.2621,6.27,6.2412,6.2116,6.1692,6.14,6.1169,6.0919,6.0649,6.0394,6.0152,6.0066,5.9892,5.9804,5.9716,5.9716,5.9716,5.9612,5.9524,5.9331,5.9136,5.8972,5.8898,5.861,5.8518,5.861,5.8717,5.8626,5.8534,5.8351,5.8259,5.8259,5.8259,5.8259,5.8164,5.7848,5.7358,5.7137,5.6268,5.5557,5.5162,5.4672,5.4166,5.3708,5.3408,5.3171,5.3028,5.3028,5.3234,5.3408,5.3645,5.4008,5.3882,5.4008,5.4087,5.4103,5.4103,5.4103,5.4103,5.4119,5.4103,5.4087,5.4017,5.4049,5.4064,5.3931,5.3844,5.3742,5.3829,5.3742,5.3671,5.3512,5.3424,5.3321,5.3233,5.3129,5.3144,5.3055,5.2962,5.2849,5.2807,5.2765,5.2807,5.2906,5.3246,5.3498,5.3852,5.4001,5.4103,5.4103,5.4103,5.4103,5.4103,5.4103,5.4103,5.4103,5.4103,5.4103,5.4103,5.4103,5.4119,5.4033,5.4033,5.4033,5.3584,5.3217,5.2966,5.2803,5.2713,5.849,5.8593,5.9242,5.9744,6.0055,6.0652,6.1166,6.152,6.1332,6.1266,6.1202,6.1102,6.0835,6.0479,6.0222,6.0066,5.9979,5.9804,5.9716,5.9716,5.9716,5.9716,5.9612,5.9435,5.9331,5.9225,5.8956,5.8685,5.861,5.8443,5.8351,5.8351,5.8443,5.8367,5.8367,5.8274,5.8259,5.8259,5.8259,5.8259,5.8243,5.8148,5.78,5.7437,5.7026,5.6331,5.5509,5.5083,5.4561,5.4008,5.3913,5.3803,5.3803,5.3818,5.3724,5.3329,5.3787,5.3787,5.3329,5.3803,5.404,5.4103,5.4103,5.415,5.415,5.4166,5.434,5.4459,5.4277,5.4096,5.3812,5.3709,5.3803,5.3621,5.374,5.3559,5.3502,5.3336,5.3248,5.316,5.2893,5.2713,5.2713,5.2713,5.2803,5.2757,5.2698,5.2803,5.2893,5.3144,5.3496,5.3671,5.3931,5.4017,5.4103,5.4103,5.4103,5.4103,5.4103,5.4103,5.4103,5.4103,5.4103,5.4103,5.4103,5.4103,5.4033,5.3962,5.3773,5.3687,5.3424,5.3071,5.2803,5.2713,5.2713,5.8419,5.8294,5.846,5.84,5.8586,5.9831,6.0342,6.0384,6.0544,6.0684,6.0787,6.0734,6.0479,6.0222,5.9979,5.9892,5.9804,5.9804,5.9716,5.9716,5.9716,5.9524,5.9435,5.9331,5.9136,5.8866,5.8594,5.8518,5.8459,5.8367,5.8274,5.8259,5.8259,5.8259,5.8274,5.8259,5.8259,5.8259,5.8259,5.8259,5.8259,5.8243,5.8132,5.7848,5.7484,5.6805,5.5873,5.5525,5.4893,5.4277,5.4166,5.4103,5.4103,5.4103,5.3992,5.3755,5.4071,5.4008,5.3818,5.404,5.4087,5.4103,5.4166,5.4356,5.4672,5.4767,5.4916,5.5096,5.5024,5.4894,5.4887,5.4871,5.4719,5.422,5.4048,5.3694,5.3497,5.3253,5.3086,5.2893,5.2713,5.2713,5.2713,5.2713,5.2729,5.2893,5.2893,5.2982,5.3071,5.3336,5.3687,5.3773,5.3931,5.4017,5.4103,5.4103,5.4103,5.4103,5.4103,5.4103,5.4103,5.4103,5.4103,5.4103,5.4103,5.4103,5.386,5.3615,5.3424,5.3248,5.3164,5.3028,5.2803,5.2713,5.2713,5.8027,5.7898,5.7735,5.7588,5.759,5.8631,5.9153,5.9275,5.9648,5.9877,5.9927,6.0022,5.9916,5.9826,5.9778,5.9716,5.9716,5.9716,5.9716,5.9716,5.9612,5.9435,5.9331,5.9136,5.8866,5.861,5.8534,5.8459,5.8367,5.8274,5.8259,5.8259,5.8259,5.8259,5.8259,5.8259,5.8259,5.8259,5.8259,5.8259,5.8259,5.8259,5.8259,5.8116,5.78,5.7279,5.6568,5.5857,5.5162,5.4593,5.4245,5.4134,5.4103,5.4103,5.4103,5.4103,5.4103,5.4087,5.4071,5.4071,5.4103,5.4103,5.4277,5.4782,5.532,5.5478,5.5506,5.5669,5.5709,5.5527,5.5314,5.5345,5.4945,5.4432,5.4106,5.3737,5.3567,5.3338,5.3016,5.2806,5.2852,5.2821,5.2821,5.2729,5.2819,5.2982,5.316,5.3191,5.3295,5.3512,5.3789,5.386,5.3931,5.4017,5.4103,5.4103,5.4103,5.4103,5.4103,5.4103,5.4103,5.4103,5.4103,5.4049,5.3994,5.3923,5.3615,5.3352,5.3284,5.3198,5.3127,5.2944,5.276,5.2793,5.2855,5.7514,5.7273,5.7289,5.7214,5.708,5.7281,5.7573,5.8103,5.8515,5.8687,5.8625,5.9268,5.9348,5.9272,5.9707,5.9914,5.9804,5.9716,5.9716,5.9612,5.9508,5.9331,5.9152,5.8882,5.8701,5.8518,5.8443,5.8351,5.8259,5.8259,5.8259,5.8259,5.8259,5.8259,5.8259,5.8259,5.8259,5.8259,5.8085,5.8053,5.8006,5.7958,5.7756,5.7661,5.7535,5.7172,5.6678,5.6094,5.5525,5.4956,5.4435,5.4213,5.4103,5.4103,5.4103,5.4103,5.4103,5.4103,5.4103,5.4103,5.4229,5.434,5.4735,5.5414,5.5715,5.5689,5.5695,5.5583,5.5543,5.5376,5.5116,5.4977,5.4746,5.436,5.4021,5.3714,5.356,5.3345,5.3067,5.3021,5.3098,5.3129,5.3206,5.3129,5.3343,5.3601,5.3796,5.3757,5.3783,5.3655,5.3844,5.386,5.3931,5.4103,5.4119,5.4134,5.4103,5.4103,5.4103,5.4087,5.4103,5.408,5.4088,5.4049,5.3962,5.3897,5.399,5.3749,5.3338,5.3281,5.333,5.307,5.2947,5.3177,5.3299,5.7422,5.7046,5.7063,5.6987,5.6751,5.6286,5.6485,5.7022,5.6779,5.6905,5.7802,5.7999,5.8446,5.9229,5.932,5.961,5.9713,5.9788,5.9716,5.9612,5.9419,5.9241,5.8972,5.8792,5.8518,5.8443,5.8351,5.8259,5.8259,5.8259,5.8259,5.8259,5.8164,5.8195,5.8164,5.8243,5.8164,5.8053,5.7753,5.7535,5.7207,5.6879,5.6769,5.6691,5.6707,5.6419,5.5973,5.5715,5.5146,5.453,5.4261,5.4103,5.4103,5.4103,5.4103,5.4103,5.4103,5.4103,5.4103,5.4103,5.4245,5.4577,5.494,5.5098,5.5295,5.538,5.5375,5.5477,5.5361,5.5208,5.5008,5.4807,5.4576,5.4283,5.3991,5.3837,5.3698,5.3606,5.3391,5.3729,5.3791,5.3791,5.3822,5.3929,5.4129,5.439,5.4479,5.4348,5.4168,5.3953,5.3931,5.3947,5.4049,5.4134,5.4166,5.4198,5.415,5.4103,5.4182,5.4143,5.4073,5.4065,5.4,5.4131,5.4251,5.4567,5.4912,5.4359,5.3498,5.3561,5.3683,5.3346,5.3239,5.3404,5.3614,5.7214,5.6911,5.6894,5.6684,5.6117,5.5189,5.5024,5.5305,5.5222,5.5676,5.636,5.6971,5.7538,5.8101,5.8771,5.9337,5.9626,5.9691,5.9716,5.9628,5.9331,5.9152,5.8882,5.8626,5.8443,5.8351,5.8259,5.8259,5.8243,5.8227,5.8211,5.78,5.7848,5.7674,5.7469,5.7204,5.716,5.716,5.7065,5.6801,5.6364,5.5928,5.5712,5.5571,5.5571,5.5453,5.5301,5.5128,5.4774,5.4451,5.4372,5.4103,5.4103,5.4103,5.4103,5.4103,5.4103,5.4103,5.4103,5.4103,5.4356,5.4506,5.4664,5.4545,5.4844,5.504,5.5196,5.5298,5.5162,5.5024,5.4823,5.4684,5.4437,5.4206,5.4037,5.3883,5.3837,5.3822,5.4114,5.4514,5.4622,5.4607,5.4653,5.4714,5.4792,5.4838,5.482,5.4647,5.4423,5.4131,5.4049,5.4049,5.408,5.4182,5.4229,5.434,5.4317,5.4396,5.4451,5.4379,5.4078,5.4085,5.4231,5.4504,5.4729,5.4885,5.4962,5.433,5.376,5.3789,5.3586,5.3204,5.3064,5.3364,5.3527,5.6963,5.6564,5.6547,5.6084,5.5388,5.4096,5.3533,5.3467,5.408,5.4394,5.4759,5.5819,5.6294,5.6846,5.774,5.8426,5.8763,5.9063,5.9295,5.9619,5.9241,5.8972,5.8898,5.8534,5.8351,5.8259,5.8227,5.818,5.8132,5.8006,5.769,5.7168,5.7137,5.6947,5.6494,5.6341,5.6129,5.5865,5.6069,5.5994,5.5559,5.5327,5.5327,5.5218,5.5187,5.5199,5.5254,5.5077,5.4788,5.4711,5.4459,5.4049,5.4103,5.4017,5.4017,5.4017,5.4017,5.3931,5.3915,5.3915,5.3915,5.3994,5.386,5.3883,5.4157,5.4413,5.4656,5.4601,5.4388,5.4205,5.4006,5.4006,5.3852,5.3714,5.3591,5.3698,5.3914,5.4006,5.4314,5.4653,5.4714,5.4714,5.4714,5.4714,5.473,5.4916,5.4931,5.4851,5.4507,5.4189,5.4078,5.4025,5.4049,5.4112,5.4403,5.4443,5.4561,5.4615,5.4543,5.4345,5.3783,5.4021,5.443,5.4512,5.4484,5.4607,5.4544,5.4112,5.3741,5.3556,5.3213,5.2842,5.2883,5.32,5.3284,5.6246,5.5819,5.5272,5.4924,5.4676,5.3798,5.34,5.3367,5.3003,5.3218,5.3699,5.4129,5.4816,5.5815,5.6113,5.671,5.7544,5.7927,5.8356,5.8717,5.8719,5.8684,5.8818,5.8312,5.8224,5.8259,5.8195,5.7879,5.7563,5.739,5.7137,5.6505,5.6426,5.6131,5.57,5.5595,5.5258,5.4644,5.4647,5.4803,5.4479,5.3936,5.3656,5.3718,5.3734,5.3975,5.3955,5.3918,5.3937,5.3931,5.397,5.3962,5.4103,5.3931,5.386,5.3876,5.3742,5.3655,5.3655,5.3655,5.364,5.364,5.3481,5.3409,5.3461,5.3606,5.3672,5.3629,5.348,5.3404,5.3314,5.3314,5.3314,5.3221,5.3175,5.3545,5.3945,5.4237,5.4499,5.4607,5.4699,5.4714,5.4714,5.473,5.473,5.4745,5.4823,5.47,5.4419,5.4119,5.3923,5.3875,5.3742,5.3892,5.4277,5.4482,5.4464,5.4282,5.41,5.383,5.3501,5.3939,5.4267,5.4175,5.4145,5.4405,5.4431,5.4214,5.3842,5.3471,5.3058,5.2608,5.2602,5.2792,5.2875,5.5921,5.5487,5.4477,5.403,5.3897,5.3268,5.2953,5.287,5.2556,5.2589,5.2986,5.3318,5.3897,5.4783,5.4815,5.5169,5.6154,5.6449,5.7323,5.7877,5.7875,5.8021,5.7946,5.782,5.737,5.7326,5.7311,5.7058,5.6805,5.671,5.6441,5.5737,5.5522,5.5307,5.4941,5.4621,5.4348,5.366,5.3585,5.3495,5.3495,5.3124,5.2893,5.2893,5.2982,5.3055,5.3233,5.3305,5.3409,5.3599,5.3584,5.3671,5.3742,5.3655,5.3584,5.3584,5.3481,5.3377,5.3377,5.3377,5.3377,5.3377,5.3321,5.3264,5.3474,5.366,5.3093,5.2944,5.305,5.2975,5.296,5.2975,5.2975,5.2914,5.296,5.3191,5.3775,5.4283,5.4499,5.4668,5.4714,5.4714,5.4636,5.4543,5.4652,5.4636,5.4636,5.4298,5.4052,5.3758,5.3598,5.3512,5.3352,5.3715,5.4314,5.4304,5.4215,5.3955,5.3617,5.3551,5.3451,5.3868,5.4067,5.3959,5.4018,5.4352,5.4298,5.4081,5.3895,5.3537,5.3049,5.2482,5.2426,5.2479,5.2524,5.5613,5.514,5.3864,5.3284,5.3202,5.2655,5.2407,5.2407,5.2373,5.2373,5.2489,5.3019,5.3251,5.3618,5.4102,5.4459,5.475,5.502,5.5944,5.6473,5.6279,5.6749,5.6869,5.6788,5.6594,5.6457,5.6441,5.6268,5.6062,5.591,5.5553,5.4794,5.4439,5.4194,5.358,5.3264,5.3164,5.3121,5.3032,5.279,5.2744,5.2713,5.2713,5.2713,5.2713,5.2819,5.2982,5.3071,5.3144,5.3305,5.3393,5.3481,5.3481,5.3393,5.3409,5.3321,5.3217,5.3217,5.3217,5.3217,5.3217,5.3217,5.3191,5.3291,5.3603,5.3528,5.2962,5.2794,5.2809,5.2685,5.2685,5.2685,5.2685,5.267,5.2746,5.2793,5.3438,5.3991,5.4145,5.4329,5.4314,5.422,5.4251,5.4188,5.4204,5.4313,5.419,5.3883,5.3546,5.3224,5.2977,5.2988,5.2908,5.3396,5.4021,5.3917,5.3777,5.3446,5.3112,5.3238,5.3285,5.3254,5.3421,5.3784,5.3918,5.399,5.4092,5.3884,5.3697,5.348,5.2873,5.2342,5.2181,5.2167,5.2284,5.4655,5.3765,5.292,5.2589,5.2556,5.244,5.2373,5.2373,5.2373,5.2373,5.2407,5.2456,5.2589,5.2605,5.2392,5.2695,5.3438,5.3607,5.4034,5.4599,5.5137,5.5671,5.5994,5.597,5.6198,5.6062,5.5904,5.5809,5.5342,5.5128,5.4772,5.4088,5.3715,5.3549,5.3253,5.3071,5.2966,5.2893,5.2803,5.2713,5.2713,5.2713,5.2713,5.2713,5.2713,5.2713,5.2803,5.2819,5.2893,5.3144,5.3305,5.3305,5.3305,5.3233,5.3144,5.3144,5.3055,5.2966,5.2966,5.2966,5.2966,5.3152,5.3173,5.3514,5.3807,5.3928,5.3528,5.334,5.3236,5.2551,5.2429,5.2414,5.2414,5.2337,5.2353,5.2292,5.2551,5.2657,5.2718,5.2764,5.2764,5.2764,5.2779,5.2702,5.2624,5.2732,5.2747,5.2504,5.255,5.2475,5.2368,5.2353,5.2337,5.2683,5.3106,5.314,5.2914,5.2748,5.2597,5.2612,5.2535,5.2306,5.2518,5.3013,5.3224,5.322,5.335,5.3871,5.3428,5.3121,5.2642,5.2202,5.2085,5.2091,5.2427]}]]